Date StartTime U_cm/s V_cm/s W_cm/s Ustd_cm/s Vstd_cm/s Wstd_cm/s Uvar_(cm/s)^2 Vvar_(cm/s)^2 Wvar_(cm/s)^2 KE_(m/s)^2 TurbulentKE_(m/s)^2 HorizWindSpeed_cm/s FrictionSpeec_cm/s DragCoef SpeedOfSound_m/s SonicTemperature_C Pressure_mb 
04/19/2013  00:00:00      -62.865      -36.757        1.665       27.149       29.600       16.621      737.043      876.135      276.264        0.360        0.094       72.822       14.362        0.039      336.639        8.076      868.760
04/19/2013  00:01:00      -90.490      -44.739       -2.577       26.728       18.514       14.620      714.371      342.755      213.733        0.573        0.064      100.946       11.901        0.014      336.595        8.003      868.718
04/19/2013  00:02:00      -42.601      -48.707        6.286       43.464       23.727       13.630     1889.145      562.952      185.769        0.343        0.132       64.709       10.989        0.029      336.596        8.005      868.720
04/19/2013  00:03:00      -63.671      -66.635        1.972       44.045       46.982       22.274     1939.928     2207.267      496.149        0.657        0.232       92.164       27.250        0.087      336.555        7.935      868.731
04/19/2013  00:04:00     -105.196      -76.159       -4.105       45.445       30.945       28.328     2065.289      957.575      802.449        1.035        0.191      129.871       23.022        0.031      336.466        7.787      868.752
04/19/2013  00:05:00     -115.669      -87.244        3.870       54.844       59.293       34.970     3007.872     3515.709     1222.867        1.437        0.387      144.882       31.957        0.049      336.376        7.634      868.767
04/19/2013  00:06:00     -102.441     -112.796       -1.340       45.173       60.833       33.984     2040.627     3700.662     1154.882        1.506        0.345      152.372       35.438        0.054      336.363        7.613      868.765
04/19/2013  00:07:00     -115.153     -100.843       -3.021       63.799       46.065       26.499     4070.294     2121.961      702.190        1.517        0.345      153.067       26.346        0.030      336.348        7.587      868.749
04/19/2013  00:08:00      -95.569     -126.899      -10.694       50.140       40.119       27.557     2514.007     1609.530      759.362        1.512        0.244      158.861       25.558        0.026      336.344        7.582      868.742
04/19/2013  00:09:00      -97.376      -87.147      -14.118       52.167       33.697       24.334     2721.426     1135.490      592.146        1.086        0.222      130.678       27.514        0.044      336.365        7.617      868.723
04/19/2013  00:10:00     -119.093     -104.010      -11.633       38.935       31.254       19.719     1515.926      976.802      388.850        1.401        0.144      158.118       15.816        0.010      336.309        7.524      868.718
04/19/2013  00:11:00     -122.826      -55.074       -1.356       40.780       41.883       23.560     1663.036     1754.222      555.082        1.105        0.199      134.608       25.020        0.035      336.197        7.338      868.722
04/19/2013  00:12:00      -60.343      -78.228        7.479       65.450       51.282       30.177     4283.668     2629.843      910.678        0.882        0.391       98.797       37.608        0.145      336.264        7.449      868.735
04/19/2013  00:13:00     -112.360     -101.007      -13.856       37.642       30.681       23.284     1416.918      941.332      542.158        1.296        0.145      151.087       22.824        0.023      336.204        7.350      868.758
04/19/2013  00:14:00      -77.187      -62.170       -1.012       34.296       20.070       21.345     1176.217      402.786      455.628        0.593        0.102       99.111       19.751        0.040      336.191        7.328      868.761
04/19/2013  00:15:00      -74.299      -18.412       -5.997       18.293       35.353       12.948      334.642     1249.843      167.656        0.382        0.088       76.546        8.238        0.012      336.263        7.445      868.766
04/19/2013  00:16:00      -82.301       -8.741       -4.087       30.380       25.130       19.081      922.940      631.503      364.082        0.439        0.096       82.764       17.663        0.046      336.184        7.314      868.777
04/19/2013  00:17:00      -84.176      -46.841      -10.010       29.031       28.124       15.984      842.801      790.939      255.488        0.563        0.094       96.331       14.250        0.022      336.198        7.338      868.780
04/19/2013  00:18:00      -52.875      -24.282       -6.823       23.130       21.079       15.093      535.020      444.308      227.791        0.232        0.060       58.184        3.710        0.004      336.146        7.251      868.788
04/19/2013  00:19:00      -72.015      -24.930       -1.836       15.693       23.883       13.277      246.280      570.405      176.277        0.340        0.050       76.208        9.591        0.016      336.139        7.239      868.787
04/19/2013  00:20:00      -71.657      -40.879       -0.968       18.767       18.738       11.636      352.204      351.119      135.386        0.382        0.042       82.497       10.132        0.015      336.217        7.370      868.770
04/19/2013  00:21:00      -91.160      -28.901      -12.048       14.089       15.304       16.474      198.491      234.227      271.376        0.500        0.035       95.632       11.219        0.014      336.092        7.161      868.751
04/19/2013  00:22:00      -80.815      -26.907      -10.224       19.002       22.878       13.362      361.081      523.421      178.544        0.421        0.053       85.177       10.453        0.015      336.100        7.174      868.725
04/19/2013  00:23:00     -108.700      -10.956      -11.480       22.747       17.501       14.513      517.433      306.273      210.632        0.655        0.052      109.250       13.303        0.015      335.990        6.990      868.691
04/19/2013  00:24:00      -78.241      -10.604       -8.223       24.974       21.816       11.894      623.683      475.931      141.470        0.377        0.062       78.956       11.078        0.020      336.027        7.053      868.687
04/19/2013  00:25:00      -67.243        3.766       -5.616       14.969       14.254       11.976      224.085      203.188      143.417        0.257        0.029       67.348        7.024        0.011      335.990        6.991      868.681
04/19/2013  00:26:00      -44.565        8.509       -6.811       10.386        9.478        8.109      107.874       89.828       65.750        0.118        0.013       45.370        6.213        0.019      335.931        6.891      868.675
04/19/2013  00:27:00      -42.441       -5.199        0.491       16.109        9.611       10.880      259.514       92.374      118.379        0.115        0.024       42.758        8.967        0.044      336.050        7.092      868.658
04/19/2013  00:28:00      -12.117        1.255       -1.677        8.373        6.184        8.041       70.113       38.245       64.662        0.016        0.009       12.182        4.901        0.162      336.044        7.081      868.658
04/19/2013  00:29:00      -17.184      -12.890       -3.666       10.459        9.688        7.231      109.395       93.849       52.289        0.037        0.013       21.481        6.287        0.086      336.111        7.191      868.642
04/19/2013  00:30:00      -24.983      -26.291        0.028       19.413       14.048        8.771      376.851      197.354       76.931        0.098        0.033       36.268        6.951        0.037      336.117        7.202      868.630
04/19/2013  00:31:00      -11.153      -35.791        2.075       14.962       33.622       12.404      223.858     1130.439      153.850        0.146        0.075       37.488        7.506        0.040      336.065        7.116      868.627
04/19/2013  00:32:00       -4.897      -60.541      -13.089       32.063       36.108       13.771     1028.050     1303.794      189.640        0.319        0.126       60.738        9.278        0.023      336.282        7.478      868.642
04/19/2013  00:33:00      -11.275      -13.350       10.938       23.012       20.385       14.344      529.553      415.547      205.746        0.079        0.058       17.474       14.300        0.670      336.093        7.163      868.660
04/19/2013  00:34:00      -70.570      -35.267        0.444       37.852       24.665       17.090     1432.768      608.364      292.064        0.428        0.117       78.892       17.258        0.048      336.058        7.104      868.671
04/19/2013  00:35:00      -57.474      -32.716        2.054       34.752       20.768       16.072     1207.694      431.297      258.296        0.314        0.095       66.133        9.411        0.020      336.032        7.060      868.670
04/19/2013  00:36:00      -58.409      -19.727       10.395       41.818       22.920       16.650     1748.782      525.314      277.224        0.323        0.128       61.650       16.990        0.076      335.973        6.964      868.663
04/19/2013  00:37:00      -64.771      -54.928        7.836       46.291       34.077       21.972     2142.883     1161.267      482.747        0.553        0.189       84.926       23.649        0.078      335.989        6.989      868.650
04/19/2013  00:38:00      -53.748      -64.243        4.710       37.543       35.833       21.048     1409.484     1284.033      443.029        0.509        0.157       83.762       23.541        0.079      336.034        7.064      868.636
04/19/2013  00:39:00      -69.804      -58.951       -0.384       37.726       34.645       19.054     1423.217     1200.245      363.039        0.567        0.149       91.366       16.590        0.033      336.034        7.064      868.633
04/19/2013  00:40:00      -46.633      -35.129       15.193       48.899       29.579       22.398     2391.078      874.941      501.684        0.370        0.188       58.384       26.150        0.201      336.013        7.030      868.630
04/19/2013  00:41:00      -51.472      -23.355        2.681       43.236       28.688       18.794     1869.347      822.987      353.201        0.312        0.152       56.523       23.553        0.174      335.991        6.992      868.652
04/19/2013  00:42:00      -79.708      -26.034        0.739       22.705       18.749       15.600      515.525      351.537      243.374        0.407        0.056       83.852       11.948        0.020      335.833        6.731      868.668
04/19/2013  00:43:00      -85.639      -29.757        0.765       21.605       18.856       15.781      466.765      355.542      249.033        0.465        0.054       90.661       14.043        0.024      335.783        6.648      868.677
04/19/2013  00:44:00      -35.435      -54.151        8.775       30.952       24.049       16.481      958.006      578.361      271.627        0.304        0.090       64.715       14.078        0.047      335.907        6.853      868.686
04/19/2013  00:45:00      -35.978      -35.524        4.502       33.589       30.636       17.974     1128.249      938.591      323.082        0.248        0.119       50.561       11.394        0.051      335.909        6.857      868.690
04/19/2013  00:46:00      -26.970      -49.768        4.314       28.434       32.392       15.902      808.518     1049.262      252.883        0.267        0.106       56.606       10.324        0.033      335.939        6.907      868.698
04/19/2013  00:47:00      -51.088      -49.882       -4.348       36.023       18.689       15.230     1297.656      349.292      231.965        0.350        0.094       71.402        7.619        0.011      335.894        6.830      868.689
04/19/2013  00:48:00      -60.552      -32.058       -2.477       40.592       23.365       21.879     1647.711      545.945      478.691        0.369        0.134       68.515       15.646        0.052      335.929        6.890      868.685
04/19/2013  00:49:00      -74.797      -58.446       -8.248       21.694       17.844       18.393      470.647      318.421      338.292        0.510        0.056       94.924       15.967        0.028      335.910        6.857      868.689
04/19/2013  00:50:00      -64.132      -17.833       -7.027       23.864       22.929       11.494      569.473      525.737      132.114        0.285        0.061       66.565       11.300        0.029      335.844        6.749      868.680
04/19/2013  00:51:00      -82.392       -9.554        0.569       33.930       21.417       19.959     1151.243      458.678      398.362        0.444        0.100       82.944       16.314        0.039      335.728        6.557      868.678
04/19/2013  00:52:00      -69.843      -10.147       -4.611       26.031       13.802       13.782      677.599      190.492      189.953        0.303        0.053       70.576       14.274        0.041      335.714        6.534      868.667
04/19/2013  00:53:00      -77.852       -2.242       -2.292       31.556       16.906       21.639      995.792      285.822      468.239        0.391        0.087       77.884       21.506        0.076      335.628        6.389      868.642
04/19/2013  00:54:00      -80.765       -5.722        0.906       47.655       19.025       20.853     2270.989      361.957      434.847        0.481        0.153       80.968       22.158        0.075      335.651        6.427      868.624
04/19/2013  00:55:00      -89.140      -11.914        1.441       43.457       25.444       22.071     1888.527      647.396      487.122        0.556        0.151       89.932       23.427        0.068      335.547        6.252      868.608
04/19/2013  00:56:00      -99.713      -12.282       -9.086       29.537       20.490       17.009      872.452      419.854      289.313        0.588        0.079      100.466       15.534        0.024      335.551        6.261      868.596
04/19/2013  00:57:00      -64.180       -3.872        1.365       31.909       28.236       16.621     1018.168      797.247      276.262        0.311        0.105       64.297       17.642        0.075      335.580        6.308      868.596
04/19/2013  00:58:00      -91.432       -1.925       -6.456       21.288       18.825       14.234      453.172      354.363      202.599        0.471        0.051       91.452        9.613        0.011      335.556        6.268      868.594
04/19/2013  00:59:00      -78.998      -34.373      -13.425       23.043       32.228       14.717      530.962     1038.663      216.600        0.469        0.089       86.152        2.948        0.001      335.547        6.254      868.593
04/19/2013  01:00:00      -75.029      -40.664       -5.348       35.994       39.762       21.017     1295.591     1581.011      441.723        0.531        0.166       85.340       19.797        0.054      335.551        6.259      868.602
04/19/2013  01:01:00      -29.612      -27.603       -9.165       43.644       33.051       16.026     1904.771     1092.378      256.844        0.249        0.163       40.482        8.873        0.048      335.545        6.250      868.603
04/19/2013  01:02:00      -10.617      -22.732       -4.495       22.910       18.570       13.456      524.851      344.851      181.051        0.085        0.053       25.089        8.421        0.113      335.585        6.316      868.617
04/19/2013  01:03:00      -28.032      -19.792       -0.830       33.037       21.040       18.443     1091.429      442.689      340.127        0.153        0.094       34.315       14.613        0.181      335.510        6.192      868.633
04/19/2013  01:04:00      -94.507      -40.115       -9.498       28.097       33.197       16.813      789.435     1102.042      282.687        0.640        0.109      102.668       15.470        0.023      335.346        5.918      868.635
04/19/2013  01:05:00      -66.312      -41.553      -11.922       39.406       30.082       17.675     1552.872      904.937      312.406        0.452        0.139       78.256       12.462        0.025      335.337        5.903      868.636
04/19/2013  01:06:00      -23.595      -30.921       -1.149       50.052       21.034       22.442     2505.235      442.431      503.665        0.248        0.173       38.895       17.407        0.200      335.450        6.091      868.639
04/19/2013  01:07:00     -114.508      -64.065       -8.191       27.496       24.176       17.335      756.041      584.501      300.494        0.946        0.082      131.211       12.911        0.010      335.318        5.871      868.653
04/19/2013  01:08:00     -114.667      -62.850       -1.298       43.067       26.551       19.665     1854.735      704.930      386.704        1.002        0.147      130.762       19.680        0.023      335.272        5.795      868.645
04/19/2013  01:09:00     -115.156      -67.096       -3.056       59.124       37.331       23.216     3495.697     1393.621      538.989        1.160        0.271      133.277       26.001        0.038      335.237        5.737      868.637
04/19/2013  01:10:00     -187.091      -49.965      -18.058       38.228       32.131       22.604     1461.381     1032.427      510.930        2.041        0.150      193.648       14.412        0.006      335.271        5.793      868.623
04/19/2013  01:11:00     -103.362      -22.110       -0.500       41.970       46.224       26.438     1761.508     2136.655      698.968        0.788        0.230      105.701       19.741        0.035      335.206        5.684      868.609
04/19/2013  01:12:00     -154.370        7.403      -16.845       43.327       37.587       23.420     1877.197     1412.777      548.484        1.400        0.192      154.547       23.073        0.022      335.200        5.676      868.579
04/19/2013  01:13:00     -144.931      -15.134      -16.627       48.219       39.042       21.455     2325.072     1524.300      460.331        1.291        0.215      145.719       22.269        0.023      335.197        5.669      868.558
04/19/2013  01:14:00     -123.559      -35.956       -8.120       25.513       32.806       22.334      650.919     1076.232      498.800        0.943        0.111      128.685       16.680        0.017      335.256        5.768      868.550
04/19/2013  01:15:00     -135.429        0.664      -16.652       25.549       26.707       18.823      652.759      713.273      354.322        1.017        0.086      135.430       15.768        0.014      335.256        5.767      868.537
04/19/2013  01:16:00     -151.872        0.017      -18.918       25.946       28.198       19.813      673.211      795.145      392.566        1.264        0.093      151.872       14.801        0.009      335.277        5.803      868.517
04/19/2013  01:17:00     -173.816       33.875      -15.728       33.223       29.080       17.946     1103.770      845.632      322.070        1.694        0.114      177.086       10.972        0.004      335.296        5.835      868.518
04/19/2013  01:18:00     -161.508       21.849      -16.540       31.618       34.571       21.459      999.684     1195.142      460.478        1.474        0.133      162.979       12.646        0.006      335.253        5.763      868.503
04/19/2013  01:19:00     -134.617      -32.189      -11.705       41.925       33.105       23.316     1757.738     1095.957      543.644        1.135        0.170      138.412       14.906        0.012      335.264        5.783      868.502
04/19/2013  01:20:00     -109.746       -6.418      -10.794       40.721       40.239       25.058     1658.240     1619.139      627.906        0.805        0.195      109.933       20.509        0.035      335.205        5.683      868.512
04/19/2013  01:21:00      -94.909        7.508       -8.787       52.833       48.682       30.473     2791.307     2369.945      928.594        0.761        0.304       95.205       27.060        0.081      335.120        5.544      868.519
04/19/2013  01:22:00      -41.288        5.897       -7.277       42.925       36.650       28.120     1842.559     1343.256      790.739        0.288        0.199       41.707       24.606        0.348      335.199        5.674      868.524
04/19/2013  01:23:00      -14.697        2.351        0.899       37.890       25.560       26.801     1435.636      653.301      718.300        0.151        0.140       14.884       19.200        1.664      335.234        5.731      868.534
04/19/2013  01:24:00      -44.336       -1.969      -13.980       28.342       25.367       15.071      803.264      643.469      227.121        0.192        0.084       44.380       15.809        0.127      335.207        5.685      868.534
04/19/2013  01:25:00      -55.315        9.359      -10.934       32.424       30.673       19.073     1051.341      940.827      363.792        0.281        0.118       56.101        9.097        0.026      335.274        5.798      868.529
04/19/2013  01:26:00      -80.523       -1.720       -7.654       29.507       27.088       17.302      870.635      733.737      299.369        0.422        0.095       80.542       14.855        0.034      335.225        5.716      868.530
04/19/2013  01:27:00      -97.010      -12.833      -10.566       19.468       19.009       10.980      379.020      361.336      120.562        0.527        0.043       97.855        8.987        0.008      335.268        5.788      868.522
04/19/2013  01:28:00      -94.530      -22.027       -7.021       29.528       18.511       15.823      871.880      342.674      250.365        0.547        0.073       97.062       15.414        0.025      335.198        5.673      868.520
04/19/2013  01:29:00      -93.017      -16.202       -3.165       35.054       28.148       20.873     1228.768      792.331      435.669        0.569        0.123       94.417       17.864        0.036      335.134        5.569      868.523
04/19/2013  01:30:00      -69.347      -24.104        4.963       46.261       34.793       17.287     2140.122     1210.524      298.833        0.453        0.182       73.416       21.691        0.087      335.136        5.570      868.533
04/19/2013  01:31:00      -90.280      -34.610       -1.515       28.787       26.590       17.685      828.673      707.031      312.757        0.560        0.092       96.686       12.984        0.018      335.199        5.672      868.534
04/19/2013  01:32:00      -78.395      -59.696       -0.287       48.236       52.727       29.288     2326.672     2780.145      857.799        0.784        0.298       98.537       28.276        0.082      335.277        5.804      868.541
04/19/2013  01:33:00     -120.671      -59.773        2.887       53.272       35.321       25.510     2837.894     1247.606      650.772        1.144        0.237      134.664       30.146        0.050      335.301        5.842      868.545
04/19/2013  01:34:00     -113.421      -82.421        1.244       43.726       42.373       25.117     1911.977     1795.458      630.874        1.200        0.217      140.205       20.094        0.021      335.347        5.920      868.538
04/19/2013  01:35:00     -105.956      -50.204        3.740       48.456       39.554       27.433     2347.993     1564.514      752.582        0.921        0.233      117.248       27.053        0.053      335.358        5.936      868.526
04/19/2013  01:36:00     -114.980      -53.855       -5.952       26.863       22.485       14.844      721.602      505.582      220.349        0.880        0.072      126.967        7.787        0.004      335.369        5.956      868.522
04/19/2013  01:37:00      -69.104      -41.322       -2.079       33.941       31.265       16.502     1151.960      977.505      272.312        0.444        0.120       80.516       13.605        0.029      335.339        5.907      868.500
04/19/2013  01:38:00      -54.538      -47.323       -1.350       34.423       30.880       16.718     1184.917      953.561      279.480        0.382        0.121       72.206       15.473        0.046      335.309        5.856      868.496
04/19/2013  01:39:00      -63.142      -44.816       -0.286       34.840       18.873       19.231     1213.800      356.173      369.819        0.397        0.097       77.430       18.858        0.059      335.352        5.929      868.486
04/19/2013  01:40:00      -43.641      -31.767       -1.273       25.474       19.841       15.434      648.910      393.679      238.219        0.210        0.064       53.979       14.038        0.068      335.327        5.886      868.480
04/19/2013  01:41:00      -39.391      -23.038       -0.320       20.878       10.581       11.537      435.891      111.955      133.100        0.138        0.034       45.633        9.590        0.044      335.338        5.905      868.478
04/19/2013  01:42:00      -77.245      -21.763      -12.638       11.689       10.225        8.617      136.627      104.550       74.257        0.346        0.016       80.252        4.073        0.003      335.300        5.841      868.460
04/19/2013  01:43:00      -98.927      -34.862       -9.822       11.638       13.961       11.778      135.454      194.897      138.710        0.578        0.023      104.891        4.318        0.002      335.278        5.804      868.464
04/19/2013  01:44:00     -112.826      -46.153      -12.487       12.598       14.200       10.660      158.701      201.627      113.639        0.774        0.024      121.900        4.360        0.001      335.326        5.884      868.451
04/19/2013  01:45:00     -119.529      -53.413       -9.006       15.857       17.434       11.591      251.434      303.943      134.352        0.896        0.034      130.921        4.799        0.001      335.250        5.756      868.447
04/19/2013  01:46:00     -144.438      -52.417       -9.603       17.093       13.770       11.449      292.170      189.617      131.085        1.216        0.031      153.655        8.419        0.003      335.281        5.809      868.442
04/19/2013  01:47:00     -133.164      -47.773       -8.846       15.109       16.790       12.927      228.274      281.897      167.111        1.039        0.034      141.475        5.343        0.001      335.224        5.715      868.441
04/19/2013  01:48:00     -119.253      -50.642      -10.364       17.270       14.695       10.617      298.258      215.939      112.726        0.876        0.031      129.560        8.374        0.004      335.246        5.750      868.447
04/19/2013  01:49:00     -132.165      -36.105      -10.915       19.906       20.466       11.975      396.236      418.844      143.403        0.992        0.048      137.008        8.155        0.004      335.249        5.757      868.441
04/19/2013  01:50:00     -139.353      -31.675      -13.494       13.617       15.259       11.199      185.418      232.844      125.408        1.057        0.027      142.908        7.965        0.003      335.230        5.724      868.442
04/19/2013  01:51:00     -124.780      -44.995      -11.619       19.681       17.739       11.342      387.331      314.660      128.631        0.928        0.042      132.645        6.908        0.003      335.156        5.603      868.461
04/19/2013  01:52:00      -62.016      -50.940       -4.850       36.117       21.723       20.221     1304.421      471.880      408.895        0.432        0.109       80.255       17.848        0.049      335.125        5.551      868.460
04/19/2013  01:53:00      -75.590      -46.323       -7.754       33.445       25.899       18.271     1118.575      670.736      333.829        0.502        0.106       88.654        7.872        0.008      335.122        5.546      868.462
04/19/2013  01:54:00      -55.306      -49.098       -1.150       45.875       35.612       22.230     2104.502     1268.238      494.179        0.467        0.193       73.955       12.503        0.029      335.096        5.504      868.453
04/19/2013  01:55:00      -67.174      -58.459       -1.505       42.047       28.672       22.220     1767.930      822.101      493.737        0.551        0.154       89.050       17.275        0.038      335.141        5.578      868.429
04/19/2013  01:56:00      -86.606      -75.535       -1.679       45.225       23.601       20.924     2045.289      557.012      437.802        0.812        0.152      114.918       23.041        0.040      335.210        5.692      868.417
04/19/2013  01:57:00     -109.717      -59.984       -4.530       30.624       22.486       14.899      937.846      505.602      221.990        0.866        0.083      125.044       12.558        0.010      335.309        5.856      868.390
04/19/2013  01:58:00      -48.912      -52.541        8.094       40.348       25.235       21.306     1627.955      636.788      453.927        0.397        0.136       71.784       19.446        0.073      335.278        5.805      868.379
04/19/2013  01:59:00      -56.451      -49.732        8.739       46.219       32.007       21.141     2136.207     1024.448      446.961        0.467        0.180       75.233       24.825        0.109      335.262        5.777      868.383
04/19/2013  02:00:00      -62.322      -62.295       -0.910       42.061       19.762       18.313     1769.138      390.536      335.379        0.513        0.125       88.117       18.974        0.046      335.323        5.880      868.369
04/19/2013  02:01:00      -93.502      -69.845        1.305       35.145       24.256       19.563     1235.154      588.368      382.726        0.791        0.110      116.709       18.587        0.025      335.332        5.895      868.363
04/19/2013  02:02:00      -83.714      -37.153        3.423       45.380       31.941       21.159     2059.362     1020.211      447.692        0.596        0.176       91.588       25.201        0.076      335.217        5.704      868.367
04/19/2013  02:03:00     -123.704      -46.763        2.875       32.116       19.187       17.955     1031.445      368.129      322.393        0.961        0.086      132.247       18.063        0.019      335.247        5.754      868.344
04/19/2013  02:04:00     -100.811      -30.664       -9.408       20.470       26.762       14.722      419.001      716.184      216.726        0.627        0.068      105.372       15.185        0.021      335.287        5.820      868.335
04/19/2013  02:05:00     -102.340      -38.270       -4.034       18.550       19.387       13.032      344.104      375.842      169.846        0.642        0.044      109.262       11.328        0.011      335.330        5.890      868.337
04/19/2013  02:06:00     -125.007      -39.065       -3.681       23.480       22.177       12.829      551.290      491.835      164.581        0.919        0.060      130.969       12.411        0.009      335.330        5.892      868.321
04/19/2013  02:07:00     -124.714      -41.769       -7.406       20.722       20.511       14.778      429.381      420.705      218.394        0.921        0.053      131.523        9.060        0.005      335.271        5.792      868.304
04/19/2013  02:08:00     -120.389      -30.233       -7.713       23.712       26.588       14.098      562.253      706.917      198.763        0.847        0.073      124.127        7.034        0.003      335.237        5.737      868.295
04/19/2013  02:09:00     -129.731      -50.409       -7.724       19.914       17.493       11.929      396.585      306.004      142.309        1.014        0.042      139.180        4.177        0.001      335.282        5.811      868.282
04/19/2013  02:10:00     -116.272      -47.419       -6.857       30.345       27.920       15.685      920.822      779.505      246.024        0.888        0.097      125.570       19.120        0.023      335.190        5.658      868.269
04/19/2013  02:11:00     -130.192      -38.661      -13.280       11.570       19.016       10.939      133.861      361.620      119.661        0.962        0.031      135.811        5.606        0.002      335.215        5.699      868.249
04/19/2013  02:12:00     -122.373      -46.645       -8.773       20.400       16.012       14.732      416.177      256.391      217.046        0.906        0.044      130.962       12.995        0.010      335.166        5.618      868.243
04/19/2013  02:13:00      -86.425      -57.199        1.604       33.339       23.773       17.302     1111.473      565.173      299.376        0.636        0.099      103.639       18.142        0.031      335.271        5.793      868.249
04/19/2013  02:14:00     -113.416      -44.441       -1.885       34.591       21.851       17.470     1196.536      477.458      305.211        0.841        0.099      121.812       20.736        0.029      335.164        5.616      868.255
04/19/2013  02:15:00     -113.779      -44.007       -1.608       30.254       25.973       19.775      915.277      674.613      391.044        0.843        0.099      121.993       15.973        0.017      335.151        5.594      868.264
04/19/2013  02:16:00     -122.205      -52.906       -6.953       19.043       21.276       14.552      362.647      452.688      211.774        0.940        0.051      133.166       10.192        0.006      335.170        5.626      868.290
04/19/2013  02:17:00     -121.808      -34.020       -8.500       15.674       19.819       13.202      245.684      392.798      174.297        0.844        0.041      126.470        4.839        0.001      335.087        5.489      868.295
04/19/2013  02:18:00     -119.296      -43.104      -11.829       13.200       14.918       11.162      174.238      222.550      124.580        0.838        0.026      126.844        8.188        0.004      335.081        5.478      868.293
04/19/2013  02:19:00     -104.976      -21.504      -16.292       14.180       17.165       13.217      201.064      294.625      174.702        0.621        0.034      107.155        3.615        0.001      334.977        5.306      868.295
04/19/2013  02:20:00      -99.359      -33.574       -9.627       13.035       13.705       11.838      169.914      187.840      140.150        0.579        0.025      104.878        8.785        0.007      334.976        5.304      868.287
04/19/2013  02:21:00      -97.866      -28.674      -13.771       15.236       18.957       13.874      232.146      359.386      192.493        0.569        0.039      101.980        7.407        0.005      335.002        5.348      868.274
04/19/2013  02:22:00      -76.769      -27.261      -10.401       13.030       11.631       13.618      169.787      135.283      185.442        0.362        0.025       81.465        9.598        0.014      335.029        5.392      868.264
04/19/2013  02:23:00      -71.439      -39.051      -13.798        8.973       10.406        7.252       80.516      108.286       52.589        0.353        0.012       81.416        3.416        0.002      335.127        5.554      868.243
04/19/2013  02:24:00      -70.345      -34.331      -11.756        8.526        8.585        8.121       72.697       73.699       65.945        0.324        0.011       78.275        4.641        0.004      335.159        5.608      868.208
04/19/2013  02:25:00      -85.865      -22.663       -7.355       10.155       12.542        8.601      103.130      157.305       73.977        0.414        0.017       88.806        6.445        0.005      335.164        5.616      868.181
04/19/2013  02:26:00     -102.224       -8.987      -17.688       12.450        7.635       10.225      154.996       58.288      104.557        0.558        0.016      102.618        7.509        0.005      335.110        5.526      868.157
04/19/2013  02:27:00      -87.662      -24.533       -8.968       11.172       13.835        7.517      124.808      191.406       56.506        0.437        0.019       91.030        3.898        0.002      335.158        5.606      868.133
04/19/2013  02:28:00      -65.941      -18.846       -6.740       13.635        7.772        8.170      185.909       60.404       66.756        0.253        0.016       68.581        7.347        0.011      335.203        5.680      868.108
04/19/2013  02:29:00      -42.310      -13.928       -0.734       23.409        9.389       10.989      547.976       88.161      120.751        0.137        0.038       44.544       10.531        0.056      335.164        5.616      868.098
04/19/2013  02:30:00      -68.625      -17.141       -4.282       14.300       12.603        9.248      204.503      158.839       85.522        0.274        0.022       70.733        6.766        0.009      335.232        5.726      868.087
04/19/2013  02:31:00      -97.146      -37.445      -10.805        7.585       11.146        6.910       57.533      124.236       47.744        0.559        0.011      104.113        3.700        0.001      335.184        5.647      868.083
04/19/2013  02:32:00      -91.729      -42.146       -2.410       21.079       20.237       13.294      444.317      409.524      176.728        0.561        0.052      100.947        8.615        0.007      335.157        5.604      868.093
04/19/2013  02:33:00      -85.860      -39.490       -2.712       19.333       17.297       13.657      373.774      299.189      186.527        0.490        0.043       94.506       10.761        0.013      335.124        5.551      868.104
04/19/2013  02:34:00      -88.199      -26.977       -5.654       25.446       14.631       15.205      647.500      214.075      231.190        0.482        0.055       92.232       16.922        0.034      335.097        5.504      868.117
04/19/2013  02:35:00     -103.967      -16.157      -13.388       14.550       10.420       10.914      211.698      108.576      119.122        0.584        0.022      105.215        7.428        0.005      335.072        5.463      868.133
04/19/2013  02:36:00     -119.358      -15.272      -16.439       14.694       14.244       11.559      215.916      202.903      133.615        0.765        0.028      120.331        6.718        0.003      334.988        5.324      868.140
04/19/2013  02:37:00     -119.376      -19.075      -16.041       24.282       18.821       14.508      589.619      354.213      210.477        0.801        0.058      120.891       10.846        0.008      334.828        5.058      868.152
04/19/2013  02:38:00     -128.861      -23.303      -10.656       22.780       19.298       15.603      518.935      372.426      243.460        0.920        0.057      130.951       14.443        0.012      334.820        5.046      868.158
04/19/2013  02:39:00      -82.655      -24.211        0.094       25.793       25.032       16.592      665.281      626.599      275.308        0.449        0.078       86.128       14.764        0.029      334.843        5.084      868.148
04/19/2013  02:40:00      -72.265       -9.659        1.604       30.775       30.037       20.627      947.071      902.225      425.459        0.380        0.114       72.907       15.962        0.048      334.772        4.965      868.123
04/19/2013  02:41:00      -69.551       -8.231       -7.353       20.158       21.435       14.689      406.350      459.447      215.760        0.302        0.054       70.036       10.393        0.022      334.800        5.013      868.086
04/19/2013  02:42:00      -70.390       -9.732      -14.676       21.335       22.615       11.946      455.194      511.435      142.708        0.319        0.055       71.059        9.123        0.016      334.830        5.063      868.059
04/19/2013  02:43:00      -63.868      -10.763       -9.235       16.540       19.489       17.105      273.558      379.827      292.590        0.261        0.047       64.768        8.807        0.018      334.825        5.053      868.043
04/19/2013  02:44:00      -58.505      -24.083      -13.729        7.966       13.843        7.588       63.461      191.618       57.577        0.225        0.016       63.268        6.576        0.011      334.827        5.058      868.042
04/19/2013  02:45:00      -79.433      -24.874      -19.060       14.630       17.750       11.824      214.026      315.066      139.803        0.398        0.033       83.237        8.313        0.010      334.839        5.077      868.057
04/19/2013  02:46:00      -83.915      -30.625       -9.430       25.411       18.513       15.637      645.734      342.717      244.517        0.465        0.062       89.329       14.319        0.026      334.775        4.972      868.062
04/19/2013  02:47:00      -91.481      -32.916      -15.469       24.296       19.926       12.801      590.302      397.050      163.870        0.542        0.058       97.222        6.980        0.005      334.692        4.831      868.080
04/19/2013  02:48:00      -48.729      -39.808       -9.159       40.079       26.077       19.924     1606.365      680.025      396.968        0.336        0.134       62.923       17.512        0.077      334.830        5.062      868.089
04/19/2013  02:49:00      -44.890      -23.815        6.879       26.020       18.691       20.696      677.029      349.368      428.307        0.204        0.073       50.817       17.309        0.116      334.871        5.129      868.099
04/19/2013  02:50:00      -57.494      -27.079       -6.191       22.222       19.993       13.943      493.816      399.703      194.406        0.258        0.054       63.552       10.415        0.027      334.829        5.058      868.098
04/19/2013  02:51:00      -60.919      -36.293       -9.186       27.217       14.695       15.521      740.752      215.936      240.899        0.315        0.060       70.910       13.078        0.034      334.824        5.053      868.095
04/19/2013  02:52:00      -67.690      -36.707       -6.537       14.420       15.168       13.857      207.929      230.076      192.023        0.330        0.032       77.002        7.567        0.010      334.795        5.004      868.093
04/19/2013  02:53:00      -77.816      -34.836      -15.546       14.652       12.584       10.935      214.685      158.360      119.578        0.400        0.025       85.258        5.754        0.005      334.830        5.062      868.105
04/19/2013  02:54:00      -97.704      -30.825      -13.846       27.317       30.761       21.302      746.211      946.221      453.786        0.642        0.107      102.452       17.982        0.031      334.801        5.013      868.107
04/19/2013  02:55:00     -105.861      -34.765       -5.589       32.901       36.255       18.193     1082.444     1314.451      330.969        0.759        0.136      111.423       19.110        0.029      334.742        4.914      868.108
04/19/2013  02:56:00     -108.848       -0.781       -6.513       54.720       33.578       31.052     2994.245     1127.498      964.215        0.849        0.254      108.850       32.661        0.090      334.749        4.927      868.109
04/19/2013  02:57:00     -110.239        3.208        1.335       68.828       37.715       32.515     4737.348     1422.410     1057.210        0.969        0.361      110.286       39.551        0.129      334.696        4.840      868.115
04/19/2013  02:58:00      -76.066      -32.953        0.821       47.179       43.448       28.132     2225.822     1887.691      791.403        0.589        0.245       82.897       27.522        0.110      334.674        4.802      868.116
04/19/2013  02:59:00      -79.671      -25.719       -3.348       34.504       26.724       20.433     1190.520      714.157      417.493        0.467        0.116       83.720       18.896        0.051      334.725        4.887      868.123
04/19/2013  03:00:00      -17.238      -30.401       -0.680       19.071       20.097       18.417      363.698      403.880      339.173        0.116        0.055       34.948        9.156        0.069      334.827        5.057      868.120
04/19/2013  03:01:00        4.832      -24.440        2.135       18.513       16.019       20.471      342.727      256.598      419.054        0.082        0.051       24.913       12.133        0.237      334.826        5.055      868.097
04/19/2013  03:02:00      -17.819      -11.684       -0.133       17.960       11.067       12.268      322.569      122.480      150.496        0.052        0.030       21.308        7.715        0.131      334.754        4.936      868.079
04/19/2013  03:03:00      -30.642      -12.625      -12.976       34.649       18.364       14.511     1200.537      337.243      210.564        0.151        0.087       33.141       11.178        0.114      334.807        5.023      868.068
04/19/2013  03:04:00      -35.249      -23.587        5.566       33.455       14.163       12.680     1119.238      200.587      160.787        0.165        0.074       42.413       13.216        0.097      334.818        5.042      868.062
04/19/2013  03:05:00      -74.328      -25.594       -5.859       15.059       18.321       11.494      226.772      335.664      132.117        0.345        0.035       78.611       11.540        0.022      334.777        4.974      868.059
04/19/2013  03:06:00      -68.252      -14.180      -10.696       12.965        9.834        6.976      168.088       96.698       48.664        0.264        0.016       69.709        3.924        0.003      334.719        4.878      868.073
04/19/2013  03:07:00      -54.021      -28.516      -13.014       12.306       12.135        8.285      151.447      147.262       68.644        0.213        0.018       61.086        6.306        0.011      334.875        5.136      868.090
04/19/2013  03:08:00      -77.181      -37.808       -8.708       14.964       10.730       10.888      223.936      115.136      118.557        0.396        0.023       85.944        5.541        0.004      334.904        5.186      868.102
04/19/2013  03:09:00      -88.399      -24.458      -10.664       11.210       17.561        9.998      125.658      308.396       99.953        0.453        0.027       91.720        8.842        0.009      334.825        5.055      868.110
04/19/2013  03:10:00      -80.307      -25.132      -17.597        9.273       11.351       11.222       85.986      128.845      125.923        0.387        0.017       84.148        6.042        0.005      334.800        5.013      868.119
04/19/2013  03:11:00     -105.512      -47.010       -9.603       15.083       12.184       10.550      227.498      148.444      111.310        0.696        0.024      115.511        3.484        0.001      334.927        5.221      868.127
04/19/2013  03:12:00      -69.696      -34.548        2.369       38.224       14.462       15.607     1461.049      209.163      243.569        0.398        0.096       77.788       19.454        0.063      334.920        5.211      868.144
04/19/2013  03:13:00      -47.785      -24.005        1.843       26.288       21.849       17.080      691.047      477.399      291.721        0.216        0.073       53.476       15.566        0.085      334.917        5.205      868.133
04/19/2013  03:14:00      -34.133      -29.071        5.461       39.145       24.851       18.503     1532.306      617.574      342.353        0.227        0.125       44.835       17.381        0.150      334.864        5.117      868.120
04/19/2013  03:15:00      -56.214      -47.074        2.167       27.255       25.735       17.318      742.809      662.310      299.904        0.354        0.085       73.321       12.188        0.028      334.818        5.042      868.113
04/19/2013  03:16:00      -44.644      -23.807       11.523       31.603       26.095       17.359      998.725      680.924      301.342        0.234        0.099       50.595       15.084        0.089      334.824        5.051      868.104
04/19/2013  03:17:00      -54.897      -32.553       -0.965       24.788       15.778        9.636      614.461      248.958       92.855        0.252        0.048       63.823        9.203        0.021      334.812        5.032      868.106
04/19/2013  03:18:00      -69.064      -17.379      -12.889       14.822       17.416        8.819      219.694      303.316       77.768        0.292        0.030       71.217        7.525        0.011      334.819        5.045      868.102
04/19/2013  03:19:00      -86.190      -14.779       -5.216       17.515       14.268       11.474      306.769      203.584      131.646        0.416        0.032       87.448        5.799        0.004      334.815        5.036      868.102
04/19/2013  03:20:00     -111.423      -19.650      -12.698       20.293       12.822       10.251      411.824      164.393      105.074        0.682        0.034      113.142        7.455        0.004      334.766        4.956      868.099
04/19/2013  03:21:00     -133.597      -35.548       -7.907       23.804       18.884       14.592      566.641      356.597      212.914        1.016        0.057      138.246        9.126        0.004      334.727        4.890      868.105
04/19/2013  03:22:00     -120.718      -40.965       -5.431       21.821       16.028       15.532      476.166      256.882      241.229        0.863        0.049      127.480       11.535        0.008      334.652        4.766      868.117
04/19/2013  03:23:00      -96.860      -25.715       -9.200       14.911       15.436       13.609      222.338      238.272      185.196        0.539        0.032      100.215        9.318        0.009      334.714        4.870      868.128
04/19/2013  03:24:00      -98.729      -16.100      -15.869       14.237       14.167        9.110      202.704      200.713       82.989        0.537        0.024      100.034        6.702        0.004      334.602        4.683      868.136
04/19/2013  03:25:00     -104.447      -22.881      -14.185       14.089       12.411        9.504      198.513      154.037       90.322        0.604        0.022      106.924        5.068        0.002      334.606        4.689      868.146
04/19/2013  03:26:00      -90.231      -39.624      -13.332       15.172       15.547       11.854      230.191      241.706      140.520        0.525        0.031       98.548        8.296        0.007      334.512        4.533      868.160
04/19/2013  03:27:00      -49.962      -60.220       -3.505       25.520       18.852       20.167      651.287      355.381      406.691        0.377        0.071       78.248       15.326        0.038      334.564        4.621      868.163
04/19/2013  03:28:00      -50.178      -38.696       -1.421       46.156       29.244       21.494     2130.331      855.215      462.009        0.373        0.172       63.366       23.841        0.142      334.574        4.635      868.156
04/19/2013  03:29:00     -101.220      -39.602      -15.213       13.123       13.812       10.219      172.219      190.780      104.424        0.626        0.023      108.691        8.245        0.006      334.577        4.641      868.151
04/19/2013  03:30:00      -88.040      -24.630      -13.375       22.580       14.189       13.189      509.842      201.317      173.952        0.471        0.044       91.420       13.577        0.022      334.563        4.618      868.148
04/19/2013  03:31:00      -83.898      -20.308      -12.799       13.734       12.223        9.773      188.612      149.394       95.502        0.402        0.022       86.321        6.176        0.005      334.602        4.683      868.150
04/19/2013  03:32:00      -63.658      -20.700      -16.222       17.301       17.642       13.769      299.340      311.253      189.577        0.277        0.040       66.939       11.696        0.031      334.560        4.614      868.142
04/19/2013  03:33:00      -42.321      -17.907      -10.474       11.985       17.265       12.614      143.649      298.067      159.108        0.141        0.030       45.954        8.612        0.035      334.621        4.713      868.130
04/19/2013  03:34:00      -33.712       -1.255       -2.578        9.245        9.387        6.532       85.466       88.125       42.664        0.068        0.011       33.736        5.202        0.024      334.958        5.275      868.117
04/19/2013  03:35:00      -22.875       -9.716       -5.276       18.830        9.416        5.745      354.583       88.670       33.008        0.056        0.024       24.853        3.287        0.017      334.831        5.062      868.112
04/19/2013  03:36:00      -61.376      -13.398       -9.608        9.761       10.219        7.145       95.268      104.420       51.048        0.214        0.013       62.821        5.942        0.009      334.661        4.780      868.123
04/19/2013  03:37:00      -83.625      -11.071      -13.027       13.823       12.271        8.997      191.074      150.586       80.941        0.385        0.021       84.354        7.775        0.008      334.648        4.761      868.125
04/19/2013  03:38:00      -86.063      -15.852      -12.668       13.236        9.808        9.236      175.204       96.191       85.304        0.409        0.018       87.511        6.281        0.005      334.666        4.789      868.125
04/19/2013  03:39:00      -87.433       -8.722      -15.741       12.009       11.212        9.293      144.215      125.718       86.359        0.416        0.018       87.867        6.301        0.005      334.603        4.685      868.118
04/19/2013  03:40:00      -42.384       -6.373       -6.064       14.794       10.712        6.546      218.860      114.739       42.846        0.113        0.019       42.861        6.476        0.023      334.642        4.748      868.109
04/19/2013  03:41:00      -37.737        9.609       -8.886        5.029        7.303        4.685       25.294       53.333       21.953        0.085        0.005       38.941        2.542        0.004      335.019        5.375      868.097
04/19/2013  03:42:00      -32.023        1.077       -6.064        7.967        8.205        5.236       63.479       67.328       27.420        0.061        0.008       32.041        4.707        0.022      334.944        5.251      868.100
04/19/2013  03:43:00      -32.411      -15.136      -11.330       10.638        8.577        7.260      113.165       73.562       52.712        0.082        0.012       35.770        3.126        0.008      334.792        4.998      868.111
04/19/2013  03:44:00      -58.321      -14.294       -7.853        8.866        8.642        8.342       78.600       74.681       69.594        0.195        0.011       60.047        6.383        0.011      334.607        4.690      868.132
04/19/2013  03:45:00      -77.828      -13.446      -12.500       13.194        9.936        8.126      174.075       98.729       66.029        0.337        0.017       78.981        4.365        0.003      334.541        4.581      868.143
04/19/2013  03:46:00      -88.752       -1.856      -12.580       25.516       14.988       12.722      651.061      224.641      161.850        0.454        0.052       88.772       12.701        0.020      334.521        4.547      868.150
04/19/2013  03:47:00      -63.546      -11.360       -8.257       19.914       22.168       14.044      396.579      491.416      197.226        0.266        0.054       64.553       14.065        0.047      334.544        4.586      868.154
04/19/2013  03:48:00      -80.765       -7.389      -14.715       27.030       16.112       14.546      730.618      259.582      211.582        0.400        0.060       81.103       14.056        0.030      334.624        4.720      868.146
04/19/2013  03:49:00      -65.049      -30.116      -12.859       10.408       12.789       10.568      108.319      163.553      111.687        0.284        0.019       71.682        8.316        0.013      334.557        4.608      868.129
04/19/2013  03:50:00      -84.356      -19.241      -13.260       13.956       10.339        6.776      194.766      106.890       45.912        0.400        0.017       86.523        1.352        0.000      334.517        4.541      868.117
04/19/2013  03:51:00      -85.042      -23.612       -6.962       21.764       15.505       14.708      473.683      240.399      216.319        0.438        0.047       88.259       13.154        0.022      334.478        4.477      868.110
04/19/2013  03:52:00      -85.911      -31.269      -11.078       13.132       11.886       10.346      172.459      141.279      107.047        0.445        0.021       91.425        6.300        0.005      334.537        4.574      868.113
04/19/2013  03:53:00      -64.250      -27.940      -10.042       10.953       11.243        7.389      119.969      126.414       54.603        0.266        0.015       70.062        5.275        0.006      334.517        4.542      868.103
04/19/2013  03:54:00      -73.038      -26.815      -10.577        8.068        8.716        6.759       65.090       75.965       45.690        0.318        0.009       77.805        2.849        0.001      334.543        4.585      868.102
04/19/2013  03:55:00      -65.120      -19.433      -10.016       11.839       13.029        7.538      140.167      169.754       56.817        0.254        0.018       67.958        3.347        0.002      334.629        4.728      868.107
04/19/2013  03:56:00      -92.982      -22.352      -12.012       10.323       10.243        7.400      106.562      104.923       54.757        0.478        0.013       95.631        4.514        0.002      334.690        4.829      868.109
04/19/2013  03:57:00      -92.023      -33.879      -10.440        7.909        9.957        7.251       62.560       99.143       52.576        0.497        0.011       98.062        4.694        0.002      334.675        4.805      868.114
04/19/2013  03:58:00      -73.681      -24.063       -3.966       38.807       14.220       13.722     1505.983      202.221      188.286        0.396        0.095       77.510       16.612        0.046      334.581        4.648      868.112
04/19/2013  03:59:00      -45.402      -27.844        4.356       26.065       13.985       16.600      679.394      195.580      275.558        0.200        0.058       53.260       17.191        0.104      334.539        4.579      868.109
04/19/2013  04:00:00      -39.527      -30.250       12.320       28.575       13.725       14.688      816.557      188.384      215.741        0.192        0.061       49.774       16.601        0.111      334.503        4.518      868.104
04/19/2013  04:01:00      -48.811      -30.157       11.118       30.327       14.975       16.294      919.754      224.265      265.481        0.241        0.070       57.376       17.345        0.091      334.447        4.426      868.109
04/19/2013  04:02:00      -70.444      -36.589       -0.180       23.581       14.340       14.985      556.050      205.624      224.564        0.364        0.049       79.379       13.728        0.030      334.424        4.388      868.109
04/19/2013  04:03:00      -71.235      -33.990       -2.920       22.055       10.309       12.895      486.423      106.268      166.286        0.350        0.038       78.929       12.235        0.024      334.432        4.400      868.106
04/19/2013  04:04:00      -20.727      -26.752       10.915       30.445       16.536       12.516      926.926      273.433      156.659        0.131        0.068       33.842       14.058        0.173      334.507        4.525      868.097
04/19/2013  04:05:00      -65.852      -14.121       -5.434       16.410       12.254       11.168      269.285      150.154      124.729        0.255        0.027       67.349        9.752        0.021      334.519        4.545      868.090
04/19/2013  04:06:00      -96.182       -8.654      -13.079       12.572       13.621        9.851      158.066      185.540       97.036        0.497        0.022       96.571        4.935        0.003      334.487        4.492      868.091
04/19/2013  04:07:00     -104.533      -16.571      -12.662       16.543       13.893       12.540      273.657      193.028      157.262        0.599        0.031      105.838       10.241        0.009      334.464        4.454      868.082
04/19/2013  04:08:00     -108.006      -14.619      -14.558       14.868       10.687       10.166      221.058      114.222      103.342        0.626        0.022      108.991        9.406        0.007      334.452        4.436      868.088
04/19/2013  04:09:00      -87.052       -6.870      -12.355       17.623       13.723       13.587      310.554      188.319      184.618        0.423        0.034       87.323       10.181        0.014      334.370        4.299      868.082
04/19/2013  04:10:00      -95.475      -12.933      -14.375       16.782       12.056        8.938      281.643      145.340       79.880        0.500        0.025       96.347        7.516        0.006      334.391        4.333      868.074
04/19/2013  04:11:00      -82.850      -40.481       -6.994       32.479       18.991       15.683     1054.899      360.641      245.941        0.511        0.083       92.211       18.291        0.039      334.347        4.262      868.065
04/19/2013  04:12:00     -105.149      -65.369       -6.363       24.798       27.765       20.288      614.948      770.870      411.588        0.858        0.090      123.812        8.651        0.005      334.275        4.141      868.059
04/19/2013  04:13:00      -87.412      -15.156       -5.236       30.502       26.301       19.586      930.342      691.727      383.626        0.495        0.100       88.716       17.863        0.041      334.215        4.040      868.062
04/19/2013  04:14:00      -88.586      -11.920       -1.676       34.319       22.915       21.101     1177.803      525.084      445.240        0.507        0.107       89.384       21.865        0.060      334.215        4.040      868.069
04/19/2013  04:15:00      -79.665      -28.942      -10.907       29.375       27.884       14.439      862.881      777.518      208.492        0.458        0.092       84.759       14.881        0.031      334.196        4.009      868.064
04/19/2013  04:16:00      -33.016      -15.146       -3.069       28.979       29.397       20.247      839.803      864.191      409.929        0.172        0.106       36.324       17.287        0.226      334.252        4.102      868.062
04/19/2013  04:17:00      -18.945        0.986       -1.229       20.896       18.163       15.741      436.640      329.879      247.784        0.069        0.051       18.971       11.431        0.363      334.212        4.036      868.053
04/19/2013  04:18:00      -64.405      -25.103       -9.080       25.959       30.141       14.246      673.860      908.494      202.940        0.332        0.089       69.124        8.470        0.015      334.231        4.067      868.047
04/19/2013  04:19:00      -66.034      -26.644       -6.565       30.090       25.726       14.587      905.398      661.825      212.788        0.345        0.089       71.206        9.175        0.017      334.242        4.087      868.055
04/19/2013  04:20:00      -76.347      -41.096      -13.633       28.719       24.139       18.927      824.783      582.711      358.216        0.473        0.088       86.705       12.214        0.020      334.116        3.877      868.049
04/19/2013  04:21:00      -87.393      -31.786      -13.522       27.215       15.742       17.109      740.634      247.824      292.719        0.506        0.064       92.994        9.592        0.011      334.141        3.917      868.038
04/19/2013  04:22:00      -36.221      -30.943        1.132       54.022       18.847       18.386     2918.326      355.198      338.032        0.294        0.181       47.638       20.587        0.187      334.187        3.995      868.049
04/19/2013  04:23:00      -85.826      -43.899       -8.182       21.167       16.977       12.528      448.055      288.217      156.962        0.513        0.045       96.401        9.076        0.009      334.151        3.934      868.053
04/19/2013  04:24:00      -70.773      -30.912       -6.772       31.011       30.100       14.390      961.710      906.029      207.074        0.404        0.104       77.230       14.435        0.035      334.178        3.980      868.055
04/19/2013  04:25:00      -89.038      -22.892       -9.818       11.551       13.995       10.695      133.421      195.866      114.376        0.450        0.022       91.934        7.340        0.006      334.194        4.006      868.060
04/19/2013  04:26:00      -85.405      -33.026      -13.922       11.080       11.620        8.025      122.769      135.029       64.407        0.445        0.016       91.568        5.783        0.004      334.204        4.023      868.063
04/19/2013  04:27:00      -84.524      -26.035       -9.955       17.442       18.657        9.946      304.212      348.092       98.926        0.434        0.038       88.443        7.197        0.007      334.199        4.015      868.049
04/19/2013  04:28:00      -79.965      -31.875      -12.969       13.208       11.980       12.188      174.446      143.522      148.536        0.402        0.023       86.084        6.533        0.006      334.173        3.970      868.025
04/19/2013  04:29:00      -69.683      -23.199       -6.320       22.640       20.605       13.070      512.584      424.561      170.816        0.327        0.055       73.444       10.279        0.020      334.203        4.021      868.013
04/19/2013  04:30:00      -68.833      -16.551       -7.506       19.911       18.710       15.878      396.445      350.063      252.117        0.303        0.050       70.795       13.959        0.039      334.144        3.924      868.005
04/19/2013  04:31:00      -72.723      -20.042       -5.993       23.676       27.156       14.778      560.561      737.433      218.384        0.362        0.076       75.434       12.616        0.028      334.182        3.987      868.001
04/19/2013  04:32:00      -61.143      -11.287      -13.673       35.272       22.735       14.332     1244.110      516.902      205.401        0.301        0.098       62.176       16.294        0.069      334.166        3.959      868.009
04/19/2013  04:33:00      -65.851      -20.116      -10.398       20.610       19.944       14.816      424.778      397.751      219.509        0.295        0.052       68.855        6.786        0.010      334.088        3.830      868.013
04/19/2013  04:34:00      -79.934      -27.941      -12.654       16.299       16.662       11.996      265.641      277.614      143.901        0.401        0.034       84.677        3.544        0.002      334.137        3.911      868.013
04/19/2013  04:35:00      -70.831      -23.990      -14.570       23.818       16.159       16.527      567.307      261.098      273.128        0.345        0.055       74.784        9.078        0.015      334.202        4.020      868.006
04/19/2013  04:36:00      -91.382      -42.572      -10.851       23.540       21.582       17.756      554.116      465.773      315.280        0.581        0.067      100.812       11.376        0.013      334.030        3.734      868.013
04/19/2013  04:37:00      -77.418      -26.326       -8.284       36.341       24.143       15.155     1320.652      582.862      229.662        0.444        0.107       81.772        9.898        0.015      334.007        3.695      868.013
04/19/2013  04:38:00       -5.721      -42.423        3.887       41.225       21.485       18.453     1699.513      461.604      340.503        0.217        0.125       42.807       19.753        0.213      334.058        3.779      868.019
04/19/2013  04:39:00      -59.298      -34.311       -3.631       35.669       25.343       15.667     1272.291      642.278      245.466        0.343        0.108       68.509        5.358        0.006      334.037        3.746      868.032
04/19/2013  04:40:00     -111.707      -17.447       -9.315       28.270       27.864       18.233      799.205      776.380      332.431        0.739        0.095      113.061       12.850        0.013      333.999        3.683      868.062
04/19/2013  04:41:00      -83.697      -25.391       -1.607       26.290       25.794       16.711      691.161      665.306      279.247        0.464        0.082       87.464       14.038        0.026      333.986        3.661      868.073
04/19/2013  04:42:00      -76.571      -11.333       -2.898       22.515       18.984       17.145      506.914      360.390      293.937        0.358        0.058       77.405       13.754        0.032      334.039        3.748      868.073
04/19/2013  04:43:00      -65.469      -30.197       -0.894       27.129       24.221       17.907      736.010      586.647      320.664        0.342        0.082       72.098       18.793        0.068      334.101        3.853      868.078
04/19/2013  04:44:00      -90.979       -0.125      -12.073       21.279       17.410       14.452      452.793      303.106      208.854        0.469        0.048       90.979        9.982        0.012      334.033        3.739      868.066
04/19/2013  04:45:00      -82.975      -20.503      -12.677       22.102       11.850       10.173      488.509      140.411      103.494        0.410        0.037       85.470       10.330        0.015      334.098        3.846      868.049
04/19/2013  04:46:00     -123.464      -32.174      -17.610       19.356       13.902       14.677      374.661      193.258      215.409        0.869        0.039      127.587        5.218        0.002      334.105        3.857      868.043
04/19/2013  04:47:00      -97.214      -49.286      -20.250       43.216       18.968       16.223     1867.640      359.795      263.186        0.739        0.125      108.994       21.558        0.039      334.121        3.885      868.046
04/19/2013  04:48:00      -30.123      -15.081        7.434       29.476       14.923       17.406      868.806      222.708      302.970        0.129        0.070       33.687       12.623        0.140      334.134        3.907      868.039
04/19/2013  04:49:00      -53.548      -47.156      -12.331       26.082       21.894       16.644      680.256      479.369      277.034        0.334        0.072       71.352       14.317        0.040      334.200        4.016      868.023
04/19/2013  04:50:00      -96.701      -46.912       -4.321       14.637       28.985       13.279      214.256      840.129      176.339        0.640        0.062      107.479        4.977        0.002      334.193        4.004      868.009
04/19/2013  04:51:00      -97.671      -42.098      -13.406       12.633       20.623        8.184      159.599      425.328       66.980        0.607        0.033      106.358        3.394        0.001      334.072        3.804      867.986
04/19/2013  04:52:00      -44.891      -21.421       -0.489       25.067       13.228       15.125      628.335      174.989      228.756        0.175        0.052       49.740       10.623        0.046      334.063        3.788      867.940
04/19/2013  04:53:00      -47.553      -20.623       -7.718       19.408       13.985        9.416      376.653      195.579       88.666        0.170        0.033       51.832        9.136        0.031      334.130        3.900      867.910
04/19/2013  04:54:00      -87.649      -19.275      -17.907       11.006       10.208        7.703      121.135      104.206       59.341        0.433        0.014       89.743        4.698        0.003      334.129        3.897      867.908
04/19/2013  04:55:00      -78.795      -11.149      -10.494       17.430       16.306       13.818      303.792      265.888      190.939        0.360        0.038       79.580       10.697        0.018      334.092        3.836      867.891
04/19/2013  04:56:00      -62.092      -30.263       -6.771       17.122       21.638       15.353      293.159      468.214      235.720        0.291        0.050       69.075       13.170        0.036      334.077        3.811      867.878
04/19/2013  04:57:00      -74.439      -43.379       -4.679       19.198       20.081       14.910      368.564      403.265      222.296        0.422        0.050       86.157        6.901        0.006      334.073        3.805      867.875
04/19/2013  04:58:00      -73.135      -60.636      -12.229       21.577       19.761       15.702      465.588      390.491      246.566        0.514        0.055       95.002        9.975        0.011      334.073        3.805      867.885
04/19/2013  04:59:00      -83.680      -40.850      -14.411       23.394       22.715       14.137      547.283      515.963      199.853        0.507        0.063       93.118        5.570        0.004      334.010        3.700      867.886
04/19/2013  05:00:00     -105.684      -17.285      -11.756       20.477       17.396       13.848      419.310      302.613      191.779        0.626        0.046      107.088        9.682        0.008      334.016        3.710      867.898
04/19/2013  05:01:00      -99.907      -33.621      -13.564       31.810       28.398       14.973     1011.904      806.436      224.183        0.667        0.102      105.413        6.213        0.003      333.945        3.593      867.915
04/19/2013  05:02:00      -99.495      -21.884       -4.581       34.387       31.417       15.633     1182.446      987.044      244.398        0.641        0.121      101.873        7.957        0.006      333.867        3.464      867.926
04/19/2013  05:03:00      -41.229      -25.545        0.017       38.403       18.157       15.035     1474.799      329.664      226.049        0.219        0.102       48.501       19.931        0.169      333.854        3.442      867.924
04/19/2013  05:04:00      -35.327      -22.637        3.515       46.331       24.955       18.789     2146.591      622.771      353.022        0.245        0.156       41.957       27.192        0.420      333.818        3.384      867.915
04/19/2013  05:05:00      -40.064      -28.203        3.343       35.033       24.127       17.950     1227.294      582.132      322.201        0.227        0.107       48.995       16.969        0.120      333.843        3.424      867.910
04/19/2013  05:06:00      -76.369      -33.608       -7.297       19.755       18.291       10.349      390.273      334.563      107.106        0.392        0.042       83.437        9.691        0.013      333.898        3.518      867.901
04/19/2013  05:07:00      -93.144      -40.324      -12.527       12.667       15.626       10.986      160.461      244.171      120.694        0.549        0.026      101.498        8.855        0.008      333.955        3.610      867.889
04/19/2013  05:08:00      -82.620      -50.109       -4.715       27.675       18.891       15.038      765.897      356.875      226.145        0.535        0.067       96.628       12.473        0.017      333.993        3.672      867.873
04/19/2013  05:09:00     -106.928      -47.969       -8.026       20.546       24.877       12.767      422.135      618.841      163.000        0.750        0.060      117.195        9.644        0.007      334.000        3.684      867.865
04/19/2013  05:10:00      -94.462      -32.745        0.260       32.263       21.127       15.255     1040.897      446.369      232.718        0.586        0.086       99.976       16.918        0.029      334.043        3.756      867.836
04/19/2013  05:11:00      -62.529      -29.694        0.667       23.661       15.919       14.033      559.852      253.415      196.920        0.290        0.051       69.221       13.576        0.038      334.124        3.889      867.802
04/19/2013  05:12:00      -84.276      -28.209       -3.599       11.779       16.864        9.183      138.751      284.401       84.334        0.421        0.025       88.872        5.076        0.003      334.189        3.997      867.772
04/19/2013  05:13:00      -78.120      -16.402       -8.123       20.125       15.894       11.517      405.018      252.607      132.638        0.361        0.040       79.823        7.147        0.008      334.167        3.961      867.751
04/19/2013  05:14:00      -92.718        0.646      -10.965       20.391       13.125       10.812      415.810      172.266      116.901        0.471        0.035       92.720        9.319        0.010      334.105        3.857      867.730
04/19/2013  05:15:00     -112.802       -0.188      -14.734       18.768       11.330       11.864      352.239      128.363      140.750        0.678        0.031      112.802       11.718        0.011      334.000        3.684      867.705
04/19/2013  05:16:00     -108.558       -8.483      -12.516       29.336       18.626       16.648      860.575      346.946      277.171        0.675        0.074      108.889       14.526        0.018      333.991        3.669      867.692
04/19/2013  05:17:00     -119.917       -5.485      -10.802       27.801       18.043       16.636      772.871      325.543      276.754        0.795        0.069      120.043       15.542        0.017      333.907        3.530      867.699
04/19/2013  05:18:00      -89.834      -40.397       -9.086       25.031       30.937       16.181      626.550      957.103      261.819        0.581        0.092       98.499       11.912        0.015      333.887        3.498      867.711
04/19/2013  05:19:00     -103.737      -37.532      -10.777       28.921       25.139       17.700      836.420      631.952      313.295        0.703        0.089      110.318       17.617        0.026      333.880        3.484      867.715
04/19/2013  05:20:00      -71.882      -19.453      -12.039       33.209       18.389       12.752     1102.854      338.137      162.607        0.365        0.080       74.467       10.241        0.019      333.839        3.418      867.725
04/19/2013  05:21:00      -67.438       -4.361       -9.469       13.058       16.386        9.468      170.503      268.507       89.637        0.259        0.026       67.579        7.610        0.013      333.868        3.465      867.725
04/19/2013  05:22:00      -46.291      -15.727       -4.247       25.643       18.608       14.087      657.559      346.250      198.432        0.181        0.060       48.890        8.250        0.028      333.886        3.496      867.719
04/19/2013  05:23:00      -21.607      -28.675       -2.175       38.217       18.581       13.091     1460.571      345.246      171.370        0.164        0.099       35.904       15.466        0.186      333.849        3.433      867.720
04/19/2013  05:24:00      -97.063      -53.237      -19.598       22.465       21.836       13.873      504.685      476.795      192.460        0.691        0.059      110.704       11.472        0.011      333.705        3.196      867.718
04/19/2013  05:25:00      -72.758      -41.613       -5.051       30.568       25.416       21.593      934.386      645.976      466.254        0.455        0.102       83.817       18.840        0.051      333.668        3.133      867.712
04/19/2013  05:26:00      -85.850      -32.214      -16.062       18.466       11.259        9.972      341.003      126.764       99.435        0.462        0.028       91.695        8.121        0.008      333.656        3.113      867.713
04/19/2013  05:27:00     -114.420      -34.900      -13.421       14.337       13.307       10.666      205.549      177.066      113.756        0.749        0.025      119.624        6.431        0.003      333.688        3.166      867.730
04/19/2013  05:28:00      -98.225      -31.262      -11.905       28.638       21.975       19.115      820.128      482.922      365.377        0.622        0.083      103.080       19.277        0.035      333.675        3.145      867.746
04/19/2013  05:29:00      -84.925      -31.334      -12.806       11.437       12.828        8.466      130.806      164.551       71.675        0.436        0.018       90.521        4.421        0.002      333.759        3.283      867.753
04/19/2013  05:30:00      -83.008      -38.645      -11.185       17.040       14.240       12.657      290.363      202.777      160.193        0.458        0.033       91.563        8.807        0.009      333.707        3.198      867.753
04/19/2013  05:31:00      -85.268      -32.550      -13.967       10.614       12.541        8.959      112.658      157.279       80.259        0.444        0.018       91.270        4.928        0.003      333.789        3.335      867.751
04/19/2013  05:32:00      -87.397      -18.662      -11.514       17.953       17.942       12.128      322.327      321.911      147.080        0.446        0.040       89.367        9.379        0.011      333.900        3.518      867.752
04/19/2013  05:33:00      -92.569      -34.421      -13.220       15.178       12.358        8.745      230.357      152.710       76.482        0.519        0.023       98.761        6.678        0.005      333.913        3.539      867.770
04/19/2013  05:34:00     -114.291      -24.550      -17.792       12.236       14.470        9.630      149.716      209.389       92.730        0.722        0.023      116.898        6.322        0.003      333.882        3.488      867.786
04/19/2013  05:35:00     -104.753      -14.803      -14.145       13.491       12.353       10.228      182.000      152.585      104.617        0.592        0.022      105.793        4.693        0.002      333.788        3.333      867.796
04/19/2013  05:36:00      -91.572      -30.200      -16.762       14.893       14.078       10.258      221.812      198.181      105.227        0.505        0.026       96.424        7.209        0.006      333.765        3.295      867.799
04/19/2013  05:37:00      -65.766      -26.037      -10.015       18.984       19.969       14.070      360.390      398.772      197.952        0.303        0.048       70.733        9.768        0.019      333.857        3.447      867.805
04/19/2013  05:38:00      -67.251      -24.746      -15.931       19.431       24.418       18.444      377.569      596.216      340.175        0.335        0.066       71.660       14.411        0.040      333.836        3.412      867.803
04/19/2013  05:39:00      -65.538      -34.854       -7.550       20.925       11.631       14.508      437.839      135.281      210.481        0.318        0.039       74.229        8.860        0.014      333.807        3.365      867.804
04/19/2013  05:40:00      -77.431      -25.910       -6.130       22.113       20.690       15.366      488.975      428.088      236.114        0.393        0.058       81.651       14.770        0.033      333.802        3.354      867.802
04/19/2013  05:41:00      -81.419      -19.704      -11.066       15.114       12.504       12.356      228.427      156.342      152.677        0.384        0.027       83.769        7.370        0.008      333.737        3.248      867.790
04/19/2013  05:42:00      -67.819      -37.245      -14.744       23.193       16.837       12.002      537.932      283.487      144.044        0.358        0.048       77.373        4.833        0.004      333.748        3.268      867.784
04/19/2013  05:43:00      -57.653      -33.477      -11.326       33.756       13.775       15.446     1139.437      189.762      238.566        0.307        0.078       66.668       15.996        0.058      333.788        3.333      867.787
04/19/2013  05:44:00     -102.092      -34.688      -11.677       31.658       17.700       13.902     1002.222      313.307      193.270        0.664        0.075      107.824       14.739        0.019      333.727        3.231      867.792
04/19/2013  05:45:00      -55.801      -41.345      -12.168       30.024       14.179       16.879      901.446      201.047      284.915        0.318        0.069       69.449       17.976        0.067      333.785        3.327      867.794
04/19/2013  05:46:00      -55.289      -34.776       -6.402       20.501       12.296       14.866      420.294      151.203      221.001        0.255        0.040       65.316       11.124        0.029      333.840        3.418      867.792
04/19/2013  05:47:00      -90.798      -31.164      -14.384       11.236        7.540        8.087      126.239       56.845       65.399        0.484        0.012       95.997        6.926        0.005      333.774        3.310      867.801
04/19/2013  05:48:00      -95.191      -30.727      -12.956        8.968       10.843       11.616       80.429      117.577      134.925        0.525        0.017      100.028        5.920        0.004      333.769        3.301      867.810
04/19/2013  05:49:00      -82.727      -34.621       -8.181       15.568       12.317        9.805      242.366      151.712       96.133        0.430        0.025       89.679        8.908        0.010      333.748        3.265      867.824
04/19/2013  05:50:00     -108.058      -38.185      -11.351       14.780       10.857        8.799      218.451      117.868       77.428        0.684        0.021      114.607        6.341        0.003      333.795        3.344      867.842
04/19/2013  05:51:00     -141.772      -31.520      -14.837       14.540       10.508       10.808      211.399      110.421      116.823        1.088        0.022      145.234        3.328        0.001      333.817        3.380      867.861
04/19/2013  05:52:00     -123.524      -17.043       -5.481       22.795       21.054       21.152      519.602      443.274      447.418        0.849        0.071      124.695       15.512        0.015      333.735        3.243      867.865
04/19/2013  05:53:00     -103.876      -12.488        0.590       31.076       17.912       18.961      965.733      320.839      359.504        0.630        0.082      104.624       17.712        0.029      333.699        3.185      867.877
04/19/2013  05:54:00     -122.349      -11.206       -9.391       35.674       20.026       17.930     1272.644      401.039      321.480        0.859        0.100      122.861       18.004        0.021      333.687        3.164      867.868
04/19/2013  05:55:00      -86.316      -13.581       -5.366       29.611       18.536       13.391      876.833      343.572      179.310        0.453        0.070       87.378       16.336        0.035      333.654        3.110      867.847
04/19/2013  05:56:00      -84.071      -10.561      -10.431       27.410       16.212       14.396      751.309      262.818      207.233        0.425        0.061       84.731       14.192        0.028      333.690        3.170      867.818
04/19/2013  05:57:00      -84.349       -8.949       -7.999       20.696       22.623       16.463      428.342      511.791      271.019        0.423        0.061       84.823        8.546        0.010      333.700        3.188      867.797
04/19/2013  05:58:00     -103.392      -17.060      -10.990       20.516       26.486       14.133      420.893      701.533      199.728        0.621        0.066      104.790       11.290        0.012      333.667        3.132      867.791
04/19/2013  05:59:00      -97.313      -36.066       -7.894       27.040       32.479       15.774      731.187     1054.913      248.834        0.643        0.102      103.781       14.211        0.019      333.632        3.073      867.798
04/19/2013  06:00:00      -95.112      -36.209      -10.548       26.231       31.243       16.841      688.074      976.115      283.620        0.621        0.097      101.771       15.787        0.024      333.576        2.981      867.804
04/19/2013  06:01:00     -107.135      -34.396      -15.794       31.099       28.908       18.080      967.154      835.660      326.887        0.752        0.106      112.521        8.783        0.006      333.611        3.041      867.812
04/19/2013  06:02:00      -73.758      -40.932       -3.244       46.074       20.493       20.767     2122.841      419.975      431.277        0.505        0.149       84.354       23.958        0.081      333.679        3.153      867.810
04/19/2013  06:03:00      -78.263      -50.370        0.354       31.707       19.161       19.778     1005.311      367.163      391.154        0.521        0.088       93.071       20.077        0.047      333.655        3.112      867.790
04/19/2013  06:04:00      -79.976      -47.355       -7.533       26.650       17.601       15.734      710.247      309.778      247.567        0.498        0.063       92.945       16.737        0.032      333.644        3.093      867.759
04/19/2013  06:05:00      -73.697      -19.252      -15.491       14.176       10.541        9.565      200.960      111.106       91.498        0.322        0.020       76.170        9.011        0.014      333.685        3.163      867.716
04/19/2013  06:06:00      -71.269      -10.174       -6.214       17.988       13.660       10.596      323.581      186.601      112.266        0.292        0.031       71.991        5.828        0.007      333.767        3.298      867.684
04/19/2013  06:07:00      -68.722      -32.140       -6.611       28.868       16.747       13.150      833.340      280.451      172.917        0.354        0.064       75.867        9.787        0.017      333.774        3.309      867.669
04/19/2013  06:08:00      -80.646      -28.992      -13.328       13.117       14.623       10.932      172.047      213.837      119.503        0.401        0.025       85.699        6.716        0.006      333.772        3.308      867.660
04/19/2013  06:09:00     -107.037      -14.228      -15.824       19.096       10.430       10.546      364.672      108.786      111.213        0.625        0.029      107.979        7.905        0.005      333.737        3.248      867.667
04/19/2013  06:10:00     -103.602      -21.394      -10.768       33.680       20.446       17.010     1134.355      418.020      289.345        0.657        0.092      105.788       17.066        0.026      333.665        3.128      867.699
04/19/2013  06:11:00      -58.398       10.174       -5.122       32.661       30.205       23.086     1066.770      912.366      532.952        0.303        0.126       59.278       19.224        0.105      333.597        3.017      867.735
04/19/2013  06:12:00      -55.949       20.763      -20.095       24.567       28.943       16.269      603.561      837.707      264.693        0.284        0.085       59.677       12.593        0.045      333.635        3.078      867.763
04/19/2013  06:13:00      -62.973      -17.472      -15.547       25.181       26.317       15.953      634.075      692.562      254.492        0.305        0.079       65.352       10.852        0.028      333.675        3.144      867.787
04/19/2013  06:14:00      -21.571       -6.309       -1.725       18.208       22.992       18.728      331.532      528.643      350.734        0.086        0.061       22.475       14.627        0.424      333.685        3.163      867.785
04/19/2013  06:15:00       -9.963       -2.971       -3.798       26.255        6.715       14.298      689.329       45.095      204.424        0.053        0.047       10.396       15.904        2.340      333.948        3.598      867.767
04/19/2013  06:16:00       10.546        4.597       -4.635       16.075       10.841       13.355      258.395      117.537      178.363        0.035        0.028       11.504       10.052        0.764      334.047        3.764      867.742
04/19/2013  06:17:00       21.113       15.220        1.144       12.233        9.660       12.231      149.647       93.319      149.597        0.054        0.020       26.027       10.055        0.149      334.267        4.129      867.721
04/19/2013  06:18:00       -5.277        2.926       -3.782       21.256       20.362        6.548      451.811      414.630       42.880        0.048        0.045        6.034        4.662        0.597      334.206        4.027      867.700
04/19/2013  06:19:00      -44.434      -26.438       -2.882       18.677       12.251        9.926      348.842      150.092       98.527        0.164        0.030       51.705        5.796        0.013      333.875        3.476      867.689
04/19/2013  06:20:00      -48.295      -18.007       -6.049        9.069        9.125        6.011       82.249       83.265       36.128        0.145        0.010       51.543        3.420        0.004      333.819        3.384      867.697
04/19/2013  06:21:00      -56.251      -11.198       -7.870        8.141        8.968        8.339       66.281       80.425       69.534        0.178        0.011       57.355        3.886        0.005      333.877        3.481      867.698
04/19/2013  06:22:00      -65.284      -10.759      -10.601       13.280       11.053        8.802      176.351      122.173       77.475        0.243        0.019       66.164        1.865        0.001      333.842        3.423      867.709
04/19/2013  06:23:00      -60.715      -10.705       -9.774       10.042       11.478        9.968      100.840      131.749       99.367        0.211        0.017       61.651        7.284        0.014      333.793        3.340      867.717
04/19/2013  06:24:00      -50.728       -7.004       -7.393        5.900        5.670        6.461       34.813       32.145       41.746        0.139        0.005       51.209        3.469        0.005      333.836        3.413      867.707
04/19/2013  06:25:00      -35.830      -11.104       -1.759        8.539       10.606        5.273       72.913      112.494       27.809        0.081        0.011       37.511        4.059        0.012      333.975        3.643      867.695
04/19/2013  06:26:00      -27.951      -13.452        2.567       11.242        9.170        8.884      126.377       84.088       78.922        0.063        0.014       31.019        6.471        0.044      334.006        3.695      867.696
04/19/2013  06:27:00      -23.682       -0.554        0.700        7.164        6.780        7.277       51.317       45.971       52.955        0.036        0.008       23.688        1.675        0.005      333.984        3.658      867.704
04/19/2013  06:28:00      -29.598        1.073       -1.759        7.376        5.623        6.589       54.410       31.616       43.418        0.050        0.006       29.618        2.335        0.006      333.959        3.616      867.712
04/19/2013  06:29:00      -46.243        7.603        0.128       12.027        8.869        6.178      144.639       78.666       38.173        0.123        0.013       46.864        3.271        0.005      334.015        3.709      867.725
04/19/2013  06:30:00      -51.410        7.787       -5.402        8.958        8.460        8.975       80.241       71.579       80.543        0.148        0.012       51.997        5.495        0.011      333.914        3.543      867.739
04/19/2013  06:31:00      -45.398       -9.160       -4.003       24.342       17.021       11.585      592.521      289.707      134.214        0.159        0.051       46.313       12.113        0.068      333.875        3.479      867.749
04/19/2013  06:32:00      -67.934      -14.004       -6.261       17.020       13.589        9.869      289.689      184.662       97.396        0.271        0.029       69.362        5.485        0.006      333.818        3.382      867.751
04/19/2013  06:33:00      -66.310      -12.375       -7.968       10.596        8.646        7.263      112.276       74.761       52.746        0.243        0.012       67.454        3.656        0.003      333.809        3.369      867.750
04/19/2013  06:34:00      -58.458       -3.328       -5.001       16.190        8.531        9.340      262.125       72.773       87.235        0.194        0.021       58.552        7.981        0.019      333.853        3.442      867.754
04/19/2013  06:35:00      -41.775       -3.667       -0.199       12.736        9.235        7.662      162.201       85.289       58.702        0.103        0.015       41.935        6.405        0.023      333.861        3.456      867.775
04/19/2013  06:36:00      -38.909       -3.066        1.516       22.968        8.058        9.878      527.516       64.938       97.583        0.111        0.035       39.029       12.446        0.102      333.865        3.462      867.799
04/19/2013  06:37:00      -68.936       -5.716       -7.336        9.011        7.621        8.765       81.190       58.083       76.831        0.253        0.011       69.172        5.391        0.006      333.876        3.479      867.808
04/19/2013  06:38:00      -54.673       -7.973       -7.715       11.260        8.748        6.204      126.783       76.521       38.486        0.168        0.012       55.252        4.204        0.006      333.904        3.526      867.819
04/19/2013  06:39:00      -21.453       -7.604        5.125       14.331        8.505        6.257      205.368       72.343       39.156        0.043        0.016       22.760        5.114        0.050      333.909        3.534      867.839
04/19/2013  06:40:00      -29.145       -1.685        2.872       12.789        8.093        7.910      163.550       65.495       62.565        0.058        0.015       29.194        4.739        0.026      333.955        3.611      867.855
04/19/2013  06:41:00      -45.679        9.681       -6.524        7.983        6.716        6.243       63.723       45.103       38.979        0.119        0.007       46.694        3.920        0.007      333.971        3.636      867.854
04/19/2013  06:42:00      -35.692        5.756       -7.436        7.657        6.522        4.788       58.629       42.531       22.926        0.074        0.006       36.154        2.283        0.004      334.003        3.690      867.869
04/19/2013  06:43:00      -27.626        2.345       -4.684        8.099        6.507        5.917       65.598       42.338       35.009        0.047        0.007       27.725        3.347        0.015      334.043        3.757      867.878
04/19/2013  06:44:00      -28.983        4.834       -4.952        5.901        4.772        3.743       34.824       22.776       14.010        0.048        0.004       29.383        2.958        0.010      334.068        3.798      867.876
04/19/2013  06:45:00       -4.683        4.216       -0.613        8.161        3.792        4.270       66.606       14.378       18.237        0.007        0.005        6.302        3.171        0.253      334.155        3.939      867.863
04/19/2013  06:46:00       17.970       19.769        1.695       17.544       10.671        4.387      307.788      113.875       19.243        0.058        0.022       26.716        5.039        0.036      334.158        3.947      867.856
04/19/2013  06:47:00       21.209       24.629        4.423       16.427        9.037        8.954      269.862       81.669       80.180        0.075        0.022       32.503        7.273        0.050      334.160        3.948      867.848
04/19/2013  06:48:00       30.340       24.932        8.624        9.782        7.564        6.780       95.686       57.208       45.971        0.091        0.010       39.270        2.057        0.003      334.159        3.949      867.839
04/19/2013  06:49:00       40.655       34.392       18.301       10.275        8.748        9.372      105.581       76.528       87.828        0.172        0.013       53.251        7.343        0.019      334.182        3.986      867.833
04/19/2013  06:50:00       23.401       25.409        7.393       14.795        9.052        8.770      218.895       81.931       76.911        0.081        0.019       34.543        5.717        0.027      334.171        3.968      867.835
04/19/2013  06:51:00       15.890       24.186        5.093       13.435       12.383        9.323      180.498      153.346       86.909        0.064        0.021       28.939        8.222        0.081      334.163        3.954      867.825
04/19/2013  06:52:00       23.197       35.061       -2.105       11.128       14.321       10.755      123.821      205.083      115.668        0.111        0.022       42.040        6.469        0.024      334.133        3.903      867.821
04/19/2013  06:53:00       23.459       38.124       -0.132       14.272       12.678       13.139      203.698      160.721      172.622        0.127        0.027       44.763        7.767        0.030      334.135        3.906      867.827
04/19/2013  06:54:00       39.921       45.818       -0.670       18.270       16.582       13.128      333.807      274.953      172.332        0.224        0.039       60.770       10.461        0.030      334.139        3.915      867.834
04/19/2013  06:55:00       38.855       44.760       -1.347       18.589       22.549       17.799      345.565      508.455      316.819        0.234        0.059       59.272       14.382        0.059      334.151        3.934      867.850
04/19/2013  06:56:00       42.048       25.173       -0.206       20.914       21.311       16.091      437.399      454.138      258.915        0.178        0.058       49.007        8.322        0.029      334.189        3.997      867.860
04/19/2013  06:57:00       27.638       23.449       11.575       25.823       16.611       10.009      666.836      275.933      100.176        0.125        0.052       36.245        9.424        0.068      334.226        4.058      867.874
04/19/2013  06:58:00       45.646       33.841        5.579       22.515       17.179       15.044      506.936      295.110      226.334        0.214        0.051       56.823       12.022        0.045      334.250        4.099      867.874
04/19/2013  06:59:00       61.968       39.993        6.941       23.025       20.387       15.413      530.168      415.626      237.575        0.334        0.059       73.752        4.293        0.003      334.265        4.125      867.868
04/19/2013  07:00:00       78.866       43.277        1.644       20.949       20.768       16.671      438.840      431.296      277.917        0.462        0.057       89.960        8.421        0.009      334.339        4.247      867.847
04/19/2013  07:01:00       70.425       39.203        4.947       21.214       26.044       19.556      450.013      678.281      382.426        0.402        0.076       80.601       13.825        0.029      334.368        4.296      867.844
04/19/2013  07:02:00       77.881       48.995        5.014       32.561       24.159       22.812     1060.209      583.635      520.366        0.533        0.108       92.010       17.791        0.037      334.357        4.276      867.849
04/19/2013  07:03:00       88.224       48.273       -4.512       18.275       23.062       19.765      333.985      531.845      390.637        0.570        0.063      100.567        9.767        0.009      334.396        4.341      867.851
04/19/2013  07:04:00       61.968       52.632       -3.780       25.717       24.560       13.903      661.344      603.203      193.285        0.404        0.073       81.303        8.492        0.011      334.433        4.403      867.841
04/19/2013  07:05:00       46.401       39.283        0.267       21.983       14.871       17.629      483.259      221.134      310.783        0.236        0.051       60.797       11.494        0.036      334.516        4.540      867.844
04/19/2013  07:06:00       26.285       25.449       12.823       24.318       23.758       18.468      591.372      564.433      341.062        0.150        0.075       36.587       13.932        0.145      334.638        4.743      867.848
04/19/2013  07:07:00       54.151       48.639        2.942       31.272       21.312       21.297      977.910      454.221      453.554        0.360        0.094       72.788       16.568        0.052      334.587        4.659      867.859
04/19/2013  07:08:00       83.282       58.279        5.622       14.971       12.622       13.382      224.124      159.317      179.088        0.546        0.028      101.648        6.929        0.005      334.478        4.478      867.877
04/19/2013  07:09:00       88.043       52.356        2.763       24.678       17.278       18.599      608.984      298.529      345.927        0.588        0.063      102.434        8.494        0.007      334.532        4.568      867.901
04/19/2013  07:10:00       70.726       55.776        8.711       24.172       11.234       18.776      584.296      126.198      352.536        0.463        0.053       90.073       14.840        0.027      334.562        4.616      867.909
04/19/2013  07:11:00       68.641       60.176       11.063       22.881       16.291       25.754      523.545      265.384      663.276        0.495        0.073       91.284       17.355        0.036      334.626        4.723      867.916
04/19/2013  07:12:00       53.552       51.487       13.881       25.384       24.194       19.329      644.372      585.340      373.619        0.366        0.080       74.288       16.144        0.047      334.740        4.911      867.922
04/19/2013  07:13:00       37.485       39.472        8.070       25.431       23.951       18.889      646.756      573.645      356.791        0.230        0.079       54.435       15.254        0.079      334.860        5.111      867.922
04/19/2013  07:14:00       72.750       46.154       24.789       29.007       31.658       22.162      841.406     1002.206      491.148        0.519        0.117       86.155        7.531        0.008      334.791        4.997      867.933
04/19/2013  07:15:00        8.982       32.097       40.156       21.693       28.178       25.168      470.605      794.021      633.427        0.231        0.095       33.330       23.517        0.498      335.000        5.343      867.927
04/19/2013  07:16:00       13.552       17.920       45.345       33.836       32.962       20.008     1144.860     1086.495      400.318        0.260        0.132       22.467       17.147        0.582      335.096        5.504      867.913
04/19/2013  07:17:00       54.931       63.921       61.612       26.503       22.180       18.320      702.418      491.969      335.615        0.621        0.077       84.281       10.490        0.015      334.808        5.024      867.897
04/19/2013  07:18:00       19.905       47.190       57.542       26.866       26.352       25.198      721.780      694.449      634.939        0.399        0.103       51.216       14.660        0.082      334.976        5.303      867.890
04/19/2013  07:19:00       17.958      -33.924       16.274       19.124       47.362       21.066      365.739     2243.166      443.786        0.239        0.153       38.385       24.574        0.410      335.136        5.570      867.902
04/19/2013  07:20:00       30.645       -6.964       24.009       27.969       28.168       22.198      782.289      793.415      492.772        0.182        0.103       31.427       18.163        0.334      335.280        5.809      867.900
04/19/2013  07:21:00       19.671       32.772       58.667       26.592       36.063       22.197      707.119     1300.514      492.706        0.370        0.125       38.222       19.679        0.265      335.295        5.835      867.886
04/19/2013  07:22:00       14.741       30.713       49.981       22.427       36.953       21.810      502.955     1365.532      475.688        0.300        0.117       34.067       17.105        0.252      335.379        5.973      867.892
04/19/2013  07:23:00       31.696       58.184       57.162       40.172       28.316       23.260     1613.801      801.788      541.006        0.531        0.148       66.257       18.852        0.081      335.333        5.896      867.907
04/19/2013  07:24:00       21.179       38.843       46.900       29.647       33.326       32.983      878.969     1110.610     1087.902        0.362        0.154       44.242       30.720        0.482      335.116        5.536      867.914
04/19/2013  07:25:00        1.773      -11.139       23.359       15.060       28.522       24.859      226.792      813.525      617.965        0.117        0.083       11.279       15.649        1.925      335.461        6.110      867.916
04/19/2013  07:26:00       35.588       61.390       12.801       39.176       30.384       35.493     1534.777      923.161     1259.743        0.446        0.186       70.959        9.684        0.019      335.346        5.917      867.914
04/19/2013  07:27:00       33.775       34.747       23.421       42.670       25.549       29.902     1820.747      652.735      894.121        0.313        0.168       48.457        8.786        0.033      335.385        5.983      867.924
04/19/2013  07:28:00       21.964       67.070        3.164       22.620       21.004       21.922      511.684      441.178      480.577        0.321        0.072       70.575        9.686        0.019      335.048        5.424      867.944
04/19/2013  07:29:00       13.208       22.362        6.579       17.121       18.455       14.618      293.141      340.580      213.692        0.078        0.042       25.972        8.568        0.109      335.098        5.506      867.953
04/19/2013  07:30:00       11.934       18.888       16.218       20.432       20.931       16.231      417.450      438.106      263.454        0.094        0.056       22.342       13.498        0.365      335.414        6.031      867.950
04/19/2013  07:31:00       -8.619       74.182        7.941       16.653       33.319       20.236      277.336     1110.183      409.499        0.372        0.090       74.681       18.583        0.062      335.304        5.849      867.945
04/19/2013  07:32:00       12.291       63.659       -4.694       27.408       31.133       25.474      751.217      969.290      648.911        0.330        0.118       64.834       24.601        0.144      335.309        5.856      867.947
04/19/2013  07:33:00       17.226       77.103      -13.385       15.363       20.801       13.850      236.007      432.679      191.831        0.364        0.043       79.004       11.426        0.021      335.078        5.473      867.951
04/19/2013  07:34:00       -1.716       17.090       -6.745       20.520       29.643       18.942      421.052      878.725      358.803        0.100        0.083       17.176       19.100        1.237      335.226        5.720      867.964
04/19/2013  07:35:00       -0.160       14.381       16.926       13.117       22.340       14.425      172.064      499.094      208.084        0.069        0.044       14.382        9.611        0.447      335.569        6.290      867.953
04/19/2013  07:36:00       39.955       26.097       21.778       33.689       26.923       21.368     1134.937      724.846      456.583        0.253        0.116       47.723       21.921        0.211      335.571        6.292      867.932
04/19/2013  07:37:00       -4.142       35.382       44.162       32.995       33.713       16.790     1088.667     1136.589      281.891        0.286        0.125       35.623        8.977        0.064      335.505        6.184      867.920
04/19/2013  07:38:00       70.929       58.865       10.788       43.886       26.505       22.921     1925.945      702.489      525.371        0.588        0.158       92.174       22.670        0.060      335.303        5.848      867.900
04/19/2013  07:39:00       86.229       62.888        3.300       20.379       18.050       19.455      415.303      325.786      378.507        0.626        0.056      106.726       13.157        0.015      335.100        5.511      867.875
04/19/2013  07:40:00       70.670       39.145       -1.044       22.625       26.621       22.414      511.896      708.667      502.384        0.412        0.086       80.787       10.373        0.016      335.157        5.605      867.862
04/19/2013  07:41:00       76.278       56.162        0.359       26.910       14.645       19.222      724.150      214.487      369.473        0.514        0.065       94.724       13.504        0.020      335.068        5.458      867.851
04/19/2013  07:42:00       45.178       32.045        0.945       18.519       10.936       13.983      342.954      119.602      195.513        0.186        0.033       55.389        7.288        0.017      335.108        5.524      867.862
04/19/2013  07:43:00       26.450       29.719       24.576       40.660       42.179       15.994     1653.275     1779.083      255.798        0.294        0.184       39.785       13.114        0.109      335.343        5.914      867.879
04/19/2013  07:44:00       30.708       38.650       13.839       40.495       25.849       21.667     1639.838      668.190      469.480        0.270        0.139       49.364       21.150        0.184      335.497        6.169      867.887
04/19/2013  07:45:00       -9.554       65.314       -8.679       25.414       20.269       18.716      645.856      410.850      350.285        0.292        0.070       66.010       10.805        0.027      335.432        6.060      867.887
04/19/2013  07:46:00      -14.174       67.915      -10.734       20.346       23.357       21.292      413.941      545.557      453.354        0.317        0.071       69.378       10.436        0.023      335.440        6.074      867.897
04/19/2013  07:47:00        4.562       48.942       -7.066       20.457       20.991       14.148      418.495      440.610      200.174        0.176        0.053       49.154       11.199        0.052      335.402        6.012      867.915
04/19/2013  07:48:00      -24.582       85.641      -12.554       19.543       19.856       12.034      381.925      394.242      144.821        0.451        0.046       89.099        5.981        0.005      335.243        5.747      867.926
04/19/2013  07:49:00       -4.597       43.486        4.627       13.676       22.493       16.868      187.038      505.916      284.529        0.146        0.049       43.729       15.544        0.126      335.467        6.120      867.945
04/19/2013  07:50:00      -12.077       61.399      -13.306       13.784       22.499       15.629      190.006      506.216      244.268        0.252        0.047       62.575       10.151        0.026      335.349        5.923      867.956
04/19/2013  07:51:00       14.734       36.424       -3.706       18.457       25.482       16.958      340.661      649.329      287.579        0.142        0.064       39.291       13.821        0.124      335.359        5.940      867.970
04/19/2013  07:52:00       48.190       34.275        1.249       13.143       13.183       20.352      172.737      173.802      414.188        0.213        0.038       59.136        8.390        0.020      335.258        5.770      867.975
04/19/2013  07:53:00       29.677       34.023       13.816       12.897       12.686       10.225      166.345      160.947      104.559        0.133        0.022       45.147        6.150        0.019      335.278        5.805      867.960
04/19/2013  07:54:00       -4.129       19.507        3.107       12.396       13.602       10.953      153.656      185.007      119.960        0.043        0.023       19.939        8.605        0.186      335.438        6.071      867.954
04/19/2013  07:55:00       10.808       33.302        3.064       19.192       16.123       12.830      368.322      259.954      164.618        0.101        0.040       35.012       11.788        0.113      335.442        6.079      867.942
04/19/2013  07:56:00       30.336       22.147       13.923       15.084       12.215       11.254      227.530      149.197      126.658        0.105        0.025       37.560        9.138        0.059      335.480        6.141      867.932
04/19/2013  07:57:00        5.731        8.305       15.256       15.960       11.899       11.642      254.735      141.575      135.529        0.043        0.027       10.091        9.879        0.958      335.810        6.691      867.915
04/19/2013  07:58:00       13.470       13.392        3.760       10.735        8.311        8.182      115.241       69.067       66.938        0.031        0.013       18.994        5.618        0.087      335.662        6.446      867.912
04/19/2013  07:59:00        8.144       24.717        5.473       21.813       16.910       16.521      475.786      285.948      272.932        0.087        0.052       26.024       14.817        0.324      335.801        6.677      867.893
04/19/2013  08:00:00       21.538       31.856       -0.113       23.973       23.664       16.796      574.694      559.961      282.097        0.145        0.071       38.454       16.436        0.183      335.708        6.521      867.885
04/19/2013  08:01:00       13.906       28.113        3.523       35.833       24.301       20.979     1283.973      590.523      440.115        0.165        0.116       31.364       11.814        0.142      335.765        6.618      867.894
04/19/2013  08:02:00       36.773       52.306      -10.891       27.062       22.634       18.278      732.361      512.287      334.098        0.289        0.079       63.939        9.644        0.023      335.672        6.462      867.900
04/19/2013  08:03:00       25.125       54.657       -1.031       22.464       27.299       20.007      504.631      745.257      400.274        0.263        0.083       60.155       17.062        0.080      335.662        6.444      867.898
04/19/2013  08:04:00       40.614       63.706       -2.397       26.735       25.797       18.656      714.756      665.511      348.040        0.372        0.086       75.551       10.600        0.020      335.603        6.347      867.873
04/19/2013  08:05:00       51.652       55.494        7.532       25.405       22.139       20.665      645.399      490.132      427.023        0.368        0.078       75.812        5.583        0.005      335.575        6.300      867.856
04/19/2013  08:06:00       61.997       44.497        3.482       21.577       28.236       19.463      465.550      797.251      378.793        0.374        0.082       76.312       13.502        0.031      335.495        6.166      867.859
04/19/2013  08:07:00       54.654       34.246       -6.156       35.819       24.541       16.735     1282.986      602.243      280.074        0.318        0.108       64.497        3.904        0.004      335.571        6.294      867.859
04/19/2013  08:08:00       15.697       34.192        5.723       21.125       19.102       18.528      446.277      364.882      343.289        0.130        0.058       37.623       16.236        0.186      335.674        6.467      867.866
04/19/2013  08:09:00       43.048       49.407        7.511       24.898       19.027       19.845      619.913      362.008      393.825        0.286        0.069       65.531       12.904        0.039      335.754        6.599      867.866
04/19/2013  08:10:00       16.364       63.869       -2.392       14.753       23.426       19.014      217.649      548.771      361.550        0.274        0.056       65.932       15.040        0.052      335.654        6.432      867.868
04/19/2013  08:11:00        9.545       53.124        1.584       22.710       28.933       18.721      515.766      837.137      350.483        0.231        0.085       53.975       14.534        0.073      335.735        6.567      867.857
04/19/2013  08:12:00        7.530       22.700        0.870       15.795       14.334       16.407      249.486      205.458      269.198        0.065        0.036       23.917       11.870        0.246      335.822        6.713      867.847
04/19/2013  08:13:00       23.714       35.588        1.939       14.997       18.498       21.079      224.906      342.172      444.306        0.142        0.051       42.766        8.803        0.042      335.804        6.683      867.827
04/19/2013  08:14:00       18.013       31.723        1.515       13.876       26.213       13.985      192.549      687.142      195.589        0.120        0.054       36.481       12.837        0.124      335.826        6.719      867.835
04/19/2013  08:15:00       21.211       45.444       -3.550       15.313       24.949       18.963      234.484      622.472      359.596        0.187        0.061       50.151       16.899        0.114      335.824        6.715      867.829
04/19/2013  08:16:00       -3.630       51.518       -9.104       11.131       18.285        9.578      123.890      334.351       91.730        0.165        0.027       51.645        5.551        0.012      335.774        6.633      867.835
04/19/2013  08:17:00       21.890       24.598       15.741       17.237       18.722       19.425      297.123      350.510      377.311        0.118        0.051       32.928        9.867        0.090      336.122        7.212      867.834
04/19/2013  08:18:00       44.489       33.664        0.294       14.855       15.420       14.160      220.664      237.781      200.509        0.189        0.033       55.790        6.451        0.013      335.860        6.775      867.830
04/19/2013  08:19:00       18.542       23.250        5.110       27.588       12.995       18.914      761.096      168.859      357.751        0.110        0.064       29.738       13.813        0.216      335.951        6.926      867.825
04/19/2013  08:20:00       25.537       18.623        9.975       15.180       14.338       16.328      230.419      205.587      266.592        0.090        0.035       31.606       10.884        0.119      335.992        6.995      867.839
04/19/2013  08:21:00       -6.357       13.719        7.775       23.804       18.330       13.837      566.641      335.980      191.473        0.069        0.055       15.121       17.308        1.310      336.256        7.435      867.853
04/19/2013  08:22:00      -58.849       19.843       -3.590       18.031       28.657       17.828      325.112      821.223      317.822        0.267        0.073       62.104       10.848        0.031      336.052        7.094      867.877
04/19/2013  08:23:00       -9.440       11.519        8.929       26.125       27.211       19.076      682.496      740.433      363.884        0.104        0.089       14.893       11.175        0.563      336.298        7.507      867.887
04/19/2013  08:24:00      -38.877       44.182       -3.424       24.285       24.568       22.105      589.761      603.596      488.627        0.258        0.084       58.851       13.828        0.055      336.288        7.490      867.893
04/19/2013  08:25:00      -16.777       75.616       -5.888       21.663       23.692       27.951      469.297      561.307      781.232        0.392        0.091       77.455       19.014        0.060      336.179        7.307      867.897
04/19/2013  08:26:00       -6.055       48.789       -1.603       11.786       45.133       15.165      138.911     2036.987      229.987        0.241        0.120       49.163       18.078        0.135      336.268        7.456      867.901
04/19/2013  08:27:00        1.621        7.299       10.609       10.301       22.255       15.893      106.106      495.303      252.596        0.051        0.043        7.477       15.594        4.350      336.506        7.854      867.908
04/19/2013  08:28:00       21.391       26.852        3.683       17.071       17.051       17.073      291.425      290.742      291.500        0.103        0.044       34.331       12.059        0.123      336.330        7.558      867.909
04/19/2013  08:29:00       45.952       34.100        8.841       26.183       22.436       23.592      685.566      503.387      556.596        0.255        0.087       57.222       16.483        0.083      336.376        7.636      867.901
04/19/2013  08:30:00       46.655       47.226       17.394       42.855       27.873       29.182     1836.534      776.885      851.579        0.409        0.173       66.386       17.059        0.066      336.337        7.570      867.912
04/19/2013  08:31:00       64.790       79.157       72.342       39.441       30.729       30.450     1555.592      944.263      927.193        0.956        0.171      102.292       18.472        0.033      336.230        7.392      867.911
04/19/2013  08:32:00       19.572       43.500       62.265       42.837       45.042       28.094     1835.018     2028.794      789.298        0.540        0.233       47.700       26.519        0.309      336.277        7.470      867.887
04/19/2013  08:33:00       23.383       48.820       49.546       37.959       35.015       31.980     1440.885     1226.028     1022.745        0.454        0.184       54.131       27.174        0.252      336.337        7.570      867.877
04/19/2013  08:34:00       36.720       33.961       44.225       64.113       40.675       22.985     4110.463     1654.489      528.304        0.537        0.315       50.017       20.636        0.170      336.459        7.775      867.861
04/19/2013  08:35:00      103.657       65.464       19.109       35.440       22.835       24.888     1255.978      521.455      619.409        0.890        0.120      122.598       16.486        0.018      336.106        7.184      867.845
04/19/2013  08:36:00       76.852       74.453        8.099       22.340       23.350       23.877      499.062      545.223      570.117        0.656        0.081      107.002       15.919        0.022      336.085        7.150      867.849
04/19/2013  08:37:00       46.870       74.302        1.599       23.804       26.736       27.273      566.641      714.791      743.793        0.487        0.101       87.850       17.057        0.038      336.241        7.410      867.852
04/19/2013  08:38:00       77.719       63.962       22.655       24.261       14.224       21.985      588.620      202.311      483.338        0.596        0.064      100.655        6.371        0.004      336.160        7.275      867.870
04/19/2013  08:39:00       71.517       47.859       25.749       29.531       30.777       27.698      872.075      947.223      767.172        0.533        0.129       86.053       20.641        0.058      336.295        7.500      867.866
04/19/2013  08:40:00       73.329       58.067       18.585       25.842       13.071       22.436      667.787      170.841      503.389        0.522        0.067       93.535       17.371        0.034      336.101        7.177      867.846
04/19/2013  08:41:00       15.020       24.013       28.451       20.132       32.380       14.094      405.308     1048.438      198.646        0.163        0.083       28.323       11.566        0.167      336.343        7.582      867.811
04/19/2013  08:42:00       15.457      -16.623       18.569       22.278       42.431       14.011      496.319     1800.413      196.294        0.168        0.125       22.699       13.002        0.328      336.505        7.853      867.788
04/19/2013  08:43:00       79.945       43.302       17.597       34.376       26.559       25.954     1181.694      705.366      673.618        0.557        0.128       90.919       11.781        0.017      336.357        7.604      867.772
04/19/2013  08:44:00       27.537       43.640       33.530       41.665       39.600       29.331     1735.938     1568.188      860.321        0.397        0.208       51.602       26.629        0.266      336.597        8.006      867.784
04/19/2013  08:45:00       40.167       55.459       56.029       51.334       47.182       36.192     2635.191     2226.129     1309.833        0.700        0.309       68.477       36.944        0.291      336.474        7.799      867.798
04/19/2013  08:46:00       11.178       36.381       50.681       29.980       36.531       31.375      898.772     1334.502      984.366        0.362        0.161       38.059       28.070        0.544      336.684        8.151      867.798
04/19/2013  08:47:00       42.700       31.542       52.850       37.044       31.830       24.103     1372.223     1013.135      580.941        0.429        0.148       53.087       21.000        0.156      336.553        7.932      867.781
04/19/2013  08:48:00       39.369       57.401       60.109       34.256       24.934       21.844     1173.451      621.719      477.172        0.536        0.114       69.605       18.848        0.073      336.636        8.073      867.765
04/19/2013  08:49:00       13.653       17.539       58.617       33.384       38.995       24.573     1114.518     1520.644      603.820        0.358        0.162       22.227       26.743        1.448      336.804        8.352      867.765
04/19/2013  08:50:00       24.490       14.243       43.570       41.735       70.628       39.266     1741.801     4988.352     1541.841        0.548        0.414       28.331       43.782        2.388      336.542        7.914      867.747
04/19/2013  08:51:00       31.570       53.668       40.691       34.079       30.321       34.602     1161.364      919.385     1197.315        0.440        0.164       62.265       23.039        0.137      336.584        7.985      867.741
04/19/2013  08:52:00       89.232       62.364       20.028       33.995       15.742       30.151     1155.638      247.800      909.089        0.728        0.116      108.865       22.360        0.042      336.418        7.706      867.733
04/19/2013  08:53:00       63.254       65.892       38.111       34.319       26.425       31.659     1177.779      698.304     1002.271        0.634        0.144       91.339       22.711        0.062      336.554        7.933      867.730
04/19/2013  08:54:00       92.898       64.274       30.312       40.498       19.522       33.737     1640.080      381.125     1138.195        0.842        0.158      112.965       21.777        0.037      336.471        7.795      867.748
04/19/2013  08:55:00       89.232       81.046       45.456       66.128       30.784       36.458     4372.945      947.633     1329.159        1.162        0.332      120.544       27.482        0.052      336.592        7.998      867.733
04/19/2013  08:56:00      127.133       78.711       32.441       41.716       30.525       41.287     1740.195      931.791     1704.594        1.389        0.219      149.527       28.203        0.036      336.645        8.086      867.739
04/19/2013  08:57:00       73.527       56.848       -0.542       30.233       40.554       36.972      914.009     1644.641     1366.900        0.628        0.196       92.940       19.211        0.043      336.705        8.186      867.729
04/19/2013  08:58:00       18.543       26.218       39.320       25.470       34.878       18.066      648.714     1216.459      326.388        0.238        0.110       32.112       18.533        0.333      337.070        8.796      867.723
04/19/2013  08:59:00       28.038       26.972       60.180       44.452       33.375       27.494     1975.972     1113.897      755.925        0.449        0.192       38.905       17.832        0.210      336.948        8.593      867.717
04/19/2013  09:00:00       76.806       66.888       39.711       50.573       25.166       36.447     2557.609      633.327     1328.411        0.823        0.226      101.849       30.266        0.088      336.844        8.419      867.719
04/19/2013  09:01:00       66.261       54.389       -2.543       43.374       38.415       29.247     1881.262     1475.721      855.410        0.578        0.211       85.725       16.131        0.035      336.895        8.503      867.743
04/19/2013  09:02:00       56.253       81.990       -6.510       46.632       38.746       24.904     2174.589     1501.247      620.222        0.711        0.215       99.432       20.240        0.041      336.883        8.482      867.750
04/19/2013  09:03:00       71.526       60.726        2.635       41.436       40.041       30.713     1716.939     1603.244      943.278        0.654        0.213       93.827       20.385        0.047      337.010        8.696      867.748
04/19/2013  09:04:00      109.469       66.712       12.739       56.982       47.506       39.762     3246.958     2256.824     1581.052        1.184        0.354      128.195       29.662        0.054      336.959        8.611      867.735
04/19/2013  09:05:00      122.439       71.773       21.489       30.582       31.443       28.238      935.255      988.694      797.393        1.166        0.136      141.925       18.411        0.017      336.724        8.220      867.734
04/19/2013  09:06:00       98.363       54.937       33.782       46.721       27.508       31.262     2182.887      756.677      977.325        0.887        0.196      112.664       26.856        0.057      336.836        8.406      867.717
04/19/2013  09:07:00       94.593       85.346       60.498       49.499       43.036       47.423     2450.200     1852.099     2248.964        1.322        0.328      127.404       40.971        0.103      336.847        8.424      867.703
04/19/2013  09:08:00       56.750       17.530       29.675       30.781       23.663       22.220      947.487      559.956      493.741        0.320        0.100       59.395       17.931        0.091      337.002        8.681      867.689
04/19/2013  09:09:00       84.699       81.589       45.613       64.054       38.088       31.527     4102.953     1450.720      993.942        1.123        0.327      117.603       18.703        0.025      336.997        8.674      867.661
04/19/2013  09:10:00       93.511       48.380       21.484       54.436       42.672       33.362     2963.233     1820.942     1113.016        0.872        0.295      105.285       24.412        0.054      337.234        9.071      867.649
04/19/2013  09:11:00       59.808       19.838       44.312       47.511       50.481       35.076     2257.288     2548.286     1230.336        0.598        0.302       63.012       24.361        0.149      337.183        8.985      867.645
04/19/2013  09:12:00       91.574       67.569       24.646       38.762       34.099       40.089     1502.473     1162.767     1607.160        0.891        0.214      113.804       19.943        0.031      337.052        8.766      867.647
04/19/2013  09:13:00      137.301       71.303       40.079       43.468       42.186       34.057     1889.460     1779.678     1159.850        1.518        0.241      154.711       20.596        0.018      336.901        8.513      867.656
04/19/2013  09:14:00       48.462       82.769       39.327       55.936       40.411       43.996     3128.824     1633.015     1935.649        0.872        0.335       95.913       43.502        0.206      337.144        8.921      867.667
04/19/2013  09:15:00       82.726       73.033       37.633       39.033       23.957       37.342     1523.599      573.922     1394.402        0.854        0.175      110.351       21.594        0.038      336.935        8.570      867.678
04/19/2013  09:16:00      118.410       79.494       -1.669       35.776       22.202       26.854     1279.904      492.937      721.111        1.142        0.125      142.619       10.367        0.005      336.897        8.507      867.687
04/19/2013  09:17:00       52.957       69.214        8.787       28.906       34.526       25.158      835.559     1192.069      632.903        0.517        0.133       87.149       21.688        0.062      336.967        8.623      867.682
04/19/2013  09:18:00       25.596       34.270       -3.216       26.963       24.091       20.442      727.022      580.381      417.864        0.178        0.086       42.774       12.853        0.090      337.125        8.889      867.689
04/19/2013  09:19:00       37.186       26.231        6.131       33.878       30.136       14.601     1147.686      908.192      213.183        0.219        0.113       45.506       15.977        0.123      337.183        8.985      867.696
04/19/2013  09:20:00       31.206       52.452       51.599       47.512       41.067       30.224     2257.397     1686.465      913.486        0.562        0.243       61.033       28.496        0.218      337.342        9.251      867.691
04/19/2013  09:21:00       37.668       64.969       58.656       45.560       45.053       35.942     2075.728     2029.755     1291.811        0.724        0.270       75.099       31.748        0.179      337.211        9.032      867.695
04/19/2013  09:22:00       48.516       42.912       14.335       21.936       29.129       31.425      481.178      848.476      987.524        0.336        0.116       64.770       16.944        0.068      337.342        9.251      867.684
04/19/2013  09:23:00       52.331       71.681       11.354       29.347       28.890       28.849      861.246      834.648      832.283        0.527        0.126       88.751       24.987        0.079      337.010        8.695      867.693
04/19/2013  09:24:00       14.227       32.326        7.839       23.771       27.989       21.453      565.038      783.362      460.225        0.156        0.090       35.318       21.278        0.363      337.212        9.034      867.703
04/19/2013  09:25:00       73.266       39.276        5.787       34.527       25.052       24.714     1192.143      627.616      610.762        0.469        0.122       83.130       18.048        0.047      337.240        9.079      867.712
04/19/2013  09:26:00       96.859       55.130       23.629       42.793       27.661       27.976     1831.223      765.122      782.674        0.818        0.169      111.449       24.691        0.049      337.306        9.190      867.704
04/19/2013  09:27:00       59.185       56.090       21.488       43.199       28.644       31.648     1866.151      820.471     1001.593        0.540        0.184       81.541       15.382        0.036      337.255        9.105      867.673
04/19/2013  09:28:00       27.539       61.281       67.656       49.153       39.484       31.772     2416.001     1558.989     1009.444        0.704        0.249       67.184       28.573        0.181      337.399        9.346      867.652
04/19/2013  09:29:00       18.732       75.746       85.900       37.063       55.120       36.632     1373.685     3038.217     1341.940        0.961        0.288       78.027       32.845        0.177      337.543        9.589      867.619
04/19/2013  09:30:00       57.247       41.638       35.413       48.614       37.833       33.630     2363.359     1431.334     1131.000        0.559        0.246       70.788       23.749        0.113      337.410        9.365      867.618
04/19/2013  09:31:00       10.169      -25.275       11.703       18.351       27.077       23.525      336.754      733.156      553.449        0.125        0.081       27.244       22.304        0.670      337.730        9.903      867.617
04/19/2013  09:32:00      -14.531      -16.548      -10.963       22.668       30.360       19.139      513.830      921.730      366.318        0.120        0.090       22.022        9.038        0.168      337.420        9.381      867.621
04/19/2013  09:33:00       -8.956       17.642       35.091        9.997       20.322       20.310       99.932      412.996      412.508        0.127        0.046       19.785        5.712        0.083      338.192       10.675      867.609
04/19/2013  09:34:00      -11.006       11.160       29.531       35.745       40.206       32.843     1277.671     1616.531     1078.654        0.254        0.199       15.675       27.944        3.178      337.768        9.966      867.603
04/19/2013  09:35:00       51.369       65.808       46.622       51.986       35.701       41.126     2702.552     1274.546     1691.387        0.740        0.283       83.483       38.646        0.214      337.468        9.463      867.593
04/19/2013  09:36:00       64.206       86.933       79.600       57.782       41.070       39.488     3338.747     1686.783     1559.325        1.230        0.329      108.073       30.160        0.078      337.579        9.648      867.573
04/19/2013  09:37:00      119.688      102.519       66.771       49.386       37.807       53.164     2439.015     1429.342     2826.431        1.799        0.335      157.592       26.890        0.029      337.442        9.419      867.551
04/19/2013  09:38:00       16.156      110.423       97.957       36.664       53.774       44.956     1344.224     2891.623     2021.064        1.415        0.313      111.599       32.250        0.084      337.526        9.560      867.550
04/19/2013  09:39:00       17.012       41.154       66.674       33.687       38.484       30.297     1134.826     1480.998      917.908        0.498        0.177       44.532       29.011        0.424      337.889       10.170      867.559
04/19/2013  09:40:00       18.998      -66.590       -1.081       35.507       47.236       28.219     1260.746     2231.251      796.299        0.454        0.214       69.247       26.034        0.141      337.720        9.885      867.561
04/19/2013  09:41:00        6.304       -4.252       20.760       22.791       30.573       27.650      519.435      934.714      764.546        0.135        0.111        7.604       26.250       11.917      338.265       10.800      867.541
04/19/2013  09:42:00       43.890      -50.430       -3.889       45.030       55.057       41.054     2027.664     3031.275     1685.461        0.561        0.337       66.854       42.987        0.413      337.669        9.800      867.527
04/19/2013  09:43:00       39.428        6.005       32.859       35.265       44.539       36.574     1243.624     1983.698     1337.635        0.362        0.228       39.882       31.770        0.635      337.693        9.839      867.525
04/19/2013  09:44:00       40.630      -43.121       -7.081       21.345       30.087       24.784      455.623      905.212      614.239        0.277        0.099       59.247       12.347        0.043      337.564        9.623      867.528
04/19/2013  09:45:00       50.928      -37.674       -8.057       26.804       29.800       22.995      718.452      888.031      528.788        0.311        0.107       63.348       18.592        0.086      337.615        9.709      867.522
04/19/2013  09:46:00        1.848      -22.699       14.995       20.769       28.239       25.215      431.355      797.439      635.789        0.130        0.093       22.774       14.431        0.402      338.300       10.858      867.516
04/19/2013  09:47:00       61.206      -53.884       17.221       51.250       53.280       35.479     2626.531     2838.772     1258.729        0.683        0.336       81.546       31.346        0.148      338.023       10.394      867.501
04/19/2013  09:48:00       58.238      -70.975        6.042       35.545       71.720       44.134     1263.474     5143.769     1947.839        0.841        0.418       91.810       50.386        0.301      338.015       10.381      867.485
04/19/2013  09:49:00        8.665        5.697       14.103       25.156       25.876       22.819      632.846      669.586      520.729        0.106        0.091       10.371       17.849        2.962      338.278       10.823      867.482
04/19/2013  09:50:00        1.996       14.501       23.808       26.517       32.958       19.408      703.128     1086.254      376.652        0.147        0.108       14.638       20.238        1.911      338.379       10.991      867.487
04/19/2013  09:51:00        5.168       42.580        6.495       24.480       34.080       23.611      599.293     1161.454      557.491        0.210        0.116       42.893       17.073        0.158      338.200       10.691      867.487
04/19/2013  09:52:00       20.619       57.645       76.048       41.263       33.352       36.303     1702.607     1112.381     1317.918        0.683        0.207       61.222       19.547        0.102      338.253       10.780      867.496
04/19/2013  09:53:00      104.398       94.373       57.687       47.899       36.889       41.211     2294.325     1360.824     1698.371        1.424        0.268      140.730       28.967        0.042      337.796       10.011      867.492
04/19/2013  09:54:00       49.928       54.541       38.836       57.614       35.736       31.424     3319.324     1277.054      987.459        0.628        0.279       73.943       27.484        0.138      338.201       10.691      867.496
04/19/2013  09:55:00       42.180       35.467       54.438       50.707       41.146       33.684     2571.166     1693.005     1134.583        0.570        0.270       55.109       30.842        0.313      338.379       10.990      867.498
04/19/2013  09:56:00       46.820       60.634       29.651       51.896       38.867       37.377     2693.246     1510.607     1397.058        0.617        0.280       76.607       36.904        0.232      338.385       11.001      867.482
04/19/2013  09:57:00       31.481       81.899      -11.434       24.444       27.003       14.638      597.489      729.168      214.261        0.468        0.077       87.741       10.638        0.015      337.798       10.016      867.465
04/19/2013  09:58:00       23.682      116.309      -22.804       26.653       61.098       14.937      710.399     3733.016      223.119        0.964        0.233      118.695       15.283        0.017      337.837       10.083      867.442
04/19/2013  09:59:00       28.188       54.567       -3.688       35.943       40.914       26.099     1291.918     1673.962      681.145        0.372        0.182       61.417       26.131        0.181      338.261       10.793      867.413
04/19/2013  10:00:00       78.181       61.811       15.099       58.295       60.441       38.611     3398.273     3653.070     1490.784        0.935        0.427       99.664       22.432        0.051      338.253       10.779      867.403
04/19/2013  10:01:00      102.762       68.651       39.846       50.123       43.185       46.252     2512.293     1864.915     2139.261        1.169        0.326      123.584       16.881        0.019      338.178       10.653      867.395
04/19/2013  10:02:00      120.448       82.115       21.387       40.178       31.504       34.433     1614.235      992.471     1185.629        1.275        0.190      145.776       20.016        0.019      337.906       10.197      867.399
04/19/2013  10:03:00       15.549       29.658       -8.688       28.658       46.758       21.734      821.270     2186.307      472.355        0.234        0.174       33.487       17.565        0.275      338.216       10.718      867.404
04/19/2013  10:04:00       -4.213        8.365       39.599       26.197       34.100       32.190      686.263     1162.789     1036.185        0.227        0.144        9.366       19.765        4.453      338.881       11.834      867.392
04/19/2013  10:05:00       16.011      -72.435       16.403       36.835       51.384       39.298     1356.826     2640.316     1544.310        0.566        0.277       74.184       36.278        0.239      338.522       11.231      867.380
04/19/2013  10:06:00       70.341      -29.155       -3.550       23.325       54.053       29.154      544.068     2921.737      849.964        0.506        0.216       76.144       20.749        0.074      338.244       10.765      867.358
04/19/2013  10:07:00      -22.319       30.785      -15.255       64.210       49.160       26.324     4122.911     2416.729      692.937        0.445        0.362       38.025       35.307        0.862      338.086       10.499      867.327
04/19/2013  10:08:00      -60.291       29.034       -7.239       40.646       32.806       26.134     1652.088     1076.248      682.961        0.397        0.171       66.918       27.488        0.169      338.281       10.826      867.311
04/19/2013  10:09:00       18.088      -28.862       36.841       35.049       57.019       24.197     1228.467     3251.212      585.476        0.379        0.253       34.061       10.265        0.091      338.712       11.550      867.295
04/19/2013  10:10:00       42.674        6.063       48.296       51.994       55.400       38.227     2703.349     3069.174     1461.308        0.571        0.362       43.103       27.010        0.393      338.685       11.504      867.268
04/19/2013  10:11:00       62.418       57.909       62.671       60.660       66.397       42.520     3679.646     4408.603     1807.977        1.053        0.495       85.144       37.546        0.194      338.519       11.226      867.269
04/19/2013  10:12:00       61.577       61.066       59.715       39.097       35.923       28.471     1528.560     1290.464      810.584        0.736        0.181       86.722       25.215        0.085      338.270       10.806      867.278
04/19/2013  10:13:00       -3.758      -17.637        1.078       40.044       52.552       33.735     1603.531     2761.702     1138.054        0.291        0.275       18.033       28.505        2.499      338.665       11.470      867.298
04/19/2013  10:14:00       -6.573      -39.178       34.975       24.166       60.028       27.178      584.000     3603.397      738.635        0.386        0.246       39.725       15.066        0.144      339.124       12.243      867.304
04/19/2013  10:15:00       20.482       29.498       43.949       30.432       37.586       21.644      926.082     1412.680      468.479        0.301        0.140       35.911       11.826        0.108      339.001       12.036      867.305
04/19/2013  10:16:00       57.201       -5.845       31.904       49.223       37.467       32.477     2422.936     1403.782     1054.740        0.460        0.244       57.499       32.634        0.322      338.761       11.631      867.295
04/19/2013  10:17:00        8.228        4.819       27.557       23.042       44.222       40.927      530.916     1955.612     1675.016        0.251        0.208        9.535       27.120        8.090      338.966       11.976      867.286
04/19/2013  10:18:00      -14.849       19.658       27.953       31.517       19.429       18.472      993.319      377.499      341.226        0.155        0.086       24.636       13.494        0.300      339.141       12.271      867.275
04/19/2013  10:19:00       49.378      -89.067        6.003       59.612       63.597       49.680     3553.567     4044.547     2468.126        1.023        0.503      101.838       49.209        0.233      338.933       11.922      867.265
04/19/2013  10:20:00       24.131       36.813       83.456       47.321       66.707       44.517     2239.321     4449.787     1981.732        0.878        0.434       44.017       43.925        0.996      339.013       12.056      867.262
04/19/2013  10:21:00       26.786      -17.825       21.864       26.013       43.705       39.225      676.681     1910.087     1538.587        0.282        0.206       32.175       34.361        1.140      338.807       11.708      867.266
04/19/2013  10:22:00       -8.163       45.819       48.954       34.149       38.302       32.750     1166.148     1467.019     1072.531        0.413        0.185       46.540       26.355        0.321      339.382       12.678      867.239
04/19/2013  10:23:00       52.739      -70.386      -12.429       48.950       57.821       34.198     2396.103     3343.321     1169.483        0.740        0.345       87.952       36.575        0.173      338.936       11.927      867.218
04/19/2013  10:24:00       11.487      -39.675       -1.320       42.903       45.668       35.753     1840.679     2085.551     1278.285        0.346        0.260       41.305       30.737        0.554      339.097       12.199      867.217
04/19/2013  10:25:00       -9.707      -82.237        6.302       31.733       38.398       24.459     1007.011     1474.384      598.237        0.499        0.154       82.808       17.904        0.047      338.902       11.869      867.220
04/19/2013  10:26:00       -2.002      -37.258        6.896       22.014       41.759       23.160      484.613     1743.811      536.379        0.210        0.138       37.311       20.343        0.297      339.356       12.633      867.215
04/19/2013  10:27:00       29.439       35.527       15.605       33.224       31.977       22.411     1103.856     1022.500      502.275        0.250        0.131       46.139       18.955        0.169      339.549       12.961      867.195
04/19/2013  10:28:00       39.001       24.209       15.917       58.542       36.834       28.260     3427.223     1356.756      798.647        0.397        0.279       45.904       25.790        0.316      339.484       12.847      867.176
04/19/2013  10:29:00       -5.327      -45.274       23.931       60.571       72.749       29.482     3668.804     5292.378      869.206        0.624        0.492       45.586       21.252        0.217      339.252       12.457      867.181
04/19/2013  10:30:00        6.531     -121.005        2.921       48.730       44.895       36.253     2374.625     2015.529     1314.274        1.020        0.285      121.181       24.697        0.042      338.947       11.944      867.208
04/19/2013  10:31:00       29.420     -104.755       -4.251       50.945       46.432       40.925     2595.442     2155.896     1674.827        0.914        0.321      108.808       34.431        0.100      338.940       11.932      867.219
04/19/2013  10:32:00       33.664       -0.792       58.357       50.863       39.519       30.875     2587.023     1561.718      953.286        0.482        0.255       33.673       17.524        0.271      339.461       12.809      867.193
04/19/2013  10:33:00       51.511       84.625       85.516       47.177       49.291       30.127     2225.641     2429.648      907.648        1.134        0.278       99.069       27.259        0.076      339.026       12.078      867.172
04/19/2013  10:34:00       79.946       51.114       29.043       33.074       35.579       37.817     1093.859     1265.857     1430.153        0.682        0.189       94.889       12.907        0.019      338.817       11.726      867.173
04/19/2013  10:35:00      105.897       42.310        8.568       74.095       50.596       34.621     5490.015     2559.915     1198.590        1.116        0.462      114.036       24.545        0.046      339.038       12.098      867.161
04/19/2013  10:36:00      145.892       89.016        7.283       59.658       46.119       43.800     3559.019     2126.954     1918.449        1.843        0.380      170.904       23.611        0.019      339.034       12.091      867.156
04/19/2013  10:37:00       79.086       44.838       17.768       59.423       52.502       36.968     3531.057     2756.507     1366.613        0.812        0.383       90.913       29.426        0.105      338.795       11.691      867.171
04/19/2013  10:38:00      -23.503      -37.501       12.209       27.126       55.834       24.378      735.839     3117.455      594.279        0.328        0.222       44.257       15.972        0.130      339.064       12.140      867.189
04/19/2013  10:39:00       -1.325      -74.984       -0.669       35.661       42.496       31.025     1271.692     1805.931      962.555        0.483        0.202       74.995       17.208        0.053      339.152       12.290      867.186
04/19/2013  10:40:00       21.022      -51.180       17.533       37.531       36.713       41.994     1408.556     1347.810     1763.499        0.394        0.226       55.329       28.210        0.260      339.237       12.432      867.172
04/19/2013  10:41:00       14.142       41.714       67.153       34.894       36.277       26.895     1217.591     1316.040      723.321        0.485        0.163       44.046       24.167        0.301      339.382       12.678      867.150
04/19/2013  10:42:00       21.940       -2.492       35.602       39.399       24.459       29.459     1552.314      598.232      867.807        0.239        0.151       22.082       20.660        0.875      339.566       12.988      867.133
04/19/2013  10:43:00       80.977       59.043       -4.702       52.678       29.795       35.367     2774.947      887.718     1250.813        0.749        0.246      100.217       31.522        0.099      338.973       11.990      867.142
04/19/2013  10:44:00       81.954       68.604        4.606       38.839       44.794       35.678     1508.467     2006.538     1272.933        0.812        0.239      106.878       26.340        0.061      339.088       12.182      867.153
04/19/2013  10:45:00       94.254       73.285        1.611       35.177       32.444       33.186     1237.424     1052.590     1101.284        0.882        0.170      119.392       18.756        0.025      339.081       12.171      867.163
04/19/2013  10:46:00       27.322       42.277       11.540       39.177       25.861       27.977     1534.874      668.785      782.702        0.283        0.149       50.337       14.572        0.084      339.405       12.717      867.161
04/19/2013  10:47:00       31.328       32.263       18.818       35.936       23.800       30.129     1291.365      566.451      907.754        0.257        0.138       44.970       20.133        0.200      339.558       12.974      867.157
04/19/2013  10:48:00        7.264       16.744       26.250       53.326       52.816       34.295     2843.624     2789.567     1176.144        0.391        0.340       18.252       27.859        2.330      339.919       13.582      867.141
04/19/2013  10:49:00       -8.598       32.171       -3.285       35.926       53.826       29.265     1290.668     2897.292      856.461        0.308        0.252       33.300       10.246        0.095      339.689       13.195      867.136
04/19/2013  10:50:00       -2.492       47.133       15.992       30.812       29.816       30.283      949.392      888.986      917.070        0.262        0.138       47.199       26.591        0.317      339.856       13.477      867.135
04/19/2013  10:51:00       20.376       35.395        1.074       27.674       36.426       27.022      765.865     1326.822      730.190        0.225        0.141       40.841       19.202        0.221      339.711       13.231      867.133
04/19/2013  10:52:00       13.638       94.332       -2.561       25.169       37.100       25.506      633.497     1376.446      650.571        0.588        0.133       95.313       22.098        0.054      339.452       12.796      867.131
04/19/2013  10:53:00       56.664       78.297       -0.690       33.619       29.913       26.053     1130.231      894.759      678.749        0.602        0.135       96.650       23.798        0.061      339.232       12.426      867.125
04/19/2013  10:54:00       18.525        8.734       23.551       27.133       54.920       29.822      736.177     3016.234      889.328        0.281        0.232       20.481       29.848        2.124      339.903       13.557      867.101
04/19/2013  10:55:00       29.642       56.280       66.586       56.678       68.088       39.734     3212.418     4635.915     1578.782        0.895        0.471       63.609       37.931        0.356      339.918       13.580      867.074
04/19/2013  10:56:00       38.308        7.751       40.295       41.204       45.914       37.453     1697.807     2108.110     1402.737        0.418        0.260       39.084       37.147        0.903      339.667       13.158      867.057
04/19/2013  10:57:00       31.231       31.432       61.576       34.514       34.990       26.878     1191.232     1224.308      722.429        0.445        0.157       44.309       20.135        0.207      339.968       13.664      867.047
04/19/2013  10:58:00       18.454        5.724       53.266       38.746       41.847       36.316     1501.266     1751.139     1318.867        0.389        0.229       19.321       24.978        1.671      340.304       14.232      867.036
04/19/2013  10:59:00       79.011       96.954       97.080       65.111       65.055       46.675     4239.437     4232.171     2178.600        1.786        0.533      125.071       43.412        0.120      339.604       13.051      867.036
04/19/2013  11:00:00       53.829       45.075       58.878       63.258       70.693       47.935     4001.628     4997.469     2297.771        0.984        0.565       70.209       34.181        0.237      340.008       13.733      867.049
04/19/2013  11:01:00       70.724       95.533       18.119       46.024       30.321       48.973     2118.217      919.338     2398.390        0.995        0.272      118.863       15.198        0.016      339.316       12.564      867.053
04/19/2013  11:02:00        0.287       97.524       -0.702       34.381       35.196       24.195     1182.068     1238.729      585.406        0.626        0.150       97.524       20.213        0.043      339.362       12.643      867.058
04/19/2013  11:03:00       27.741       26.683       53.658       23.065       24.162       23.962      531.989      583.794      574.197        0.302        0.084       38.491       19.773        0.264      340.036       13.781      867.067
04/19/2013  11:04:00       41.133       38.485       15.811       41.575       29.001       34.563     1728.485      841.085     1194.611        0.359        0.188       56.330       25.143        0.199      339.610       13.061      867.080
04/19/2013  11:05:00        1.927       33.238       66.197       29.864       43.877       37.353      891.852     1925.229     1395.254        0.485        0.211       33.294       34.795        1.092      340.337       14.289      867.052
04/19/2013  11:06:00        1.097       42.014       74.326       42.855       52.255       35.165     1836.521     2730.586     1236.542        0.655        0.290       42.028       26.322        0.392      340.209       14.073      867.035
04/19/2013  11:07:00       84.039       45.045        0.514       40.973       34.730       34.329     1678.785     1206.141     1178.449        0.658        0.203       95.350       19.103        0.040      339.806       13.391      867.028
04/19/2013  11:08:00       59.659       48.887       -2.474       57.863       36.316       34.011     3348.175     1318.838     1156.719        0.589        0.291       77.130       23.331        0.092      339.713       13.235      867.038
04/19/2013  11:09:00       72.744       69.835       13.638       69.422       26.615       29.173     4819.477      708.362      851.061        0.837        0.319      100.840       25.506        0.064      339.663       13.151      867.027
04/19/2013  11:10:00       63.383       31.891       34.132       45.360       35.083       36.956     2057.556     1230.784     1365.756        0.543        0.233       70.954       13.643        0.037      340.055       13.812      867.002
04/19/2013  11:11:00        8.854       71.087      -11.031       51.912       33.672       31.184     2694.875     1133.822      972.435        0.503        0.240       71.637       22.005        0.094      339.879       13.515      866.969
04/19/2013  11:12:00      -11.761      141.071      -23.278       29.559       32.439       18.297      873.720     1052.289      334.780        1.142        0.113      141.561       12.562        0.008      339.612       13.065      866.950
04/19/2013  11:13:00       24.436       67.592       -2.591       30.834       28.970       27.071      950.759      839.264      732.821        0.385        0.126       71.873       21.071        0.086      339.893       13.538      866.940
04/19/2013  11:14:00       10.035       32.131        9.946       21.927       23.985       22.939      480.807      575.290      526.178        0.141        0.079       33.661       11.644        0.120      340.274       14.183      866.942
04/19/2013  11:15:00       10.825       63.061       10.296       26.254       35.275       22.858      689.275     1244.308      522.470        0.333        0.123       63.983       23.641        0.137      340.315       14.252      866.944
04/19/2013  11:16:00      -33.865       -9.993        8.144       38.088       51.784       22.233     1450.693     2681.577      494.294        0.297        0.231       35.308       26.023        0.543      340.282       14.195      866.935
04/19/2013  11:17:00      -26.963        8.874       20.360       24.653       23.821       23.298      607.764      567.439      542.796        0.147        0.086       28.386       17.318        0.372      340.905       15.249      866.914
04/19/2013  11:18:00        8.815        1.498       45.440       28.037       40.685       28.061      786.081     1655.279      787.435        0.269        0.161        8.941       25.784        8.315      340.963       15.348      866.892
04/19/2013  11:19:00       -2.446        8.207       53.731       34.177       83.904       50.422     1168.089     7039.965     2542.371        0.685        0.538        8.564       58.364       46.449      340.734       14.959      866.860
04/19/2013  11:20:00       19.826      -50.071       41.085       47.707       73.584       46.183     2275.986     5414.538     2132.910        0.720        0.491       53.853       45.902        0.727      340.762       15.007      866.833
04/19/2013  11:21:00       17.950      -44.635       23.567       27.638       61.274       41.363      763.844     3754.564     1710.906        0.455        0.311       48.109       42.563        0.783      340.523       14.602      866.822
04/19/2013  11:22:00        9.848      -10.894       46.584       48.719       68.864       34.921     2373.533     4742.228     1219.478        0.536        0.417       14.686       40.729        7.692      340.874       15.196      866.805
04/19/2013  11:23:00       58.113       -0.558       60.373       43.149       49.513       43.247     1861.848     2451.536     1870.271        0.660        0.309       58.116       36.625        0.397      340.277       14.186      866.823
04/19/2013  11:24:00       81.166       61.944       11.887       26.154       49.940       35.387      684.045     2494.021     1252.243        0.750        0.222      102.102       31.871        0.097      339.751       13.300      866.812
04/19/2013  11:25:00        6.179        4.562       -4.292       57.665       28.436       31.142     3325.294      808.621      969.802        0.259        0.255        7.681       27.041       12.396      340.116       13.914      866.799
04/19/2013  11:26:00      -87.765      -13.467      -14.378       42.449       35.071       28.954     1801.911     1230.000      838.314        0.598        0.194       88.792       31.678        0.127      340.058       13.816      866.776
04/19/2013  11:27:00       32.735      -53.693       25.093       45.493       83.943       37.115     2069.621     7046.391     1377.502        0.754        0.525       62.885       40.716        0.419      340.650       14.818      866.760
04/19/2013  11:28:00       19.346       24.351       12.121       32.020       36.699       23.246     1025.252     1346.835      540.373        0.201        0.146       31.100        9.639        0.096      340.442       14.466      866.727
04/19/2013  11:29:00       36.563       36.118       20.872       42.524       52.569       32.462     1808.254     2763.503     1053.812        0.435        0.281       51.395       29.827        0.337      340.922       15.277      866.662
04/19/2013  11:30:00      129.320       79.589       -1.613       80.513       48.439       43.418     6482.369     2346.375     1885.097        1.689        0.536      151.848       22.203        0.021      340.514       14.586      866.594
04/19/2013  11:31:00       66.963       64.768       15.822       58.857       46.222       43.967     3464.204     2136.468     1933.053        0.823        0.377       93.161       24.260        0.068      340.770       15.019      866.561
04/19/2013  11:32:00       45.748      113.383       -3.038       43.151       55.844       43.303     1861.978     3118.578     1875.162        1.091        0.343      122.265       35.368        0.084      340.594       14.723      866.552
04/19/2013  11:33:00       61.641      120.293       23.779       56.263       56.007       68.992     3165.570     3136.825     4759.941        1.495        0.553      135.167       49.710        0.135      340.867       15.185      866.553
04/19/2013  11:34:00        8.419       61.068       77.719       33.522       38.773       28.181     1123.719     1503.344      794.185        0.663        0.171       61.645       26.196        0.181      340.832       15.125      866.550
04/19/2013  11:35:00       66.695      103.365        8.741       52.016       52.130       45.157     2705.707     2717.545     2039.144        1.133        0.373      123.015       40.481        0.108      340.415       14.420      866.539
04/19/2013  11:36:00      129.181       83.555       32.661       69.370       47.988       43.030     4812.228     2302.878     1851.580        1.685        0.448      153.848       23.114        0.023      340.635       14.791      866.511
04/19/2013  11:37:00      178.278      122.996       26.478       45.686       43.762       39.185     2087.215     1915.111     1535.476        2.657        0.277      216.590       10.693        0.002      340.245       14.130      866.486
04/19/2013  11:38:00       17.995       -1.022        9.448       48.245       54.428       36.148     2327.568     2962.383     1306.650        0.350        0.330       18.024        9.996        0.308      340.744       14.976      866.460
04/19/2013  11:39:00       54.211      104.053       -0.253       38.642       49.317       34.060     1493.197     2432.158     1160.090        0.942        0.254      117.327       31.082        0.070      340.507       14.576      866.454
04/19/2013  11:40:00       25.379      106.153       -6.290       50.556       65.303       40.094     2555.916     4264.546     1607.535        1.019        0.421      109.144       40.572        0.138      340.803       15.076      866.454
04/19/2013  11:41:00       45.578      -13.088       20.354       63.431       95.609       56.026     4023.543     9141.170     3138.914        0.948        0.815       47.420       52.506        1.226      340.536       14.623      866.445
04/19/2013  11:42:00       61.356       28.894       25.648       51.796       58.929       50.229     2682.832     3472.587     2522.990        0.697        0.434       67.819       17.533        0.067      340.801       15.073      866.431
04/19/2013  11:43:00      101.513       50.197        7.852       60.583       75.915       47.426     3670.243     5763.113     2249.218        1.228        0.584      113.246       27.090        0.057      340.704       14.908      866.445
04/19/2013  11:44:00       80.253       35.272       68.254       54.218       69.396       37.798     2939.628     4815.823     1428.675        1.076        0.459       87.662       21.351        0.059      340.829       15.120      866.466
04/19/2013  11:45:00       76.900       94.080       25.895       82.827       59.322       54.339     6860.374     3519.057     2952.770        1.438        0.667      121.510       36.302        0.089      341.021       15.444      866.469
04/19/2013  11:46:00       32.825       53.407      -15.560       55.931       50.191       30.403     3128.227     2519.138      924.363        0.537        0.329       62.688       11.414        0.033      340.735       14.961      866.481
04/19/2013  11:47:00       50.735       47.468       17.818       47.057       31.421       33.744     2214.365      987.293     1138.645        0.474        0.217       69.478       20.101        0.084      340.830       15.122      866.434
04/19/2013  11:48:00       52.012       44.401       21.081       27.869       20.175       24.881      776.693      407.029      619.068        0.346        0.090       68.386       16.695        0.060      340.925       15.283      866.381
04/19/2013  11:49:00       14.057       10.006       17.865       40.740       38.062       40.149     1659.740     1448.693     1611.963        0.267        0.236       17.254       29.733        2.969      341.453       16.175      866.324
04/19/2013  11:50:00      115.280      102.487       58.775       59.051       43.860       52.074     3487.029     1923.682     2711.728        1.768        0.406      154.250       27.676        0.032      341.185       15.722      866.284
04/19/2013  11:51:00       51.231       40.246       35.964       63.352       60.002       37.544     4013.436     3600.264     1409.515        0.728        0.451       65.149       30.457        0.219      341.162       15.684      866.267
04/19/2013  11:52:00       27.796       20.182        5.955       64.261       64.083       37.928     4129.482     4106.611     1438.504        0.544        0.484       34.350       31.445        0.838      341.134       15.636      866.256
04/19/2013  11:53:00       27.594       15.211       45.661       53.370       71.738       28.946     2848.309     5146.290      837.890        0.595        0.442       31.509       14.423        0.210      341.770       16.714      866.260
04/19/2013  11:54:00       19.144       14.072       11.909       67.004       60.592       42.200     4489.518     3671.429     1780.807        0.532        0.497       23.759       49.868        4.405      341.281       15.885      866.264
04/19/2013  11:55:00       77.129       64.489       36.955       36.365       35.994       45.669     1322.413     1295.546     2085.620        0.809        0.235      100.537       26.651        0.070      340.758       15.001      866.243
04/19/2013  11:56:00       61.916       10.332        5.742       43.730       46.627       33.106     1912.297     2174.032     1095.983        0.458        0.259       62.772       16.708        0.071      340.891       15.225      866.188
04/19/2013  11:57:00       78.129       15.612       79.204      116.863      101.738       65.197    13657.052    10350.562     4250.590        2.043        1.413       79.673       88.677        1.239      341.332       15.969      866.122
04/19/2013  11:58:00       75.544      137.705      141.523      104.188       79.933       72.210    10855.078     6389.324     5214.290        3.357        1.123      157.065       59.475        0.143      341.242       15.815      866.075
04/19/2013  11:59:00       25.878       83.449      108.580       67.627       54.623       46.776     4573.432     2983.725     2188.033        1.458        0.487       87.369       29.913        0.117      341.454       16.177      866.060
04/19/2013  12:00:00       78.903       92.871       80.560      111.251       72.217       56.707    12376.700     5215.281     3215.716        2.107        1.040      121.864       31.435        0.067      341.399       16.084      866.034
04/19/2013  12:01:00       57.806       65.632       95.292      115.531       86.863       51.032    13347.306     7545.245     2604.304        2.011        1.175       87.459       39.940        0.209      341.784       16.737      866.010
04/19/2013  12:02:00       46.723      120.073      111.330       75.396       70.593       51.881     5684.579     4983.355     2691.661        2.117        0.668      128.843       43.109        0.112      341.405       16.094      866.006
04/19/2013  12:03:00       61.331      -69.968        4.143       53.773      134.827       48.602     2891.554    18178.430     2362.149        1.605        1.172       93.043       62.863        0.456      341.157       15.674      865.992
04/19/2013  12:04:00       80.093     -121.489      -23.607       73.231      101.800       61.816     5362.751    10363.225     3821.206        2.064        0.977      145.514       66.339        0.208      341.504       16.262      865.959
04/19/2013  12:05:00       43.364      -29.056       53.167       54.669       72.761       50.222     2988.735     5294.220     2522.280        0.818        0.540       52.198       50.567        0.938      341.748       16.677      865.956
04/19/2013  12:06:00        9.838      -62.918       29.161       56.444       70.115       47.861     3185.870     4916.083     2290.630        0.765        0.520       63.682       29.249        0.211      341.659       16.525      865.959
04/19/2013  12:07:00       42.860     -162.757       -9.953       59.408       56.499       50.010     3529.258     3192.122     2500.969        1.882        0.461      168.306       36.307        0.047      341.701       16.595      865.968
04/19/2013  12:08:00       65.058      -48.040       10.720       49.893       52.001       48.661     2489.336     2704.125     2367.905        0.711        0.378       80.873       44.494        0.303      341.563       16.364      865.990
04/19/2013  12:09:00       24.850     -109.539       -8.787       46.784       65.980       34.593     2188.771     4353.308     1196.681        1.021        0.387      112.322       37.502        0.111      341.635       16.484      865.963
04/19/2013  12:10:00       37.072      -31.997       26.294       59.949       60.456       50.837     3593.842     3654.979     2584.380        0.646        0.492       48.971       39.361        0.646      341.827       16.811      865.945
04/19/2013  12:11:00       55.818      -51.966       25.029       59.087      102.895       37.824     3491.242    10587.446     1430.629        1.097        0.775       76.263       56.382        0.547      341.565       16.365      865.900
04/19/2013  12:12:00       59.304     -116.050       -1.720       47.802      102.315       46.951     2285.067    10468.341     2204.407        1.597        0.748      130.324       56.392        0.187      341.545       16.331      865.864
04/19/2013  12:13:00       24.606     -117.400       17.218       59.383       58.214       41.033     3526.289     3388.833     1683.671        1.164        0.430      119.951       30.995        0.067      341.846       16.843      865.847
04/19/2013  12:14:00       41.145     -139.751      -14.444       32.555       48.791       26.752     1059.839     2380.581      715.670        1.279        0.208      145.682       16.162        0.012      341.821       16.801      865.871
04/19/2013  12:15:00       50.038     -122.336      -21.020       90.786       80.963       50.581     8242.131     6555.078     2558.408        1.763        0.868      132.174       53.975        0.167      341.852       16.850      865.864
04/19/2013  12:16:00       19.945       80.744       99.457       45.527       53.857       35.820     2072.670     2900.527     1283.057        1.153        0.313       83.171       23.607        0.081      342.005       17.111      865.854
04/19/2013  12:17:00       56.732      -75.192       -0.895       76.781       99.196       66.486     5895.266     9839.794     4420.433        1.451        1.008       94.194       66.698        0.501      342.047       17.184      865.831
04/19/2013  12:18:00      100.282     -128.619      -14.817       59.681       73.511       44.895     3561.767     5403.905     2015.575        1.890        0.549      163.093       49.257        0.091      341.708       16.606      865.844
04/19/2013  12:19:00       30.077       14.166       46.277       43.762       32.409       37.152     1915.089     1050.351     1380.248        0.380        0.217       33.247       26.943        0.657      342.099       17.273      865.848
04/19/2013  12:20:00       10.968       17.495       23.613       23.480       23.263       22.895      551.320      541.161      524.197        0.130        0.081       20.649       12.425        0.362      342.118       17.306      865.839
04/19/2013  12:21:00       70.743      -50.071       18.862       49.502       56.268       33.085     2450.447     3166.069     1094.650        0.729        0.336       86.670       20.225        0.054      341.896       16.929      865.834
04/19/2013  12:22:00      -45.829      -10.464       13.691       45.900       59.748       31.312     2106.801     3569.840      980.439        0.453        0.333       47.008       19.517        0.172      342.171       17.393      865.830
04/19/2013  12:23:00       44.867      -71.329        9.978       54.967       87.295       33.841     3021.322     7620.348     1145.222        0.949        0.589       84.266       36.185        0.184      342.095       17.266      865.780
04/19/2013  12:24:00       66.580      -58.508       21.660       62.446       77.790       62.259     3899.456     6051.226     3876.195        1.107        0.691       88.634       47.909        0.292      342.169       17.390      865.714
04/19/2013  12:25:00       29.067      -37.585       36.584       44.872      123.176       71.664     2013.506    15172.409     5135.768        1.295        1.116       47.514       86.442        3.310      342.414       17.806      865.707
04/19/2013  12:26:00      134.226     -212.842      -60.077       77.636       85.772       42.855     6027.343     7356.889     1836.548        4.107        0.761      251.631       31.778        0.016      341.934       16.990      865.669
04/19/2013  12:27:00      124.778     -165.460      -27.230       89.765      119.748       74.015     8057.822    14339.470     5478.224        3.578        1.394      207.235       89.077        0.185      341.980       17.066      865.624
04/19/2013  12:28:00      129.380     -188.263      -34.849       56.334       56.193       23.871     3173.538     3157.605      569.842        3.015        0.345      228.434       18.079        0.006      341.793       16.749      865.599
04/19/2013  12:29:00       64.118     -153.144      -22.364       76.193       73.988       50.823     5805.416     5474.176     2582.986        2.096        0.693      166.025       44.052        0.070      342.115       17.297      865.565
04/19/2013  12:30:00       76.360      -69.660       28.569       68.040      131.264       67.231     4629.383    17230.186     4519.951        1.893        1.319      103.360       83.028        0.645      342.310       17.628      865.522
04/19/2013  12:31:00       41.507       22.752       83.755       71.328       82.024       66.640     5087.719     6727.955     4440.882        1.275        0.813       47.334       54.587        1.330      342.351       17.700      865.486
04/19/2013  12:32:00       25.461        8.701       57.983       43.835       61.447       34.959     1921.525     3775.676     1222.156        0.550        0.346       26.906        5.909        0.048      342.410       17.800      865.487
04/19/2013  12:33:00       60.848       17.663       36.889       77.779       73.018       44.211     6049.593     5331.588     1954.583        0.935        0.667       63.360       34.012        0.288      342.465       17.894      865.484
04/19/2013  12:34:00       22.026      -33.057       14.792       36.698       46.582       35.284     1346.732     2169.878     1244.972        0.328        0.238       39.722       19.679        0.245      342.822       18.500      865.492
04/19/2013  12:35:00        3.333      -63.238       -0.986       37.506       50.193       40.726     1406.682     2519.326     1658.633        0.480        0.279       63.325       34.505        0.297      343.188       19.124      865.477
04/19/2013  12:36:00      -16.857     -107.119      -18.134       84.399       77.754       36.753     7123.232     6045.614     1350.772        1.330        0.726      108.437       41.866        0.149      342.555       18.046      865.485
04/19/2013  12:37:00     -111.618      -91.419        0.469      100.722       72.374       43.555    10144.981     5238.058     1897.043        1.904        0.864      144.277       39.051        0.073      342.377       17.742      865.464
04/19/2013  12:38:00     -108.887        1.135      -11.611       62.938       46.469       23.342     3961.247     2159.400      544.848        0.933        0.333      108.893       26.414        0.059      342.217       17.473      865.428
04/19/2013  12:39:00     -114.229      -41.233      -16.155       48.474       43.889       24.383     2349.726     1926.278      594.522        0.994        0.244      121.443       14.150        0.014      342.197       17.437      865.389
04/19/2013  12:40:00     -112.487      -13.283       -8.148       77.859       62.300       39.200     6062.042     3881.299     1536.637        1.219        0.574      113.269       45.173        0.159      342.439       17.850      865.365
04/19/2013  12:41:00      -82.779      -62.032        7.790      121.453       82.162       48.499    14750.776     6750.563     2352.132        1.730        1.193      103.442       53.016        0.263      342.499       17.952      865.351
04/19/2013  12:42:00     -244.759      -42.589      -64.184       53.736       96.727       35.111     2887.531     9356.183     1232.753        3.966        0.674      248.437       28.062        0.013      342.252       17.528      865.335
04/19/2013  12:43:00      -22.466       53.248       -4.498       58.029       46.325       36.834     3367.351     2146.017     1356.715        0.511        0.344       57.793       27.717        0.230      342.650       18.208      865.310
04/19/2013  12:44:00        5.441       -5.512      -24.202       43.035       51.166       24.197     1852.025     2618.003      585.482        0.285        0.253        7.745       25.124       10.522      342.837       18.525      865.277
04/19/2013  12:45:00       12.752      -31.388        8.628       34.111       36.075       31.876     1163.591     1301.370     1016.095        0.235        0.174       33.880       18.397        0.295      342.810       18.480      865.260
04/19/2013  12:46:00     -108.879      -59.491        5.369       98.146       58.361       36.632     9632.606     3406.045     1341.868        1.490        0.719      124.072       32.785        0.070      342.792       18.448      865.245
04/19/2013  12:47:00       -8.825      -32.245        6.402       37.538       42.198       35.544     1409.132     1780.654     1263.353        0.280        0.223       33.431       27.845        0.694      342.897       18.629      865.195
04/19/2013  12:48:00      -62.961      -74.306      -11.010       56.428       55.459       28.125     3184.121     3075.685      791.004        0.833        0.353       97.393       16.665        0.029      342.471       17.903      865.167
04/19/2013  12:49:00      -48.516      -27.490        1.249       38.886       32.988       21.848     1512.132     1088.176      477.352        0.309        0.154       55.763       16.699        0.090      342.696       18.285      865.114
04/19/2013  12:50:00      -12.295     -116.493      -10.010       95.506       68.923       38.467     9121.327     4750.406     1479.711        1.458        0.768      117.140       28.191        0.058      342.917       18.662      865.074
04/19/2013  12:51:00     -144.565     -109.671        0.064       89.201       70.230       43.105     7956.743     4932.228     1858.001        2.383        0.737      181.458       35.317        0.038      342.923       18.670      865.025
04/19/2013  12:52:00     -297.847     -106.955      -31.430       84.290       71.451       41.554     7104.837     5105.199     1726.699        5.754        0.697      316.469       20.768        0.004      342.513       17.971      864.984
04/19/2013  12:53:00     -261.008      -74.652       -4.563      108.269       92.556       52.749    11722.207     8566.629     2782.454        4.839        1.154      271.474       45.316        0.028      342.736       18.351      864.987
04/19/2013  12:54:00     -240.178     -237.772       -5.072      184.919      118.938       63.559    34194.904    14146.305     4039.710        8.330        2.619      337.965       54.292        0.026      342.815       18.487      865.034
04/19/2013  12:55:00     -432.660     -226.211        5.967      271.828      196.821      106.405    73890.601    38738.686    11322.055       18.115        6.198      488.227      125.902        0.066      343.107       18.983      864.960
04/19/2013  12:56:00     -354.139     -253.172       -9.561      271.755      175.576      132.016    73850.842    30826.923    17428.132       15.583        6.105      435.328      150.278        0.119      342.941       18.700      865.011
04/19/2013  12:57:00     -233.421     -104.450        3.937      149.294      142.155       79.855    22288.800    20208.155     6376.888        5.713        2.444      255.725       80.665        0.100      343.074       18.928      864.889
04/19/2013  12:58:00     -507.362     -145.788      -37.163      226.440      252.880      118.663    51275.060    63948.077    14080.830       20.465        6.465      527.892      111.218        0.044      343.019       18.832      864.828
04/19/2013  12:59:00     -342.683      -18.074       -7.468      153.763      127.659       72.745    23643.038    16296.938     5291.905        8.151        2.262      343.159       73.319        0.046      343.264       19.249      864.832
04/19/2013  13:00:00     -463.229     -168.466        9.222      313.787      237.229      108.227    98462.216    56277.807    11713.172       20.472        8.323      492.912      119.044        0.058      343.308       19.324      864.765
04/19/2013  13:01:00     -517.053     -141.537       11.460      323.217      187.783      104.343   104469.136    35262.474    10887.422       21.903        7.531      536.075      123.447        0.053      343.493       19.641      864.773
04/19/2013  13:02:00     -396.811     -225.805      -17.219      215.983      167.868       96.522    46648.822    28179.583     9316.470       14.643        4.207      456.560      112.330        0.061      343.356       19.408      864.865
04/19/2013  13:03:00     -449.276      -25.884      -24.573      242.181      159.574      102.565    58651.487    25463.999    10519.534       14.886        4.732      450.021      122.960        0.075      343.264       19.251      864.822
04/19/2013  13:04:00     -359.487      -40.728      -24.574      175.530      162.358       66.172    30810.804    26360.129     4378.795        9.651        3.077      361.787       60.351        0.028      343.423       19.520      864.798
04/19/2013  13:05:00     -411.958      -79.591      -10.842      233.290      198.145       88.350    54424.355    39261.398     7805.653       13.881        5.075      419.577       96.010        0.052      343.296       19.305      864.788
04/19/2013  13:06:00     -445.272      -92.399      -24.161      259.635      175.114       87.560    67410.220    30664.783     7666.715       15.654        5.287      454.758      100.110        0.048      343.203       19.146      864.687
04/19/2013  13:07:00     -429.724       98.121      -26.349      259.006      175.549       92.458    67083.857    30817.547     8548.569       15.070        5.322      440.784      113.278        0.066      343.512       19.672      864.602
04/19/2013  13:08:00     -365.204       -9.916      -31.432      242.515      171.426      101.787    58813.412    29386.932    10360.631       11.649        4.928      365.339       99.420        0.074      343.510       19.669      864.512
04/19/2013  13:09:00     -571.370     -150.611      -32.672      218.697      191.584      112.414    47828.523    36704.455    12636.862       22.367        4.858      590.887       98.259        0.028      343.394       19.471      864.531
04/19/2013  13:10:00     -546.446     -171.340       -2.431      247.895      172.574       94.005    61452.058    29781.787     8836.948       21.400        5.004      572.679       96.857        0.029      343.188       19.121      864.607
04/19/2013  13:11:00     -527.884      -25.410      -20.422      251.399      212.141       86.505    63201.564    45003.936     7483.087       19.768        5.784      528.495       95.368        0.033      343.193       19.128      864.555
04/19/2013  13:12:00     -453.331     -120.391      -12.256      202.498      167.487       88.900    41005.265    28051.954     7903.142       14.854        3.848      469.045       98.340        0.044      343.127       19.017      864.499
04/19/2013  13:13:00     -385.786      -16.176       -9.730      253.139      140.647       96.190    64079.378    19781.579     9252.507       12.113        4.656      386.125      115.107        0.089      343.308       19.325      864.504
04/19/2013  13:14:00     -759.427     -177.654      -28.378      291.523      235.143      110.800    84985.900    55292.379    12276.659       38.079        7.628      779.929      106.068        0.018      343.268       19.256      864.477
04/19/2013  13:15:00     -564.723      -33.159      -24.377      305.662      280.446      129.000    93428.995    78649.966    16641.018       25.462        9.436      565.696      141.649        0.063      343.343       19.383      864.487
04/19/2013  13:16:00     -564.187     -174.412      -42.886      223.878      181.522      104.878    50121.261    32950.251    10999.340       22.230        4.704      590.531      110.874        0.035      343.220       19.175      864.550
04/19/2013  13:17:00     -304.168     -115.904       -1.130      175.621      118.327       78.587    30842.887    14001.248     6175.895        7.848        2.551      325.502       69.416        0.045      343.582       19.792      864.540
04/19/2013  13:18:00     -536.973     -139.840       -3.484      246.679      196.355      119.015    60850.364    38555.364    14164.460       21.072        5.679      554.883      128.568        0.054      343.256       19.235      864.558
04/19/2013  13:19:00     -344.629      -68.276       -4.904      278.255      139.104       86.093    77425.640    19349.934     7411.977       11.380        5.209      351.327      117.886        0.113      343.299       19.310      864.559
04/19/2013  13:20:00     -226.266      -91.254       -0.763      129.419      117.470       62.309    16749.261    13799.268     3882.438        4.697        1.722      243.975       71.338        0.085      343.314       19.335      864.496
04/19/2013  13:21:00     -191.654      -54.190        7.804      195.551      123.480       90.478    38240.386    15247.407     8186.320        5.069        3.084      199.168       82.216        0.170      343.442       19.554      864.503
04/19/2013  13:22:00     -383.702     -135.030        5.854      265.083      210.462      124.388    70268.943    44294.298    15472.481       14.774        6.502      406.768      148.434        0.133      343.226       19.186      864.488
04/19/2013  13:23:00     -569.165     -183.968      -42.236      214.271      191.598       93.480    45911.861    36709.840     8738.583       22.545        4.568      598.159       99.103        0.027      343.205       19.150      864.502
04/19/2013  13:24:00     -391.991       -5.960      -50.652      193.058      201.610       83.302    37271.312    40646.793     6939.245       12.054        4.243      392.036       86.542        0.049      343.344       19.386      864.486
04/19/2013  13:25:00     -593.947     -215.669      -39.093      230.618      174.539      108.865    53184.494    30463.964    11851.655       24.814        4.775      631.891      106.165        0.028      343.159       19.072      864.443
04/19/2013  13:26:00     -293.991      -63.496       -4.854      156.002      168.520       81.079    24336.758    28398.966     6573.812        7.489        2.965      300.770       74.597        0.062      343.130       19.021      864.528
04/19/2013  13:27:00     -446.550     -126.906      -21.468      155.375      223.313       83.347    24141.340    49868.816     6946.642       14.845        4.048      464.233       80.751        0.030      343.337       19.373      864.526
04/19/2013  13:28:00     -388.833     -102.142       -3.684      198.268      149.185       83.164    39310.082    22256.088     6916.229       11.505        3.424      402.025       94.652        0.055      343.007       18.814      864.489
04/19/2013  13:29:00     -453.655      -98.020      -26.811      286.087      177.743      111.924    81845.996    31592.557    12527.041       17.102        6.298      464.123       99.864        0.046      343.200       19.141      864.404
04/19/2013  13:30:00     -662.738      -92.270      -60.309      244.562      195.105      116.005    59810.623    38065.848    13457.275       28.133        5.567      669.130      112.624        0.028      343.399       19.479      864.377
04/19/2013  13:31:00     -686.986     -127.464      -61.807      254.685      180.113       94.364    64864.295    32440.857     8904.555       29.909        5.310      698.711      102.363        0.021      343.293       19.300      864.408
04/19/2013  13:32:00     -423.802      -25.432      -41.566      202.413      144.194       96.083    40971.122    20792.043     9232.036       12.647        3.550      424.564      101.906        0.058      343.392       19.468      864.400
04/19/2013  13:33:00     -445.850       24.198      -39.847      201.641      153.262       90.688    40659.230    23489.214     8224.398       13.665        3.619      446.506      105.343        0.056      343.343       19.385      864.349
04/19/2013  13:34:00     -360.790     -134.896       -4.394      234.738      169.841       85.852    55101.926    28846.121     7370.495       11.983        4.566      385.183      111.612        0.084      343.615       19.847      864.326
04/19/2013  13:35:00     -354.349      -91.405      -20.904      184.079      143.289       69.467    33885.124    20531.649     4825.690        9.679        2.962      365.948       44.527        0.015      343.515       19.677      864.327
04/19/2013  13:36:00     -280.740       69.989      -32.462      192.926      179.810       81.261    37220.444    32331.533     6603.364        8.045        3.808      289.333       82.698        0.082      343.663       19.932      864.261
04/19/2013  13:37:00     -352.402       -3.870      -36.658      160.246      119.789       72.797    25678.745    14349.459     5299.349        8.543        2.266      352.423       77.258        0.048      343.848       20.245      864.193
04/19/2013  13:38:00     -309.424      -94.664      -17.957      191.623      229.592      100.584    36719.259    52712.394    10117.079       10.227        4.977      323.580       77.139        0.057      343.648       19.904      864.203
04/19/2013  13:39:00     -100.942      -84.346       37.907      185.923      117.725       82.082    34567.350    13859.126     6737.535        3.694        2.758      131.543       89.099        0.459      344.028       20.555      864.197
04/19/2013  13:40:00     -175.758      -34.615        4.832      122.268      155.161       65.712    14949.382    24075.033     4318.030        3.772        2.167      179.134       68.839        0.148      344.088       20.656      864.191
04/19/2013  13:41:00     -260.077     -213.939        0.482      189.292      146.520       81.241    35831.624    21468.119     6600.077        8.864        3.195      336.763       72.219        0.046      343.571       19.773      864.223
04/19/2013  13:42:00     -416.563     -241.824      -26.953      225.358      137.405       97.621    50786.152    18880.077     9529.832       15.595        3.960      481.667       94.513        0.039      343.220       19.174      864.193
04/19/2013  13:43:00     -458.123     -151.845      -14.739      285.394      192.161      111.215    81449.825    36925.685    12368.731       18.192        6.537      482.631      134.894        0.078      343.459       19.583      864.246
04/19/2013  13:44:00     -534.949     -219.607      -31.488      296.532      297.953      116.804    87931.373    88775.959    13643.111       26.283        9.518      578.271      132.921        0.053      343.225       19.183      864.166
04/19/2013  13:45:00     -404.366     -194.941      -16.181      250.663      187.177      109.272    62831.920    35035.165    11940.462       15.577        5.490      448.903      122.942        0.075      343.324       19.352      864.160
04/19/2013  13:46:00     -495.411      -90.923      -22.064      224.892      194.387       85.707    50576.600    37786.362     7345.629       17.493        4.785      503.686       87.473        0.030      343.456       19.577      864.091
04/19/2013  13:47:00     -404.165      -67.266       -1.943      238.861      194.740       99.193    57054.497    37923.560     9839.292       13.633        5.241      409.724      103.163        0.063      343.517       19.680      864.056
04/19/2013  13:48:00     -486.916     -271.685       -7.106      277.247      273.731      108.926    76865.831    74928.914    11864.801       23.727        8.183      557.584      113.231        0.041      343.375       19.439      864.129
04/19/2013  13:49:00     -427.545      -40.018      -15.051      219.541      200.360       97.785    48198.168    40144.309     9561.990       14.124        4.895      429.414       98.194        0.052      343.473       19.606      864.084
04/19/2013  13:50:00     -518.391     -144.317      -35.791      348.840      160.323      102.316   121689.359    25703.577    10468.611       22.432        7.893      538.105      142.078        0.070      343.465       19.594      864.028
04/19/2013  13:51:00     -375.399      -93.782      -21.759      195.573      127.672       74.741    38248.722    16300.185     5586.203       10.515        3.007      386.936       88.136        0.052      343.488       19.632      864.019
04/19/2013  13:52:00     -446.690      -86.477      -16.259      174.975      137.187       74.760    30616.346    18820.313     5589.111       13.114        2.751      454.983       82.821        0.033      343.344       19.386      863.993
04/19/2013  13:53:00     -371.023      -76.615       -4.387      290.355      141.994       85.532    84305.811    20162.336     7315.720       12.764        5.589      378.851      112.399        0.088      343.440       19.551      863.968
04/19/2013  13:54:00     -479.045     -196.664      -22.378      199.257      190.427      117.957    39703.173    36262.550    13913.776       17.925        4.494      517.843      108.618        0.044      343.527       19.699      863.903
04/19/2013  13:55:00     -417.090     -169.743        0.258      146.179      105.821       71.128    21368.175    11198.096     5059.258       12.019        1.881      450.307       69.680        0.024      343.534       19.709      863.920
04/19/2013  13:56:00     -399.505     -109.901      -33.208      156.123      156.185       72.286    24374.277    24393.834     5225.260       11.338        2.700      414.346       53.499        0.017      343.799       20.160      863.897
04/19/2013  13:57:00     -461.166     -140.012      -16.795      202.125      148.676       89.897    40854.646    22104.698     8081.417       15.179        3.552      481.951       96.212        0.040      343.435       19.541      863.889
04/19/2013  13:58:00     -448.933     -278.102       -0.587      194.769      186.003      106.180    37934.802    34597.236    11274.254       18.133        4.190      528.092      102.925        0.038      343.424       19.521      863.834
04/19/2013  13:59:00     -455.567     -272.314      -28.408      221.326      185.775      111.485    48985.003    34512.365    12428.920       18.919        4.796      530.751      104.650        0.039      343.465       19.592      863.818
04/19/2013  14:00:00     -573.409     -285.948      -28.877      329.685      247.974      116.293   108691.877    61491.117    13524.105       29.751        9.185      640.753      131.491        0.042      343.404       19.489      863.787
04/19/2013  14:01:00     -298.477     -151.270       11.835      337.561      185.460      113.071   113947.448    34395.458    12785.146       13.659        8.056      334.621      151.908        0.206      343.610       19.841      863.761
04/19/2013  14:02:00     -163.946      -91.088       19.571      148.837      141.395       80.197    22152.410    19992.425     6431.531        4.206        2.429      187.551       92.116        0.241      343.773       20.118      863.725
04/19/2013  14:03:00      -92.715       34.157       20.480       85.647       76.950       53.026     7335.465     5921.292     2811.728        1.312        0.803       98.806       45.291        0.210      344.356       21.116      863.728
04/19/2013  14:04:00     -307.207      -81.110      -10.181      169.620      142.501       84.318    28770.843    20306.570     7109.602        7.861        2.809      317.734       88.778        0.078      344.041       20.575      863.744
04/19/2013  14:05:00     -358.095       21.597      -14.417      187.544      196.963       88.505    35172.596    38794.463     7833.049       10.534        4.090      358.746       84.995        0.056      343.772       20.116      863.731
04/19/2013  14:06:00     -225.539     -135.460        4.593      156.115      121.886       74.067    24371.740    14856.268     5485.921        5.697        2.236      263.092       66.017        0.063      343.933       20.391      863.736
04/19/2013  14:07:00     -435.538      -97.693       -6.195      222.143      119.469       66.956    49347.398    14272.895     4483.136       13.368        3.405      446.360       72.437        0.026      343.991       20.489      863.702
04/19/2013  14:08:00     -289.541      -88.533        5.532      182.936      117.226       81.350    33465.501    13741.886     6617.761        7.275        2.691      302.774       91.648        0.092      344.374       21.143      863.721
04/19/2013  14:09:00     -362.457     -220.687       -7.192      305.746      223.309      110.552    93480.623    49866.913    12221.764       16.782        7.778      424.356      123.981        0.085      344.026       20.550      863.736
04/19/2013  14:10:00     -504.923       27.408      -34.871      185.056      161.553       95.538    34245.822    26099.253     9127.533       16.318        3.474      505.666       82.499        0.027      343.802       20.168      863.674
04/19/2013  14:11:00     -437.651     -121.412        2.636      183.884      209.373       97.723    33813.394    43837.081     9549.807       14.673        4.360      454.179       95.371        0.044      343.662       19.928      863.644
04/19/2013  14:12:00     -546.214     -220.337        3.184      315.926      340.173      138.468    99809.246   115717.971    19173.415       29.076       11.735      588.981      171.090        0.084      343.722       20.029      863.647
04/19/2013  14:13:00     -464.065      -53.208      -19.241      292.772      169.455       89.998    85715.700    28715.150     8099.642       17.052        6.127      467.105      118.399        0.064      343.631       19.876      863.607
04/19/2013  14:14:00     -150.971      -25.803       20.204      149.763       98.886       76.310    22428.966     9778.371     5823.232        3.094        1.902      153.160       88.297        0.332      344.115       20.703      863.516
04/19/2013  14:15:00     -536.069     -181.812      -42.145      214.433      218.094       93.211    45981.722    47565.054     8688.362       21.220        5.112      566.062       91.164        0.026      343.633       19.880      863.496
04/19/2013  14:16:00     -486.982      -71.666      -53.944      176.746      163.699       90.258    31239.067    26797.388     8146.540       15.568        3.309      492.227       68.652        0.019      343.704       20.000      863.427
04/19/2013  14:17:00     -465.861     -116.234      -38.603      167.311      150.216       84.696    27993.063    22564.816     7173.381       14.487        2.887      480.143       67.056        0.020      343.818       20.196      863.423
04/19/2013  14:18:00     -730.990     -185.147      -66.610      222.544      239.361      105.192    49525.833    57293.483    11065.369       34.545        5.894      754.073       99.776        0.018      343.743       20.066      863.436
04/19/2013  14:19:00     -442.072      -46.245      -13.558      407.565      215.170      127.839   166109.151    46297.945    16342.752       21.320       11.437      444.485      184.666        0.173      343.862       20.270      863.423
04/19/2013  14:20:00     -403.670     -110.951       -0.929      255.674      167.347       92.547    65369.268    28004.956     8564.893       13.858        5.097      418.640      115.262        0.076      343.891       20.319      863.508
04/19/2013  14:21:00     -327.920      -64.735       11.735      249.867      151.171       82.716    62433.403    22852.624     6841.984       10.198        4.606      334.249       96.761        0.084      343.984       20.478      863.467
04/19/2013  14:22:00     -608.147       18.690      -36.128      266.601      206.913      110.593    71075.963    42812.826    12230.777       24.878        6.306      608.435      116.222        0.036      343.764       20.104      863.433
04/19/2013  14:23:00     -532.443     -115.127      -12.563      264.879      184.468      118.266    70160.874    34028.331    13986.875       20.752        5.909      544.748      119.817        0.048      343.743       20.066      863.379
04/19/2013  14:24:00     -626.757     -139.277      -23.326      330.753      248.010      126.365   109397.253    61508.878    15968.116       29.978        9.344      642.046      121.021        0.036      343.776       20.121      863.385
04/19/2013  14:25:00     -412.243      -92.009       13.963      338.509      184.589      117.642   114588.072    34073.276    13839.575       17.052        8.125      422.386      155.638        0.136      344.098       20.672      863.472
04/19/2013  14:26:00     -154.358      -86.443       58.219      244.717      190.469      121.339    59886.393    36278.467    14723.128        7.277        5.544      176.915      142.913        0.653      343.991       20.491      863.449
04/19/2013  14:27:00     -301.220     -199.749       -1.626      215.882      173.896      111.960    46605.119    30239.939    12534.994       10.999        4.469      361.432      122.605        0.115      343.937       20.398      863.450
04/19/2013  14:28:00     -281.800     -232.862       17.022      208.297      150.653       93.468    43387.639    22696.231     8736.321       10.436        3.741      365.563      106.550        0.085      344.020       20.539      863.475
04/19/2013  14:29:00     -347.523     -136.945        6.758      201.261      163.337       87.089    40505.835    26679.048     7584.559       10.716        3.738      373.532      111.858        0.090      344.141       20.745      863.453
04/19/2013  14:30:00     -318.689     -131.194        1.806      240.720      187.581      100.653    57946.111    35186.686    10131.002       11.100        5.163      344.637      115.182        0.112      343.920       20.369      863.437
04/19/2013  14:31:00     -347.364      -47.466      -21.852      194.447      135.719       85.007    37809.785    18419.526     7226.191        9.341        3.173      350.592       87.970        0.063      344.051       20.593      863.409
04/19/2013  14:32:00     -408.186        5.451      -50.495      259.121      173.827      110.007    67143.556    30215.772    12101.454       13.931        5.473      408.222      122.149        0.090      343.832       20.219      863.320
04/19/2013  14:33:00     -222.522      -83.207        1.504      175.966      152.139       85.055    30963.967    23146.163     7234.316        5.888        3.067      237.570       82.717        0.121      344.094       20.666      863.320
04/19/2013  14:34:00     -366.272     -184.869       13.480      270.292      197.338       91.312    73057.820    38942.141     8337.945       14.440        6.017      410.282      126.575        0.095      344.070       20.627      863.380
04/19/2013  14:35:00     -501.308     -305.311      -10.837      290.435      177.615      117.476    84352.236    31546.981    13800.523       23.714        6.485      586.962      129.342        0.049      343.635       19.881      863.434
04/19/2013  14:36:00     -470.674     -198.124      -22.138      183.208      153.768       84.097    33565.057    23644.517     7072.295       16.277        3.214      510.673       82.947        0.026      343.561       19.756      863.439
04/19/2013  14:37:00     -536.662       15.397      -36.204      175.484      169.207       91.411    30794.806    28630.906     8355.882       17.865        3.389      536.883       90.472        0.028      343.610       19.840      863.421
04/19/2013  14:38:00     -589.101      -92.569      -32.343      282.972      242.482      110.384    80073.379    58797.575    12184.705       25.382        7.553      596.330      133.799        0.050      343.806       20.175      863.369
04/19/2013  14:39:00     -566.310        6.770      -30.517      198.407      177.236       96.411    39365.271    31412.662     9295.121       20.086        4.004      566.350       93.560        0.027      343.916       20.361      863.352
04/19/2013  14:40:00     -621.872     -153.732      -15.115      267.455      193.380      104.839    71531.929    37395.845    10991.307       26.523        5.996      640.592      118.014        0.034      343.755       20.087      863.386
04/19/2013  14:41:00     -484.955      -56.931       -8.669      219.432      192.698       87.824    48150.245    37132.579     7713.001       16.573        4.650      488.285      103.359        0.045      343.767       20.108      863.382
04/19/2013  14:42:00     -406.096      -71.577       -7.820      130.631      122.852       75.744    17064.410    15092.496     5737.167       10.399        1.895      412.356       58.656        0.020      343.561       19.757      863.350
04/19/2013  14:43:00     -449.793     -130.901      -32.765      201.712      216.476      119.721    40687.568    46861.661    14333.019       16.118        5.094      468.454      112.485        0.058      343.858       20.262      863.339
04/19/2013  14:44:00     -716.981     -269.464      -27.231      267.561      174.155      112.075    71588.880    30329.969    12560.787       35.092        5.724      765.946      107.921        0.020      343.609       19.839      863.352
04/19/2013  14:45:00     -390.283      -60.859      -28.099      188.292      206.570       92.918    35453.960    42671.212     8633.679       12.177        4.338      395.000       94.810        0.058      343.639       19.889      863.393
04/19/2013  14:46:00     -181.920      -44.427       -0.094      253.338      154.095       96.211    64180.067    23745.368     9256.615        6.611        4.859      187.267      102.804        0.301      343.672       19.945      863.275
04/19/2013  14:47:00     -211.939       81.467      -11.556      120.665      128.036       91.855    14559.928    16393.277     8437.278        4.553        1.970      227.058       65.671        0.084      343.915       20.361      863.310
04/19/2013  14:48:00     -197.617       57.688      -13.632      158.253      134.214       91.030    25044.058    18013.322     8286.373        4.694        2.567      205.865       78.464        0.145      344.041       20.576      863.279
04/19/2013  14:49:00     -272.312       -8.552      -20.591      187.816      134.886       90.010    35274.779    18194.250     8101.717        6.810        3.079      272.446       88.989        0.107      343.742       20.064      863.234
04/19/2013  14:50:00     -305.542      -70.216       -3.778      238.487      205.678      109.659    56876.165    42303.614    12025.140       10.473        5.560      313.506      121.963        0.151      343.791       20.149      863.196
04/19/2013  14:51:00     -385.069      -50.720      -22.199      164.178       92.313       71.555    26954.418     8521.679     5120.181        9.596        2.030      388.395       76.540        0.039      343.602       19.826      863.250
04/19/2013  14:52:00     -138.132        7.471       -5.878      117.333       86.207       58.128    13766.992     7431.606     3378.825        2.187        1.229      138.334       52.902        0.146      343.954       20.429      863.196
04/19/2013  14:53:00      -99.948       11.086       11.833       81.404       75.898       51.001     6626.645     5760.436     2601.094        1.262        0.749      100.561       44.266        0.194      344.147       20.759      863.163
04/19/2013  14:54:00     -339.268       23.168      -30.138      258.810       78.502       68.598    66982.629     6162.616     4705.647        9.718        3.893      340.058       96.797        0.081      344.286       20.994      863.160
04/19/2013  14:55:00     -454.830      -31.299      -21.976      252.747      160.213       87.954    63880.986    25668.210     7735.972       15.279        4.864      455.906      118.268        0.067      344.095       20.668      863.142
04/19/2013  14:56:00     -420.578       17.648       -3.398      372.271      169.852      112.934   138585.957    28849.733    12754.038       17.866        9.009      420.948      161.894        0.148      344.050       20.591      863.135
04/19/2013  14:57:00     -651.818     -255.692      -39.416      336.588      264.555      141.274   113291.391    69989.123    19958.306       34.748       10.162      700.175      145.978        0.043      343.554       19.744      863.094
04/19/2013  14:58:00     -735.843     -219.181      -17.465      384.169      260.397      138.578   147585.923    67806.479    19203.984       41.216       11.730      767.792      172.254        0.050      343.594       19.812      863.082
04/19/2013  14:59:00     -635.565     -122.204      -11.802      261.878      278.010      100.218    68579.964    77289.744    10043.694       28.743        7.796      647.207       94.623        0.021      343.683       19.962      863.115
04/19/2013  15:00:00     -476.162      -77.530      -25.830      293.722      160.180      100.192    86272.557    25657.723    10038.467       17.766        6.098      482.432      139.193        0.083      343.985       20.480      863.163
04/19/2013  15:01:00     -284.418      -27.568       -3.220      238.983      114.351       76.809    57112.733    13076.161     5899.629        7.886        3.804      285.751      104.121        0.133      344.136       20.738      863.185
04/19/2013  15:02:00     -468.749      -13.506      -38.071      254.614      166.853       96.409    64828.155    27839.868     9294.638       16.164        5.098      468.943      122.665        0.068      343.750       20.079      863.160
04/19/2013  15:03:00     -484.739      -70.170      -22.277      243.075      159.593       95.133    59085.450    25469.781     9050.247       16.698        4.680      489.791      105.982        0.047      343.544       19.727      863.144
04/19/2013  15:04:00     -489.109       40.952      -54.174      209.894      130.868       82.988    44055.661    17126.323     6886.935       15.594        3.403      490.820      104.205        0.045      343.565       19.762      863.138
04/19/2013  15:05:00     -393.394      -86.228      -52.635      262.367      186.204       79.823    68836.577    34671.878     6371.703       13.740        5.494      402.733       84.630        0.044      343.836       20.226      863.109
04/19/2013  15:06:00     -397.628     -158.263        3.199      251.254      176.701       88.650    63128.523    31223.223     7858.869       14.267        5.111      427.966      106.275        0.062      343.956       20.431      863.150
04/19/2013  15:07:00     -654.906      -71.204      -64.661      278.253      222.277       86.160    77424.882    49407.257     7423.612       28.618        6.713      658.765       95.932        0.021      343.576       19.781      863.070
04/19/2013  15:08:00     -369.887      -77.808      -34.872      196.405      190.433       87.461    38574.798    36264.742     7649.374       11.327        4.124      377.982       62.530        0.027      343.886       20.311      863.072
04/19/2013  15:09:00     -444.353      -34.446      -35.219      182.899      157.914       86.269    33452.076    24936.967     7442.422       13.284        3.292      445.686       90.029        0.041      343.760       20.096      863.089
04/19/2013  15:10:00     -251.885       90.860      -16.197      100.274      134.462       66.061    10054.856    18079.991     4364.086        5.222        1.625      267.772       46.786        0.031      343.661       19.927      863.011
04/19/2013  15:11:00     -294.386       19.038      -33.081      181.095      211.253       87.564    32795.449    44627.754     7667.535        8.659        4.255      295.001       85.973        0.085      343.495       19.643      862.984
04/19/2013  15:12:00     -257.315      -78.336      -10.448      204.871      129.713       64.879    41971.993    16825.589     4209.329        6.772        3.150      268.975       69.583        0.067      343.621       19.858      862.969
04/19/2013  15:13:00     -422.816      -25.065      -23.639      187.884      114.580       73.672    35300.346    13128.583     5427.614       11.690        2.693      423.558       70.917        0.028      343.629       19.873      862.967
04/19/2013  15:14:00     -164.144     -109.433       26.019      215.735      187.435       90.002    46541.580    35131.699     8100.383        6.467        4.489      197.279      117.772        0.356      343.800       20.166      862.941
04/19/2013  15:15:00     -485.105     -120.301      -15.158      246.261      202.423      107.150    60644.545    40975.164    11481.093       18.154        5.655      499.799      115.897        0.054      343.500       19.651      862.960
04/19/2013  15:16:00     -497.077      -99.085       -7.794      297.879      193.517      106.937    88731.829    37448.965    11435.515       19.726        6.881      506.857      117.360        0.054      343.437       19.545      862.930
04/19/2013  15:17:00     -543.317     -138.668      -22.465      232.676      217.643      115.319    54138.004    47368.685    13298.456       21.484        5.740      560.733      115.481        0.042      343.381       19.449      862.871
04/19/2013  15:18:00     -547.933     -113.780       -8.273      209.244      177.180       97.199    43782.901    31392.627     9447.565       19.892        4.231      559.622      108.578        0.038      343.470       19.601      862.856
04/19/2013  15:19:00     -525.710     -112.622      -33.040      198.974      224.424       97.783    39590.538    50366.151     9561.471       19.481        4.976      537.638      110.124        0.042      343.407       19.494      862.919
04/19/2013  15:20:00     -387.796      -93.285      -48.527      219.573      147.425       83.083    48212.272    21734.027     6902.770       11.913        3.842      398.858       75.184        0.036      343.417       19.510      862.864
04/19/2013  15:21:00     -340.430      -52.827      -24.076      184.914      173.189       87.021    34193.269    29994.543     7572.656        9.550        3.588      344.505       79.379        0.053      343.513       19.674      862.870
04/19/2013  15:22:00     -184.087        0.653       -1.050      132.316      112.362       51.226    17507.633    12625.216     2624.064        3.332        1.638      184.088       55.327        0.090      343.842       20.237      862.874
04/19/2013  15:23:00     -277.674     -111.116      -11.421      215.802      132.482       88.182    46570.631    17551.395     7776.126        8.072        3.595      299.081      111.485        0.139      343.592       19.811      862.868
04/19/2013  15:24:00     -444.814      -80.399      -13.600      178.547      138.342       84.528    31878.918    19138.379     7144.986       13.132        2.908      452.022       85.282        0.036      343.384       19.454      862.851
04/19/2013  15:25:00     -453.916      -91.567      -15.313      218.033      177.072       88.734    47538.604    31354.607     7873.654       15.070        4.338      463.060       90.127        0.038      343.463       19.589      862.872
04/19/2013  15:26:00     -660.328     -125.390      -22.216      232.731      229.729       98.825    54163.892    52775.518     9766.330       28.445        5.835      672.128       98.621        0.022      343.421       19.516      862.804
04/19/2013  15:27:00     -310.625      -26.767      -17.704      205.179      187.362       80.289    42098.570    35104.474     6446.277        9.057        4.182      311.777       86.042        0.076      343.652       19.912      862.817
04/19/2013  15:28:00     -324.964      -92.546      -25.527      199.295      158.526       71.974    39718.476    25130.439     5180.302        9.241        3.501      337.885       71.586        0.045      343.807       20.176      862.760
04/19/2013  15:29:00     -569.294     -165.840      -28.610      194.543      206.296      103.046    37846.899    42558.152    10618.505       22.170        4.551      592.957       96.351        0.026      343.699       19.991      862.682
04/19/2013  15:30:00     -483.615     -249.414       -5.063      236.360      170.262      106.248    55866.134    28989.294    11288.593       19.611        4.807      544.142      116.325        0.046      343.819       20.195      862.707
04/19/2013  15:31:00     -512.078      -54.630      -28.935      218.698      183.840      101.932    47828.677    33797.304    10390.052       17.901        4.601      514.984      110.707        0.046      343.812       20.184      862.713
04/19/2013  15:32:00     -280.365      -38.550       10.897      270.397      179.024       98.892    73114.650    32049.689     9779.668        9.755        5.747      283.003      120.001        0.180      343.837       20.229      862.660
04/19/2013  15:33:00     -319.004      -97.550      -27.872      172.346      167.910       81.490    29702.980    28193.699     6640.595        8.828        3.227      333.586       71.612        0.046      343.877       20.294      862.676
04/19/2013  15:34:00     -469.728     -120.081      -42.790      216.191      186.822       95.850    46738.624    34902.365     9187.143       16.384        4.541      484.834       89.263        0.034      343.603       19.827      862.678
04/19/2013  15:35:00     -192.245      125.120      -40.925      116.340      200.102       73.396    13535.048    40040.736     5386.917        5.661        2.948      229.376       56.371        0.060      343.693       19.982      862.625
04/19/2013  15:36:00     -211.311      105.138      -31.944      104.862      137.855       65.691    10996.095    19003.889     4315.287        4.551        1.716      236.021       64.699        0.075      343.424       19.524      862.575
04/19/2013  15:37:00     -115.203      -35.912      -35.251      104.175      102.911       58.498    10852.501    10590.652     3422.004        2.033        1.243      120.671       51.935        0.185      343.504       19.660      862.529
04/19/2013  15:38:00     -209.872      -98.358        6.982      171.026      104.937       60.116    29249.844    11011.704     3613.899        4.881        2.194      231.777       63.400        0.075      343.840       20.233      862.555
04/19/2013  15:39:00     -211.487      -30.642       18.980      147.300      124.756       66.017    21697.258    15564.164     4358.250        4.381        2.081      213.696       72.629        0.116      344.154       20.770      862.581
04/19/2013  15:40:00     -286.664        4.550      -15.476      185.290      138.162       84.617    34332.211    19088.839     7160.003        7.150        3.029      286.700       74.634        0.068      344.102       20.678      862.598
04/19/2013  15:41:00     -344.699      -62.285       -3.262      177.263      136.035       93.110    31422.237    18505.472     8669.465        9.064        2.930      350.282       91.941        0.069      343.806       20.174      862.560
04/19/2013  15:42:00     -378.259     -113.207      -19.993      157.000      112.594       57.687    24649.140    12677.303     3327.764        9.847        2.033      394.836       55.729        0.020      343.745       20.069      862.548
04/19/2013  15:43:00     -244.755      -24.488       -3.060      139.840       80.453       57.821    19555.341     6472.696     3343.278        4.494        1.469      245.977       61.618        0.063      343.964       20.443      862.544
04/19/2013  15:44:00     -509.529     -211.971      -21.340      260.129      178.661       96.316    67667.355    31919.648     9276.745       20.691        5.443      551.861      111.829        0.041      343.866       20.276      862.495
04/19/2013  15:45:00     -535.085      -77.655       -2.223      210.962      140.256       98.990    44504.899    19671.606     9798.941       18.315        3.699      540.691      115.774        0.046      343.651       19.910      862.559
04/19/2013  15:46:00     -305.696     -157.572        0.036      158.759      104.198       63.021    25204.286    10857.303     3971.657        7.915        2.002      343.917       75.442        0.048      343.502       19.656      862.549
04/19/2013  15:47:00     -157.192      -84.850       -1.621      127.217      124.748       57.931    16184.090    15562.096     3355.948        3.350        1.755      178.630       53.683        0.090      343.933       20.392      862.534
04/19/2013  15:48:00     -325.575     -144.172      -15.442      169.416      118.411       77.113    28701.832    14021.215     5946.382        8.784        2.433      356.068       78.883        0.049      343.881       20.303      862.515
04/19/2013  15:49:00     -167.543      -54.677       38.818      259.540      211.485       88.370    67360.880    44726.006     7809.216        7.621        5.995      176.240      122.033        0.479      344.122       20.714      862.507
04/19/2013  15:50:00     -557.425       44.647      -57.343      230.462      177.474       89.640    53112.698    31496.958     8035.405       20.431        4.632      559.210       98.366        0.031      344.250       20.933      862.523
04/19/2013  15:51:00     -439.526     -145.268       -6.639      189.689      177.239       98.521    35981.892    31413.579     9706.334       14.570        3.855      462.910      101.916        0.048      344.141       20.747      862.558
04/19/2013  15:52:00     -135.625      -74.442       27.186      179.923      121.667       83.161    32372.210    14802.903     6915.677        3.937        2.705      154.712       86.488        0.313      344.110       20.694      862.519
04/19/2013  15:53:00     -356.343      -52.650       -5.322      224.047      130.157       89.481    50197.265    16940.933     8006.932       10.245        3.757      360.212       98.834        0.075      344.049       20.590      862.496
04/19/2013  15:54:00     -601.547       24.416      -63.922      261.457      161.515      100.073    68359.974    26086.948    10014.558       23.548        5.223      602.042      134.165        0.050      343.703       19.998      862.517
04/19/2013  15:55:00     -467.363     -156.533      -26.410      202.570      159.725       90.669    41034.494    25512.071     8220.824       15.919        3.738      492.880       86.445        0.031      343.774       20.118      862.537
04/19/2013  15:56:00     -327.993      -36.306      -10.589      188.294      110.398       67.786    35454.471    12187.799     4594.916        8.061        2.612      329.996       63.332        0.037      343.977       20.467      862.562
04/19/2013  15:57:00     -258.175      -47.552        1.465      185.868      149.423       73.833    34546.808    22327.281     5451.375        6.561        3.116      262.518       84.035        0.102      343.871       20.284      862.553
04/19/2013  15:58:00     -331.281       90.579      -14.327      151.778      108.273       64.525    23036.696    11723.031     4163.523        7.853        1.946      343.441       67.279        0.038      343.521       19.688      862.546
04/19/2013  15:59:00     -339.052      -99.576      -26.895      138.559      110.062       67.522    19198.590    12113.735     4559.192        8.073        1.794      353.371       67.543        0.037      343.851       20.250      862.512
04/19/2013  16:00:00     -166.049        6.395      -20.765       80.755       62.762       48.148     6521.308     3939.067     2318.224        2.041        0.639      166.172       22.704        0.019      343.905       20.344      862.505
04/19/2013  16:01:00     -194.759      -35.086       -4.212      103.170       68.250       55.626    10644.136     4658.061     3094.265        2.879        0.920      197.894       53.583        0.073      344.090       20.659      862.504
04/19/2013  16:02:00     -221.170      -40.714      -38.109      159.020      104.220       60.903    25287.476    10861.847     3709.148        4.594        1.993      224.886       49.785        0.049      343.905       20.344      862.486
04/19/2013  16:03:00     -175.203      -59.945       -1.082      129.775       87.359       60.040    16841.508     7631.639     3604.765        3.118        1.404      185.174       64.765        0.122      344.008       20.519      862.474
04/19/2013  16:04:00     -148.803      -14.854       -0.756      139.292      120.299       64.479    19402.219    14471.921     4157.507        3.019        1.902      149.542       66.759        0.199      344.183       20.821      862.473
04/19/2013  16:05:00     -331.912     -111.723       -0.829      192.617      123.939       92.788    37101.279    15360.776     8609.646        9.185        3.054      350.211       98.482        0.079      344.126       20.721      862.469
04/19/2013  16:06:00     -355.568     -313.124        9.553      287.895      240.932      131.942    82883.635    58048.254    17408.653       19.143        7.917      473.788      142.311        0.090      343.785       20.138      862.519
04/19/2013  16:07:00     -258.976     -124.758       -8.120      151.976      137.903       79.119    23096.773    19017.304     6259.860        6.553        2.419      287.459       82.240        0.082      343.710       20.011      862.476
04/19/2013  16:08:00     -394.276       52.263      -22.914      229.281      133.096       76.452    52569.783    17714.604     5844.943       11.741        3.806      397.724      101.008        0.064      343.843       20.237      862.455
04/19/2013  16:09:00     -342.050     -142.639       -6.256      189.223      167.235       85.304    35805.251    27967.636     7276.777       10.420        3.552      370.600       96.010        0.067      343.990       20.487      862.481
04/19/2013  16:10:00     -518.397     -199.620      -16.799      191.194      156.075      109.021    36555.219    24359.332    11885.670       19.082        3.640      555.503      107.866        0.038      343.838       20.228      862.454
04/19/2013  16:11:00     -441.303     -189.870      -14.122      202.999      200.547      100.285    41208.679    40219.017    10057.174       16.123        4.574      480.415       77.631        0.026      343.889       20.315      862.447
04/19/2013  16:12:00     -609.720     -160.686      -14.760      195.792      172.365       94.841    38334.542    29709.816     8994.753       23.740        3.852      630.538       94.968        0.023      343.576       19.781      862.490
04/19/2013  16:13:00     -368.734     -106.534        1.186      193.660      159.329       87.312    37504.023    25385.591     7623.469       10.890        3.526      383.815       91.125        0.056      343.853       20.255      862.504
04/19/2013  16:14:00     -597.948     -162.989      -46.109      254.949      211.499      102.192    64999.192    44732.008    10443.267       25.318        6.009      619.764      107.254        0.030      343.798       20.161      862.426
04/19/2013  16:15:00     -345.765     -131.613       19.571      184.988      153.036       96.988    34220.720    23419.911     9406.720       10.214        3.352      369.967      103.800        0.079      343.909       20.351      862.464
04/19/2013  16:16:00     -358.690       55.258      -23.714      170.415      159.806       77.089    29041.408    25537.868     5942.719        9.639        3.026      362.922       83.789        0.053      343.951       20.421      862.457
04/19/2013  16:17:00     -308.580       30.730      -18.560      157.632      129.679       76.341    24847.844    16816.535     5827.940        7.199        2.375      310.107       59.770        0.037      344.190       20.831      862.462
04/19/2013  16:18:00     -582.862       -4.823      -76.491      165.120      132.645       86.793    27264.598    17594.607     7533.014       19.899        2.620      582.882       84.895        0.021      343.724       20.034      862.448
04/19/2013  16:19:00     -629.782     -132.081      -40.349      231.096      181.312       94.751    53405.293    32874.194     8977.758       25.546        4.763      643.483       93.784        0.021      343.840       20.233      862.365
04/19/2013  16:20:00     -727.631       10.205      -64.039      233.749      188.434      109.795    54638.434    35507.473    12055.002       31.791        5.110      727.702      115.152        0.025      343.874       20.290      862.400
04/19/2013  16:21:00     -621.908     -139.905      -15.936      257.049      226.138      112.064    66074.242    51138.496    12558.440       26.816        6.489      637.450      121.997        0.037      343.851       20.251      862.411
04/19/2013  16:22:00     -563.077     -217.790        2.264      356.876      177.198      107.383   127360.539    31399.289    11531.119       26.736        8.515      603.728      136.384        0.051      343.757       20.090      862.428
04/19/2013  16:23:00     -395.029       -0.357      -20.050      197.842      145.089       85.362    39141.333    21050.781     7286.744       11.195        3.374      395.030      100.889        0.065      344.033       20.562      862.456
04/19/2013  16:24:00     -513.420      -77.095      -10.026      235.540      160.263       93.559    55478.977    25684.348     8753.299       17.977        4.496      519.176      116.974        0.051      343.885       20.309      862.474
04/19/2013  16:25:00     -498.203        2.709      -32.983      186.950      128.980       92.758    34950.224    16635.796     8604.111       15.474        3.010      498.211       96.483        0.038      343.932       20.388      862.478
04/19/2013  16:26:00     -539.136       37.491      -66.204      192.358      138.381       80.028    37001.444    19149.187     6404.477       17.949        3.128      540.438       81.605        0.023      343.877       20.296      862.481
04/19/2013  16:27:00     -435.732     -107.335      -18.753      180.851      147.459       91.090    32706.926    21744.233     8297.430       13.223        3.137      448.758       82.937        0.034      344.138       20.741      862.469
04/19/2013  16:28:00     -486.567       47.523      -58.453      175.675      148.079       74.091    30861.731    21927.329     5489.431       15.034        2.914      488.882       76.072        0.024      343.807       20.176      862.527
04/19/2013  16:29:00     -422.969      -79.952      -45.602      173.150      148.051       71.126    29980.784    21919.054     5058.942       12.216        2.848      430.460       43.126        0.010      343.588       19.802      862.495
04/19/2013  16:30:00     -192.019      -87.133        9.457      141.946      101.865       60.508    20148.712    10376.378     3661.222        3.936        1.709      210.864       70.349        0.111      343.800       20.164      862.501
04/19/2013  16:31:00     -179.592      -58.166        2.578      184.623       95.823       51.806    34085.544     9181.969     2683.853        4.079        2.298      188.777       63.813        0.114      343.845       20.241      862.448
04/19/2013  16:32:00     -240.053       -5.911      -17.714      191.324      120.488       58.947    36604.892    14517.367     3474.724        5.628        2.730      240.125       82.155        0.117      343.687       19.972      862.419
04/19/2013  16:33:00     -189.838      -25.920        5.943      167.118       96.291       71.355    27928.286     9272.039     5091.529        3.951        2.115      191.599       68.043        0.126      343.923       20.375      862.410
04/19/2013  16:34:00     -210.244      -48.190       -5.903      133.423      169.462       75.014    17801.566    28717.349     5627.167        4.934        2.607      215.696       71.606        0.110      343.852       20.253      862.378
04/19/2013  16:35:00     -328.315     -295.928        5.914      208.999      204.875      117.445    43680.632    41973.890    13793.439       14.741        4.972      442.000      119.563        0.073      343.637       19.885      862.388
04/19/2013  16:36:00     -415.036     -223.217      -15.034      242.616      212.460      107.103    58862.601    45139.450    11471.146       16.887        5.774      471.255      121.706        0.067      343.528       19.700      862.342
04/19/2013  16:37:00     -342.353      -37.340        5.273      300.804      137.073       98.472    90483.232    18789.142     9696.713       11.878        5.948      344.383      135.252        0.154      343.781       20.132      862.229
04/19/2013  16:38:00     -357.448     -166.875       -2.267      286.404      245.862      124.764    82026.967    60448.029    15565.939       15.680        7.902      394.482      151.516        0.148      343.925       20.377      862.319
04/19/2013  16:39:00     -503.646      -35.491      -29.534      241.892      195.287      101.028    58511.630    38136.934    10206.748       18.131        5.343      504.895       85.106        0.028      343.793       20.152      862.294
04/19/2013  16:40:00     -607.663      -61.413      -36.163      251.072      228.977      112.729    63036.928    52430.510    12707.851       25.123        6.409      610.758      105.214        0.030      343.876       20.292      862.299
04/19/2013  16:41:00     -764.829     -125.044      -55.375      298.916      187.543      114.027    89350.735    35172.342    13002.263       37.057        6.876      774.983      131.661        0.029      343.510       19.669      862.329
04/19/2013  16:42:00     -450.736     -162.491      -15.754      214.056      163.245      105.838    45820.134    26648.945    11201.773       15.673        4.184      479.131      107.613        0.050      343.553       19.743      862.332
04/19/2013  16:43:00     -242.902      167.829      -20.677      170.484      222.313      113.357    29064.650    49423.280    12849.866        8.945        4.567      295.242       99.834        0.114      343.645       19.900      862.374
04/19/2013  16:44:00     -203.642      118.580       -4.187      156.097      172.563       84.013    24366.135    29777.984     7058.220        5.837        3.060      235.651       56.936        0.058      343.760       20.095      862.366
04/19/2013  16:45:00     -238.599      107.201      -31.265      168.106      169.830       74.463    28259.469    28842.203     5544.715        6.601        3.132      261.575       74.272        0.081      343.681       19.962      862.352
04/19/2013  16:46:00     -369.904       16.906      -26.106      172.958      235.221       83.997    29914.424    55328.922     7055.415       11.503        4.615      370.290       76.864        0.043      343.730       20.044      862.302
04/19/2013  16:47:00     -471.473      -94.859      -31.908      206.425      205.805       66.202    42611.108    42355.571     4382.766       16.081        4.467      480.921       53.771        0.013      343.718       20.025      862.338
04/19/2013  16:48:00     -452.361      -79.720      -13.965      232.747      167.702       92.054    54171.151    28123.879     8473.878       15.096        4.538      459.332      101.232        0.049      343.534       19.711      862.354
04/19/2013  16:49:00     -364.530      -76.104       -4.916      185.253      116.325       82.599    34318.847    13531.430     6822.659        9.668        2.734      372.390       88.785        0.057      343.716       20.019      862.344
04/19/2013  16:50:00     -498.003      -35.061      -17.073      212.951      149.231       92.833    45348.068    22269.840     8618.027       16.287        3.812      499.236       92.639        0.034      343.606       19.833      862.318
04/19/2013  16:51:00     -497.502     -137.439       -0.446      275.448      162.563       85.689    75871.483    26426.736     7342.560       18.800        5.482      516.137       93.324        0.033      343.694       19.982      862.289
04/19/2013  16:52:00     -418.511     -223.403      -35.438      291.532      217.865      115.159    84990.957    47465.339    13261.486       18.599        7.286      474.405      128.614        0.073      343.664       19.932      862.296
04/19/2013  16:53:00     -459.683       73.529      -18.231      301.296      150.547      110.383    90779.031    22664.472    12184.374       17.132        6.281      465.527      145.326        0.097      343.846       20.241      862.344
04/19/2013  16:54:00     -412.011     -138.557       -8.153      215.340      162.591       72.977    46371.470    26435.950     5325.663       13.356        3.907      434.685       67.772        0.024      343.908       20.348      862.333
04/19/2013  16:55:00     -312.260      -53.120      -12.450      216.883      173.595       80.291    47038.058    30135.125     6446.577        9.204        4.181      316.746       97.027        0.094      343.875       20.293      862.343
04/19/2013  16:56:00     -384.838      -87.129      -14.357      235.966      210.958       77.178    55679.941    44503.480     5956.456       13.100        5.307      394.578       82.575        0.044      343.870       20.284      862.345
04/19/2013  16:57:00     -650.521      -85.328      -46.827      198.697      219.188       93.821    39480.550    48043.254     8802.470       26.447        4.816      656.093       91.771        0.020      343.556       19.747      862.373
04/19/2013  16:58:00     -408.121     -137.304        7.376      296.328      181.713       93.395    87810.130    33019.463     8722.575       15.749        6.478      430.599      108.088        0.063      343.527       19.699      862.361
04/19/2013  16:59:00     -463.602      -54.233      -27.083      239.301      163.141       95.800    57264.820    26615.097     9177.615       15.581        4.653      466.763      109.371        0.055      343.627       19.869      862.337
04/19/2013  17:00:00     -130.056      -30.831        2.787      177.140      105.805       72.776    31378.753    11194.618     5296.393        3.286        2.393      133.660       67.561        0.255      343.755       20.088      862.368
04/19/2013  17:01:00     -184.729     -102.753       18.718      162.085      158.703       76.665    26271.645    25186.746     5877.540        5.118        2.867      211.384       89.672        0.180      343.785       20.139      862.369
04/19/2013  17:02:00     -294.517      -79.072       11.448      217.632      151.655       89.560    47363.557    22999.213     8021.036        8.574        3.919      304.947       98.867        0.105      343.577       19.784      862.340
04/19/2013  17:03:00     -176.780      -81.425       36.611      269.007      189.423      104.401    72364.841    35880.916    10899.532        7.916        5.957      194.631      136.700        0.493      343.598       19.819      862.306
04/19/2013  17:04:00     -237.813       32.082        3.687      279.439      123.038       82.107    78086.141    15138.400     6741.553        7.877        4.998      239.968      130.243        0.295      343.752       20.083      862.302
04/19/2013  17:05:00     -524.700     -163.675      -12.521      202.005      210.984       99.361    40805.892    44514.203     9872.527       19.871        4.760      549.636       97.518        0.031      343.670       19.942      862.326
04/19/2013  17:06:00     -416.161     -102.081      -27.187      196.792      162.657       83.837    38727.124    26457.367     7028.644       12.827        3.611      428.498       88.630        0.043      343.544       19.727      862.287
04/19/2013  17:07:00     -395.467      -34.336      -24.807      164.310      142.964       88.671    26997.841    20438.587     7862.592       10.673        2.765      396.954       77.144        0.038      343.632       19.877      862.237
04/19/2013  17:08:00     -536.498     -115.463      -36.298      161.408      180.758       85.021    26052.648    32673.348     7228.572       18.421        3.298      548.782       57.026        0.011      343.640       19.890      862.236
04/19/2013  17:09:00     -513.747     -102.697      -24.139      218.464      185.141      109.380    47726.731    34277.185    11963.954       18.450        4.698      523.911      108.340        0.043      343.629       19.871      862.191
04/19/2013  17:10:00     -363.761      -64.943        1.500      213.312      144.239       95.917    45502.134    20804.826     9199.982       10.601        3.775      369.513      110.064        0.089      343.688       19.975      862.308
04/19/2013  17:11:00     -493.567      -95.087      -23.521      235.951      190.245      102.856    55672.975    36193.104    10579.274       17.781        5.122      502.643      121.900        0.059      343.618       19.853      862.320
04/19/2013  17:12:00     -542.963     -245.807      -12.811      207.596      151.219       93.274    43095.902    22867.240     8700.050       21.502        3.733      596.012       96.568        0.026      343.520       19.685      862.309
04/19/2013  17:13:00     -405.647     -138.917        3.310      198.092      183.265       83.592    39240.271    33586.230     6987.682       13.182        3.991      428.774       83.440        0.038      343.658       19.921      862.365
04/19/2013  17:14:00     -392.996     -149.356        1.672      269.474      288.565      119.811    72616.069    83270.047    14354.706       17.347        8.512      420.420      124.832        0.088      343.477       19.613      862.364
04/19/2013  17:15:00     -556.893     -115.749      -45.712      241.300      153.372       94.645    58225.655    23522.854     8957.599       20.815        4.535      568.795      113.120        0.040      343.411       19.501      862.357
04/19/2013  17:16:00     -375.714     -210.453        6.736      241.943      171.656       96.820    58536.368    29465.732     9374.043       14.142        4.869      430.641      103.346        0.058      343.432       19.536      862.354
04/19/2013  17:17:00     -310.320     -124.019       -5.663      192.297      183.729      100.628    36978.323    33756.310    10126.082        9.627        4.043      334.184       95.502        0.082      343.460       19.584      862.344
04/19/2013  17:18:00     -264.140     -263.231       -4.353      182.639      148.614      106.893    33357.064    22086.261    11426.184       10.296        3.343      372.908      112.474        0.091      343.442       19.553      862.364
04/19/2013  17:19:00     -465.076     -163.075        7.760      246.496      166.927       95.443    60760.269    27864.482     9109.431       17.033        4.887      492.838       99.950        0.041      343.552       19.740      862.312
04/19/2013  17:20:00     -297.248     -111.551       18.965      253.085      215.632      105.909    64051.824    46497.233    11216.702       11.144        6.088      317.490      125.630        0.157      343.611       19.842      862.351
04/19/2013  17:21:00     -329.877      -60.183      -21.481      235.482      177.315      120.964    55451.919    31440.538    14632.333       10.720        5.076      335.322       97.986        0.085      343.661       19.927      862.328
04/19/2013  17:22:00     -253.432      -53.653       15.583      231.110      139.952       77.443    53411.901    19586.548     5997.486        7.316        3.950      259.049       87.197        0.113      343.638       19.888      862.346
04/19/2013  17:23:00     -149.518      -59.903       22.260      180.519      144.094       88.680    32587.236    20763.133     7864.174        4.382        3.061      161.072       78.122        0.235      343.634       19.881      862.316
04/19/2013  17:24:00     -392.573     -123.264      -21.745      255.291      152.611       84.946    65173.642    23290.074     7215.907       13.271        4.784      411.470       90.761        0.049      343.331       19.363      862.314
04/19/2013  17:25:00     -318.547       69.053      -14.931      164.030      132.071       76.124    26905.749    17442.863     5794.806        7.829        2.507      325.945       71.238        0.048      343.376       19.440      862.326
04/19/2013  17:26:00     -495.503     -175.639      -23.415      188.018      167.732       84.896    35350.695    28133.913     7207.399       17.379        3.535      525.712       89.339        0.029      343.397       19.477      862.285
04/19/2013  17:27:00     -329.712      -91.136      -10.601      202.550      154.698       85.104    41026.670    23931.496     7242.648        9.465        3.610      342.076       97.737        0.082      343.456       19.577      862.307
04/19/2013  17:28:00     -156.811      -27.582       -5.967      142.517      110.769       70.217    20311.061    12269.688     4930.424        3.144        1.876      159.218       73.153        0.211      343.642       19.894      862.290
04/19/2013  17:29:00     -539.541      -32.870      -16.581      248.681      189.986       95.343    61842.277    36094.605     9090.281       19.973        5.351      540.541       91.044        0.028      343.401       19.484      862.275
04/19/2013  17:30:00     -321.956     -157.543       -4.672      181.101      165.223       77.868    32797.593    27298.686     6063.459        9.732        3.308      358.434       94.899        0.070      343.506       19.664      862.297
04/19/2013  17:31:00     -236.475      -77.837        5.164      250.478      146.950      100.160    62739.098    21594.231    10031.955        7.817        4.718      248.956      114.682        0.212      343.476       19.612      862.291
04/19/2013  17:32:00     -220.116       15.704       -1.323      175.687       90.274       66.634    30866.007     8149.450     4440.089        4.607        2.173      220.675       76.777        0.121      343.531       19.707      862.265
04/19/2013  17:33:00     -392.465      -46.878       -6.659      160.072      165.791       73.199    25623.199    27486.737     5358.126       10.736        2.923      395.255       77.490        0.038      343.571       19.772      862.278
04/19/2013  17:34:00     -256.160      -87.174        0.231      141.894      132.445       70.016    20133.868    17541.713     4902.297        5.789        2.129      270.587       70.189        0.067      343.679       19.957      862.242
04/19/2013  17:35:00     -513.444     -152.933      -19.540      199.673      136.727       76.900    39869.486    18694.405     5913.656       17.593        3.224      535.736       65.213        0.015      343.417       19.509      862.221
04/19/2013  17:36:00     -502.999     -138.894       -3.499      242.846      146.845       98.702    58974.408    21563.314     9742.112       18.128        4.514      521.824      114.561        0.048      343.575       19.779      862.234
04/19/2013  17:37:00     -393.699     -148.960      -37.803      222.094      137.615       85.579    49325.905    18937.900     7323.837       12.709        3.779      420.937       85.725        0.041      343.513       19.675      862.245
04/19/2013  17:38:00     -241.929     -136.718      -18.517      175.369      123.513       76.726    30754.127    15255.501     5886.864        6.472        2.595      277.888       80.994        0.085      343.636       19.883      862.261
04/19/2013  17:39:00     -325.571      -19.780       -8.016      218.813      152.051       72.813    47879.065    23119.591     5301.707        9.136        3.815      326.171       92.398        0.080      343.678       19.955      862.258
04/19/2013  17:40:00     -628.048       46.954      -40.073      302.781      203.090      108.401    91676.473    41245.737    11750.753       27.144        7.234      629.800      134.946        0.046      343.420       19.515      862.238
04/19/2013  17:41:00     -442.363       -6.814      -23.759      167.172      114.077       76.233    27946.639    13013.490     5811.534       12.153        2.339      442.415       80.191        0.033      343.535       19.711      862.265
04/19/2013  17:42:00     -400.499      -75.822      -29.515      249.632      202.489       85.715    62316.245    41001.843     7347.028       13.882        5.533      407.614      105.187        0.067      343.413       19.504      862.273
04/19/2013  17:43:00     -511.508     -142.344      -23.863      162.687      152.684       81.759    26467.095    23312.412     6684.457       16.946        2.823      530.945       76.839        0.021      343.336       19.373      862.252
04/19/2013  17:44:00     -469.945     -132.261       -9.194      232.669      146.149       84.946    54134.727    21359.392     7215.757       16.055        4.135      488.203      102.662        0.044      343.165       19.081      862.270
04/19/2013  17:45:00     -400.074     -129.321       -8.343      267.095      172.338      108.233    71339.535    29700.501    11714.345       14.478        5.638      420.456      107.840        0.066      343.267       19.254      862.210
04/19/2013  17:46:00     -633.873     -164.538      -25.845      211.024      183.178       96.923    44531.280    33554.286     9394.081       25.849        4.374      654.880      106.218        0.026      343.256       19.236      862.267
04/19/2013  17:47:00     -493.449      -58.165      -32.006      194.115      162.083       85.435    37680.737    26270.893     7299.216       15.956        3.563      496.865       68.092        0.019      343.335       19.369      862.299
04/19/2013  17:48:00     -357.913     -103.231      -14.798      175.224      172.049       84.577    30703.618    29600.962     7153.214       10.321        3.373      372.503       89.466        0.058      343.291       19.296      862.318
04/19/2013  17:49:00     -304.654     -136.766       -3.088      202.877      175.420       81.268    41158.917    30772.266     6604.552        9.502        3.927      333.945       92.473        0.077      343.300       19.311      862.310
04/19/2013  17:50:00     -429.008      -93.941        0.817      266.759      189.328      102.246    71160.290    35845.232    10454.271       15.515        5.873      439.173      119.255        0.074      343.118       19.002      862.311
04/19/2013  17:51:00     -488.995     -108.976      -18.928      213.485      149.889       82.060    45575.687    22466.788     6733.804       16.305        3.739      500.991       90.341        0.033      343.218       19.171      862.307
04/19/2013  17:52:00     -355.856      -43.617       -1.115      183.146      153.738       74.056    33542.338    23635.520     5484.218        9.559        3.133      358.519       81.681        0.052      343.268       19.257      862.361
04/19/2013  17:53:00     -290.604      -14.965       -7.872      212.918      148.804       69.467    45334.034    22142.540     4825.667        7.851        3.615      290.989       83.478        0.082      343.199       19.141      862.335
04/19/2013  17:54:00     -256.485      -40.007       -3.129      203.949      137.144       98.265    41595.375    18808.451     9656.012        6.872        3.503      259.586       95.436        0.135      343.312       19.331      862.307
04/19/2013  17:55:00     -627.376      -89.581      -30.886      320.095      215.286      118.753   102460.586    46347.961    14102.282       28.272        8.146      633.739      155.661        0.060      343.056       18.896      862.344
04/19/2013  17:56:00     -402.182      -88.840      -16.922      183.844      147.750       93.585    33798.607    21829.988     8758.110       11.715        3.219      411.877      101.046        0.060      343.165       19.081      862.330
04/19/2013  17:57:00     -295.641       24.721        7.809      229.357      125.547       87.691    52604.812    15761.964     7689.722        8.205        3.803      296.673      112.364        0.143      343.258       19.239      862.333
04/19/2013  17:58:00     -538.351      -32.219      -19.922      271.810      231.451      101.351    73880.855    53569.356    10272.042       21.447        6.886      539.314      101.856        0.036      343.056       18.895      862.390
04/19/2013  17:59:00     -339.473       -5.549      -14.169      165.554      133.329       90.951    27408.037    17776.648     8272.169        8.446        2.673      339.518       88.923        0.069      343.141       19.039      862.375
04/19/2013  18:00:00     -355.027      -50.987      -30.913      139.462      160.023       60.811    19449.663    25607.235     3697.986        8.917        2.438      358.670       47.752        0.018      343.098       18.966      862.362
04/19/2013  18:01:00     -490.555       34.715      -45.025      161.398      124.086       72.818    26049.196    15397.304     5302.474       14.530        2.337      491.781       72.808        0.022      343.118       19.002      862.357
04/19/2013  18:02:00     -221.587        6.066        4.401      115.325      114.029       62.906    13299.819    13002.698     3957.103        3.970        1.513      221.670       47.960        0.047      343.281       19.280      862.367
04/19/2013  18:03:00     -323.009     -181.570       -2.564      220.554      184.427       90.151    48644.075    34013.473     8127.130       11.403        4.539      370.543       95.539        0.066      343.230       19.192      862.367
04/19/2013  18:04:00     -296.848     -121.565       12.379      189.081      182.139       85.520    35751.558    33174.639     7313.672        8.963        3.812      320.775      105.785        0.109      343.191       19.127      862.390
04/19/2013  18:05:00     -323.824      -66.979       -5.452      229.775      145.760       76.990    52796.751    21245.896     5927.413        9.466        3.999      330.678       83.471        0.064      343.230       19.191      862.388
04/19/2013  18:06:00     -449.817      -93.584       -3.739      288.270      168.926       79.908    83099.772    28536.095     6385.354       16.454        5.901      459.449       93.346        0.041      343.129       19.019      862.367
04/19/2013  18:07:00     -566.333     -168.269       -6.246      204.592      149.931       92.577    41857.794    22479.235     8570.497       21.098        3.645      590.802      101.014        0.029      342.940       18.699      862.359
04/19/2013  18:08:00     -298.710      -13.207      -28.927      156.999      118.932       74.375    24648.563    14144.739     5531.577        6.727        2.216      299.002       71.553        0.057      343.077       18.931      862.370
04/19/2013  18:09:00     -415.872       -6.913      -19.836      166.661      173.393       73.682    27775.743    30064.989     5428.965       11.832        3.163      415.929       75.906        0.033      342.997       18.795      862.365
04/19/2013  18:10:00     -243.994       -2.762       -9.273      138.875      124.458       65.166    19286.134    15489.763     4246.542        4.932        1.951      244.009       55.072        0.051      343.140       19.038      862.345
04/19/2013  18:11:00     -308.261      -51.818        8.553      162.924      135.811       66.681    26544.162    18444.509     4446.350        7.360        2.472      312.586       75.547        0.058      343.155       19.064      862.334
04/19/2013  18:12:00     -345.917     -101.990      -13.365      202.648      157.564       90.929    41066.098    24826.512     8268.018       10.219        3.708      360.639       80.397        0.050      343.104       18.976      862.295
04/19/2013  18:13:00     -448.822     -195.421       -7.823      247.111      173.772      105.385    61063.745    30196.541    11105.896       17.101        5.118      489.521      130.122        0.071      342.938       18.695      862.323
04/19/2013  18:14:00     -299.271      -43.391        0.613      200.620      192.208       90.658    40248.445    36943.876     8218.926        8.841        4.271      302.400      104.128        0.119      343.080       18.937      862.275
04/19/2013  18:15:00     -407.474     -172.915       -4.359      248.649      174.896      113.981    61826.223    30588.576    12991.596       15.066        5.270      442.645      128.580        0.084      342.997       18.795      862.260
04/19/2013  18:16:00     -316.857      -35.907      -14.660      223.649      174.464       77.586    50018.823    30437.734     6019.566        9.418        4.324      318.886      107.457        0.114      343.000       18.801      862.274
04/19/2013  18:17:00     -290.548       55.877      -14.256      195.929      100.462       58.990    38388.194    10092.599     3479.835        6.984        2.598      295.872       74.988        0.064      342.999       18.799      862.297
04/19/2013  18:18:00     -544.511       11.430      -34.216      237.316      160.271       98.594    56319.039    25686.885     9720.814       19.474        4.586      544.631      116.384        0.046      342.917       18.659      862.233
04/19/2013  18:19:00     -420.717      -76.715       -0.745      220.676      159.066      109.353    48698.045    25301.843    11958.004       13.441        4.298      427.654      118.909        0.077      342.972       18.752      862.225
04/19/2013  18:20:00     -384.748     -120.705       -3.448      226.483      137.758      100.039    51294.643    18977.158    10007.862       12.143        4.014      403.238      122.379        0.092      342.957       18.727      862.243
04/19/2013  18:21:00     -399.171       -0.576      -18.159      158.237      130.306       83.439    25038.797    16979.660     6962.061       10.432        2.449      399.172       83.822        0.044      343.009       18.816      862.282
04/19/2013  18:22:00     -502.003     -176.714      -10.533      173.763      158.507       83.616    30193.686    25124.510     6991.694       17.282        3.115      532.198       67.758        0.016      342.915       18.656      862.270
04/19/2013  18:23:00     -468.406      -55.935      -12.071      332.513      202.251      116.411   110565.082    40905.272    13551.470       19.382        8.251      471.734      152.561        0.105      342.895       18.621      862.278
04/19/2013  18:24:00     -453.036      -44.050      -12.217      240.856      203.930      119.014    58011.797    41587.244    14164.418       16.053        5.688      455.172      121.733        0.072      342.861       18.564      862.268
04/19/2013  18:25:00     -480.895      -37.236      -10.478      242.204      193.782      100.747    58662.789    37551.390    10150.029       16.954        5.318      482.334      114.172        0.056      342.755       18.385      862.281
04/19/2013  18:26:00     -397.463      -29.725      -25.397      298.564      160.063       80.448    89140.312    25620.139     6471.833       14.035        6.062      398.573      111.474        0.078      342.716       18.318      862.267
04/19/2013  18:27:00     -309.166     -110.480       -7.001      167.605      118.305       78.339    28091.479    13996.062     6136.942        7.802        2.411      328.313       78.441        0.057      342.845       18.536      862.264
04/19/2013  18:28:00     -377.180     -219.436      -14.799      243.559      162.650       96.371    59320.938    26454.884     9287.316       14.283        4.753      436.368      117.609        0.073      342.758       18.388      862.281
04/19/2013  18:29:00     -429.676     -177.950      -11.938      184.584      168.808       91.855    34071.273    28496.115     8437.396       14.371        3.550      465.068       95.597        0.042      342.794       18.451      862.250
04/19/2013  18:30:00     -401.814     -109.665       -6.576      228.298      168.376       88.055    52119.758    28350.573     7753.612       13.086        4.411      416.511       98.513        0.056      342.832       18.514      862.286
04/19/2013  18:31:00     -525.935     -204.891      -14.301      177.528      153.530       78.230    31516.143    23571.546     6119.898       18.999        3.060      564.436       77.764        0.019      342.654       18.213      862.283
04/19/2013  18:32:00     -428.658       31.604      -26.577      183.986      141.384       74.685    33850.832    19989.442     5577.897       12.243        2.971      429.821       90.910        0.045      342.787       18.439      862.312
04/19/2013  18:33:00     -251.066      -57.260       -7.684      152.543      148.269       67.367    23269.378    21983.630     4538.345        5.807        2.490      257.513       74.487        0.084      342.782       18.429      862.303
04/19/2013  18:34:00     -204.443      -73.797       -5.381      149.331      137.202       60.522    22299.873    18824.337     3662.954        4.602        2.239      217.354       69.569        0.102      342.797       18.456      862.325
04/19/2013  18:35:00     -315.334      -69.068       -7.881      155.030      155.947       80.948    24034.249    24319.529     6552.502        7.958        2.745      322.810       92.080        0.081      342.683       18.262      862.346
04/19/2013  18:36:00     -286.027      -43.607        2.986      191.918      141.694       86.944    36832.346    20077.131     7559.231        7.408        3.223      289.332       93.219        0.104      342.744       18.366      862.372
04/19/2013  18:37:00     -462.505      -96.898      -22.051      222.766      167.210       80.566    49624.488    27959.349     6490.940       15.392        4.204      472.546       98.604        0.044      342.742       18.361      862.366
04/19/2013  18:38:00     -428.178     -140.867       -5.853      198.106      152.222       83.908    39246.160    23171.449     7040.498       13.632        3.473      450.755       93.538        0.043      342.737       18.354      862.399
04/19/2013  18:39:00     -498.099     -123.630      -12.540      218.026      188.677       88.231    47535.384    35599.026     7784.658       17.722        4.546      513.212       98.705        0.037      342.612       18.140      862.429
04/19/2013  18:40:00     -507.604     -140.694      -49.109      150.137      159.995       86.608    22541.256    25598.482     7500.922       16.775        2.782      526.742       80.817        0.024      342.618       18.152      862.386
04/19/2013  18:41:00     -637.935      -71.928      -46.329      204.379      177.334      100.054    41770.951    31447.184    10010.837       24.874        4.161      641.978      108.888        0.029      342.512       17.970      862.386
04/19/2013  18:42:00     -413.249      -95.937      -21.773      157.594      120.096       68.999    24835.723    14422.945     4760.878       11.223        2.201      424.239       73.131        0.030      342.585       18.096      862.406
04/19/2013  18:43:00     -384.264     -133.041      -24.419      159.910      169.196       80.775    25571.363    28627.400     6524.590       11.333        3.036      406.643       67.799        0.028      342.595       18.112      862.404
04/19/2013  18:44:00     -520.119     -114.668      -32.287      173.474      154.944       72.529    30093.371    24007.693     5260.414       17.203        2.968      532.609       72.930        0.019      342.553       18.039      862.410
04/19/2013  18:45:00     -301.809     -155.923       -8.305      170.955      146.338       71.484    29225.464    21414.859     5110.030        8.560        2.788      339.707       74.516        0.048      342.620       18.154      862.444
04/19/2013  18:46:00     -119.884      -91.033       11.810      125.113      132.051       63.852    15653.205    17437.496     4077.031        2.998        1.858      150.530       44.084        0.086      342.676       18.251      862.445
04/19/2013  18:47:00     -140.436        7.466       13.448       99.824       89.157       55.123     9964.737     7948.921     3038.557        2.045        1.048      140.634       45.401        0.104      342.752       18.381      862.447
04/19/2013  18:48:00     -374.374      -15.059      -12.919      175.674      133.375       65.892    30861.311    17788.786     4341.692        9.676        2.650      374.677       74.830        0.040      342.589       18.101      862.467
04/19/2013  18:49:00     -503.018      -36.430      -27.284      224.734      143.469       95.604    50505.442    20583.371     9140.066       16.765        4.011      504.336      116.650        0.053      342.491       17.935      862.432
04/19/2013  18:50:00     -448.507       28.379      -23.106      181.285      162.363       75.541    32864.297    26361.872     5706.474       13.370        3.247      449.404       81.190        0.033      342.537       18.014      862.420
04/19/2013  18:51:00     -433.228     -122.477      -15.091      202.210      198.293      112.450    40888.799    39320.186    12644.915       14.787        4.643      450.208       86.166        0.037      342.448       17.862      862.425
04/19/2013  18:52:00     -485.417      -34.887      -22.376      304.895      159.763      105.080    92960.846    25524.236    11041.749       18.342        6.476      486.669      129.421        0.071      342.370       17.731      862.408
04/19/2013  18:53:00     -178.367      -34.123        4.603      235.757      133.109      103.863    55581.460    17717.961    10787.439        5.853        4.204      181.602      102.560        0.319      342.407       17.792      862.436
04/19/2013  18:54:00     -256.051      -30.382      -12.647      182.179      127.234       79.017    33189.218    16188.418     6243.638        6.112        2.781      257.848       81.529        0.100      342.411       17.798      862.431
04/19/2013  18:55:00     -301.927      -60.417       -5.466      202.128      192.830       90.877    40855.588    37183.409     8258.557        9.055        4.315      307.912       97.631        0.101      342.379       17.745      862.449
04/19/2013  18:56:00     -557.310     -160.896      -31.558      243.742      242.413       94.767    59410.115    58763.886     8980.707       23.229        6.358      580.070       99.001        0.029      342.266       17.551      862.451
04/19/2013  18:57:00     -323.183     -162.149       15.624      325.050      190.396      131.641   105657.512    36250.489    17329.392       14.508        7.962      361.579      153.129        0.179      342.273       17.563      862.524
04/19/2013  18:58:00     -454.599      -61.413      -30.883      146.390      117.165       95.389    21429.981    13727.675     9099.111       12.781        2.213      458.728       82.794        0.033      342.302       17.613      862.450
04/19/2013  18:59:00     -472.878      -14.491      -18.234      184.306      155.317       79.177    33968.572    24123.417     6268.968       14.425        3.218      473.100       71.287        0.023      342.280       17.576      862.435
04/19/2013  19:00:00     -527.974     -107.366       -8.421      296.521      181.429      104.728    87924.679    32916.481    10968.039       21.106        6.590      538.780      139.852        0.067      342.197       17.436      862.410
04/19/2013  19:01:00     -337.529     -138.336        6.631      218.341      137.923       81.597    47672.722    19022.668     6658.033       10.322        3.668      364.778       95.757        0.069      342.212       17.462      862.384
04/19/2013  19:02:00     -369.755      -84.985      -12.798      210.298      135.289       91.228    44225.070    18303.209     8322.469       10.747        3.543      379.396       85.969        0.051      342.238       17.504      862.370
04/19/2013  19:03:00     -327.913      -69.682        2.266      221.018      168.074      101.110    48849.057    28248.877    10223.142        9.984        4.366      335.235      112.077        0.112      342.262       17.545      862.376
04/19/2013  19:04:00     -516.049     -213.777      -14.734      217.471      164.865      103.701    47293.572    27180.384    10753.971       19.871        4.261      558.576      107.282        0.037      342.191       17.425      862.365
04/19/2013  19:05:00     -488.232      -63.102       -7.725      247.318      181.492       99.501    61166.143    32939.466     9900.455       17.319        5.200      492.293      119.014        0.058      342.188       17.419      862.371
04/19/2013  19:06:00     -465.026      -60.278      -15.180      211.452      157.902       88.876    44711.796    24933.180     7898.859       14.882        3.877      468.916      100.318        0.046      342.162       17.375      862.387
04/19/2013  19:07:00     -545.567     -128.542      -21.916      207.709      175.764       79.705    43143.231    30892.995     6352.846       19.750        4.019      560.505       73.745        0.017      342.156       17.365      862.381
04/19/2013  19:08:00     -672.941     -174.416      -23.744      220.613      163.260       90.168    48670.024    26653.745     8130.202       28.363        4.173      695.176      104.151        0.022      342.111       17.288      862.371
04/19/2013  19:09:00     -328.269      -68.311        8.067      184.706      146.380       79.592    34116.329    21427.067     6334.936        8.717        3.094      335.302       87.934        0.069      342.160       17.373      862.357
04/19/2013  19:10:00     -366.463     -118.923        4.264      274.573      218.970      114.012    75390.061    47947.799    12998.702       14.237        6.817      385.276      128.591        0.111      342.136       17.332      862.390
04/19/2013  19:11:00     -330.080     -103.854        3.098      197.235      186.069       98.470    38901.825    34621.527     9696.342       10.147        4.161      346.033       98.758        0.081      342.138       17.335      862.348
04/19/2013  19:12:00     -359.778     -227.681      -20.498      219.085      190.134      102.418    47998.371    36150.973    10489.461       13.815        4.732      425.769       93.582        0.048      342.106       17.281      862.381
04/19/2013  19:13:00     -320.233      -65.309       -0.255      262.667      172.855       97.706    68994.017    29878.887     9546.474       10.760        5.421      326.825      106.194        0.106      342.074       17.226      862.358
04/19/2013  19:14:00     -196.280     -176.572       21.107      215.465      163.955      112.526    46425.146    26881.308    12662.002        7.804        4.298      264.014      117.876        0.199      342.041       17.170      862.366
04/19/2013  19:15:00     -304.533      -92.701        3.126      235.419      176.756      102.108    55422.165    31242.815    10426.143        9.920        4.855      318.330      124.387        0.153      342.032       17.155      862.360
04/19/2013  19:16:00     -545.850      -74.640      -14.443      200.284      176.765       96.537    40113.846    31245.821     9319.353       19.219        4.034      550.930       99.649        0.033      341.943       17.002      862.378
04/19/2013  19:17:00     -425.164     -183.043       -2.718      271.516      190.447      107.072    73720.733    36270.183    11464.417       16.785        6.073      462.892      128.388        0.077      341.919       16.962      862.414
04/19/2013  19:18:00     -376.943      -96.865       10.587      227.384      192.433      103.147    51703.658    37030.269    10639.383       12.546        4.969      389.191      116.183        0.089      341.926       16.974      862.421
04/19/2013  19:19:00     -451.090     -160.069      -29.030      220.356      219.956      110.342    48556.737    48380.561    12175.261       16.951        5.456      478.648      109.707        0.053      341.880       16.895      862.392
04/19/2013  19:20:00     -601.320     -112.172      -24.532      247.538      200.689       96.523    61275.177    40275.932     9316.766       24.280        5.543      611.693       97.312        0.025      341.862       16.866      862.386
04/19/2013  19:21:00     -457.464     -110.778      -26.458      212.644      142.884       97.235    45217.498    20415.740     9454.724       14.865        3.754      470.686      102.608        0.048      341.853       16.850      862.372
04/19/2013  19:22:00     -477.121        1.394      -30.512      265.340      173.705       99.106    70405.452    30173.376     9822.094       16.947        5.520      477.123      109.451        0.053      341.877       16.892      862.381
04/19/2013  19:23:00     -368.475      -85.310       -1.399      158.056      202.727      102.528    24981.572    41098.191    10511.936       10.981        3.830      378.222       97.856        0.067      341.867       16.874      862.380
04/19/2013  19:24:00     -457.041     -140.771      -27.862      250.786      181.344      101.277    62893.779    32885.466    10257.124       16.774        5.302      478.229      110.753        0.054      341.817       16.789      862.402
04/19/2013  19:25:00     -418.603     -129.881       -4.441      252.035      183.019       85.209    63521.607    33495.988     7260.571       14.818        5.214      438.289      112.536        0.066      341.759       16.691      862.369
04/19/2013  19:26:00     -205.841     -104.350      -11.144      144.757      113.652       63.865    20954.669    12916.675     4078.733        4.566        1.898      230.780       67.176        0.085      341.787       16.739      862.387
04/19/2013  19:27:00     -397.287      -91.160       -9.718      183.053      132.116       72.511    33508.442    17454.555     5257.911       11.122        2.811      407.612       78.988        0.038      341.793       16.749      862.408
04/19/2013  19:28:00     -304.045     -134.944      -12.018      174.637      136.469       86.471    30498.232    18623.768     7477.280        8.369        2.830      332.646       74.171        0.050      341.760       16.692      862.394
04/19/2013  19:29:00     -358.013     -132.320       -2.653      174.439      153.352       71.513    30428.960    23516.841     5114.162       10.236        2.953      381.683       75.703        0.039      341.794       16.748      862.377
04/19/2013  19:30:00     -362.199      -32.884      -11.581      189.395      171.082       90.015    35870.625    29269.118     8102.622       10.281        3.662      363.688       99.154        0.074      341.754       16.684      862.383
04/19/2013  19:31:00     -341.124      -68.834      -14.858      286.286      176.615       95.638    81959.402    31193.034     9146.667       12.179        6.115      348.000      103.652        0.089      341.726       16.636      862.355
04/19/2013  19:32:00     -387.014      -92.543      -11.154      232.618      180.643      105.183    54110.925    32631.730    11063.461       12.812        4.890      397.925      115.698        0.085      341.710       16.610      862.375
04/19/2013  19:33:00     -493.967       33.034      -20.665      219.514      150.511       99.935    48186.258    22653.659     9986.908       16.316        4.041      495.071      115.047        0.054      341.737       16.655      862.403
04/19/2013  19:34:00     -469.615      -92.425      -19.585      213.457      201.149       98.148    45563.892    40460.752     9633.066       16.255        4.783      478.624      106.267        0.049      341.673       16.546      862.408
04/19/2013  19:35:00     -523.736      -77.856      -25.037      198.590      191.149       86.045    39438.005    36537.870     7403.656       18.217        4.169      529.491       88.122        0.028      341.685       16.566      862.428
04/19/2013  19:36:00     -286.894     -110.804        2.514      239.884      155.889       83.133    57544.182    24301.337     6911.093        9.166        4.438      307.548       87.633        0.081      341.610       16.439      862.425
04/19/2013  19:37:00     -417.173     -136.586      -25.532      292.403      191.525       83.052    85499.272    36681.778     6897.654       16.119        6.454      438.963       91.330        0.043      341.638       16.486      862.419
04/19/2013  19:38:00     -457.226        7.183      -31.781      176.698      117.222       82.209    31222.131    13741.112     6758.274       13.091        2.586      457.282       81.960        0.032      341.705       16.601      862.445
04/19/2013  19:39:00     -374.707     -137.570       -7.224      153.213      133.839       78.724    23474.108    17912.999     6197.503       10.348        2.379      399.163       69.577        0.030      341.622       16.458      862.489
04/19/2013  19:40:00     -249.027     -128.838        4.623      219.350      147.825       83.207    48114.437    21852.232     6923.334        7.775        3.845      280.382      108.895        0.151      341.614       16.445      862.506
04/19/2013  19:41:00     -368.169      -41.748       -6.977      210.220      144.726       88.687    44192.609    20945.740     7865.415       10.516        3.650      370.528      100.194        0.073      341.604       16.429      862.559
04/19/2013  19:42:00     -393.321      -50.058      -12.897      228.104      196.645       94.232    52031.571    38669.294     8879.670       12.846        4.979      396.494       99.233        0.063      341.620       16.455      862.585
04/19/2013  19:43:00     -428.511      -81.033      -27.304      176.678      159.333       79.473    31215.184    25386.895     6315.932       12.692        3.146      436.105       68.190        0.024      341.627       16.467      862.571
04/19/2013  19:44:00     -456.550     -154.076       -2.894      223.722      208.420       90.399    50051.708    43439.080     8171.988       16.691        5.083      481.848      110.554        0.053      341.564       16.360      862.632
04/19/2013  19:45:00     -287.642      -38.319       -1.723      145.551      137.175       64.223    21184.950    18817.046     4124.652        6.416        2.206      290.183       63.563        0.048      341.571       16.373      862.672
04/19/2013  19:46:00     -500.325      -81.442       -9.505      274.795      182.352      101.838    75512.512    33252.319    10370.891       18.807        5.957      506.910      120.668        0.057      341.539       16.319      862.701
04/19/2013  19:47:00     -399.888     -145.052       -3.257      209.214      168.817       86.391    43770.578    28499.227     7463.451       13.033        3.987      425.383      103.934        0.060      341.533       16.308      862.721
04/19/2013  19:48:00     -351.743     -109.950      -13.384      176.625      128.917       90.449    31196.340    16619.649     8181.056        9.598        2.800      368.527       99.582        0.073      341.557       16.349      862.744
04/19/2013  19:49:00     -281.879      -33.189       13.832      160.436      176.861       77.904    25739.643    31279.824     6069.056        7.191        3.154      283.826       82.755        0.085      341.593       16.410      862.764
04/19/2013  19:50:00     -375.519     -106.470      -14.571      196.031      156.190       85.375    38428.191    24395.345     7288.950       11.133        3.506      390.321      102.880        0.069      341.504       16.259      862.771
04/19/2013  19:51:00     -419.719      -28.553        0.561      261.818      233.142      104.502    68548.655    54354.973    10920.570       15.538        6.691      420.690      118.475        0.079      341.507       16.264      862.754
04/19/2013  19:52:00     -445.997      -53.887       -0.934      282.279      142.871       91.095    79681.426    20412.154     8298.254       15.509        5.420      449.240      133.974        0.089      341.446       16.160      862.739
04/19/2013  19:53:00     -276.031     -108.874       -1.468      185.763      161.092       87.644    34508.048    25950.592     7681.480        7.808        3.407      296.726       93.227        0.099      341.433       16.138      862.770
04/19/2013  19:54:00     -397.924      -59.695       -6.753      209.293      156.847       83.772    43803.551    24600.863     7017.717       11.867        3.771      402.377       89.983        0.050      341.497       16.248      862.750
04/19/2013  19:55:00     -339.214      -62.474      -30.252      162.386      110.945       71.636    26369.286    12308.730     5131.678        8.184        2.190      344.919       79.530        0.053      341.443       16.157      862.770
04/19/2013  19:56:00     -210.215      -18.684        2.656      145.370      122.471       75.276    21132.301    14999.067     5666.424        4.317        2.090      211.044       82.772        0.154      341.461       16.186      862.779
04/19/2013  19:57:00     -212.934      -73.713        4.741      172.412      149.760       70.577    29726.023    22427.995     4981.148        5.396        2.857      225.332       60.883        0.073      341.393       16.073      862.761
04/19/2013  19:58:00     -348.017      -98.035       -6.419      225.020      188.648      100.268    50634.142    35588.022    10053.756       11.351        4.814      361.562      103.705        0.082      341.432       16.139      862.762
04/19/2013  19:59:00     -496.630     -116.930       -6.336      207.159      172.346       82.419    42914.653    29703.236     6792.912       16.987        3.971      510.209       98.617        0.037      341.380       16.050      862.789
04/19/2013  20:00:00     -273.867      -22.097      -11.904      141.419       99.982       68.288    19999.294     9996.430     4663.302        5.514        1.733      274.757       75.320        0.075      341.416       16.110      862.806
04/19/2013  20:01:00     -475.560     -120.500      -18.527      204.043      171.184       82.969    41633.708    29304.032     6883.926       15.941        3.891      490.589       93.798        0.037      341.369       16.031      862.786
04/19/2013  20:02:00     -188.200      -79.032        0.997      158.190      133.414       66.770    25024.157    17799.255     4458.216        4.447        2.364      204.121       63.385        0.096      341.335       15.974      862.824
04/19/2013  20:03:00     -229.603      -98.623       24.713      172.156      117.552       67.835    29637.808    13818.442     4601.587        5.555        2.403      249.888       79.080        0.100      341.331       15.967      862.824
04/19/2013  20:04:00      -88.559      -60.232        4.757      124.018      104.286       57.931    15380.352    10875.468     3356.003        2.055        1.481      107.101       56.181        0.275      341.311       15.934      862.809
04/19/2013  20:05:00     -161.785        6.508       -1.487      135.239       79.524       61.421    18289.578     6324.027     3772.500        2.730        1.419      161.916       57.821        0.128      341.314       15.940      862.828
04/19/2013  20:06:00     -243.291      -24.457       -8.494      124.917      108.064       59.203    15604.169    11677.926     3504.950        4.532        1.539      244.517       51.565        0.044      341.282       15.883      862.821
04/19/2013  20:07:00     -184.913      -20.672       -1.185      117.200       85.196       55.433    13735.917     7258.424     3072.846        2.934        1.203      186.065       57.238        0.095      341.235       15.806      862.826
04/19/2013  20:08:00     -223.424      -51.943        2.294      113.587       81.080       55.135    12902.072     6574.030     3039.818        3.757        1.126      229.383       62.409        0.074      341.241       15.815      862.833
04/19/2013  20:09:00     -271.475      -71.571       -2.815      207.771      108.183       64.953    43168.763    11703.607     4218.905        6.895        2.955      280.750       85.246        0.092      341.246       15.823      862.836
04/19/2013  20:10:00     -336.298      -70.077       -5.890      210.034      139.106       86.520    44114.102    19350.399     7485.625        9.448        3.548      343.521      115.620        0.113      341.219       15.776      862.875
04/19/2013  20:11:00     -342.514      -63.723      -17.252      111.831       84.796       58.977    12506.063     7190.307     3478.307        7.242        1.159      348.391       61.516        0.031      341.224       15.784      862.905
04/19/2013  20:12:00     -319.798     -120.459      -16.734      164.176      169.144       79.553    26953.901    28609.724     6328.658        8.947        3.095      341.732       88.613        0.067      341.227       15.791      862.920
04/19/2013  20:13:00     -343.434      -99.659       -5.587      210.072      146.945       71.559    44130.052    21592.970     5120.750        9.937        3.542      357.602       92.007        0.066      341.190       15.727      862.957
04/19/2013  20:14:00     -379.478      -83.025       -4.953      146.948      117.228       71.179    21593.595    13742.467     5066.390        9.566        2.020      388.455       76.948        0.039      341.167       15.690      862.989
04/19/2013  20:15:00     -397.286       25.835      -30.744      166.049      133.751       70.156    27572.373    17889.325     4921.917       10.491        2.519      398.125       70.590        0.031      341.153       15.663      863.033
04/19/2013  20:16:00     -248.283      -19.322        2.222      155.864      108.974       66.336    24293.739    11875.316     4400.459        5.129        2.028      249.034       72.019        0.084      341.143       15.647      863.067
04/19/2013  20:17:00     -444.072      -96.984       -9.915      186.419      117.730       76.141    34751.936    13860.315     5797.409       13.055        2.720      454.539       81.069        0.032      341.129       15.624      863.074
04/19/2013  20:18:00     -238.041      -49.912        4.298      130.304       96.946       57.226    16979.220     9398.517     3274.789        4.441        1.483      243.217       70.020        0.083      341.113       15.596      863.092
04/19/2013  20:19:00     -159.122      -90.489       -5.546      132.193      112.821       56.038    17475.091    12728.585     3140.299        3.344        1.667      183.052       62.559        0.117      341.135       15.634      863.079
04/19/2013  20:20:00     -313.963      -68.513       -8.771      156.309      124.524       66.681    24432.442    15506.249     4446.422        7.386        2.219      321.351       71.589        0.050      341.116       15.603      863.087
04/19/2013  20:21:00     -346.074     -128.308      -33.880      155.893       89.270       62.247    24302.550     7969.146     3874.741        8.676        1.807      369.093       61.536        0.028      341.116       15.602      863.082
04/19/2013  20:22:00     -138.073      -98.976        5.987       94.813      124.449       64.353     8989.546    15487.606     4141.305        2.875        1.431      169.884       73.373        0.187      341.088       15.557      863.090
04/19/2013  20:23:00     -249.792      -69.122       13.984      139.901      146.511       64.297    19572.185    21465.416     4134.082        5.626        2.259      259.180       63.883        0.061      341.051       15.493      863.127
04/19/2013  20:24:00     -275.576      -39.519       -7.997      101.677      126.109       67.134    10338.226    15903.474     4507.026        5.415        1.537      278.395       55.499        0.040      341.054       15.498      863.155
04/19/2013  20:25:00     -309.870     -139.023       -1.653      172.514      126.570       71.727    29760.963    16019.846     5144.823        8.313        2.546      339.627       74.621        0.048      341.070       15.524      863.177
04/19/2013  20:26:00     -305.594     -155.610       -6.476      203.349      132.613       79.170    41350.703    17586.109     6267.894        9.141        3.260      342.931       74.085        0.047      341.044       15.481      863.197
04/19/2013  20:27:00     -365.017      -97.922      -19.175      153.044      121.390       70.816    23422.578    14735.613     5014.951        9.318        2.159      377.924       55.952        0.022      341.005       15.414      863.224
04/19/2013  20:28:00     -396.169     -142.366      -23.359      181.402      124.677       79.495    32906.801    15544.273     6319.450       11.626        2.739      420.973       91.825        0.048      340.997       15.401      863.245
04/19/2013  20:29:00     -233.303      -84.568       -1.558      155.502      126.606       73.657    24181.004    16029.120     5425.325        5.360        2.282      248.158       74.943        0.091      340.993       15.394      863.303
04/19/2013  20:30:00     -450.456      -58.381      -13.772      206.398      143.253       88.308    42600.270    20521.291     7798.305       13.870        3.546      454.223      106.950        0.055      340.961       15.339      863.334
04/19/2013  20:31:00     -279.630     -102.176        2.120      183.408      115.971       76.474    33638.463    13449.177     5848.302        7.078        2.647      297.713       78.414        0.069      340.980       15.372      863.342
04/19/2013  20:32:00     -241.933      -73.205      -14.662      104.451       87.042       46.298    10910.090     7576.321     2143.496        4.236        1.031      252.766       48.070        0.036      340.960       15.338      863.372
04/19/2013  20:33:00     -273.714      -74.287       -7.024      111.482      111.181       54.299    12428.187    12361.243     2948.366        5.411        1.387      283.615       49.225        0.030      340.939       15.303      863.386
04/19/2013  20:34:00     -359.290     -106.162        1.680      190.484      118.250       72.728    36284.137    13983.143     5289.335        9.795        2.778      374.645       83.900        0.050      340.912       15.258      863.400
04/19/2013  20:35:00     -255.923      -63.016      -19.910       96.175       99.546       56.696     9249.554     9909.400     3214.429        4.612        1.119      263.567       54.455        0.043      340.909       15.251      863.404
04/19/2013  20:36:00     -208.003      -53.904        6.937      142.005      108.273       73.018    20165.562    11723.117     5331.692        4.171        1.861      214.874       77.272        0.129      340.862       15.173      863.432
04/19/2013  20:37:00     -438.381      -34.822        1.784      193.621      116.155       77.159    37489.043    13492.020     5953.554       12.515        2.847      439.762       93.692        0.045      340.864       15.176      863.433
04/19/2013  20:38:00     -286.539      -31.215       -8.222      111.324      104.972       55.016    12393.068    11019.090     3026.720        5.479        1.322      288.235       53.682        0.035      340.877       15.197      863.471
04/19/2013  20:39:00     -297.673     -122.698       -4.559      137.266      127.040       61.507    18841.841    16139.245     3783.096        7.122        1.938      321.969       70.194        0.048      340.877       15.197      863.496
04/19/2013  20:40:00     -171.156       -7.312       11.709      111.739       97.482       59.438    12485.632     9502.645     3532.926        2.750        1.276      171.312       62.646        0.134      340.879       15.202      863.518
04/19/2013  20:41:00     -217.401     -103.111       -2.066      142.734      132.549       66.206    20372.995    17569.324     4383.286        5.011        2.116      240.614       42.713        0.032      340.878       15.199      863.547
04/19/2013  20:42:00     -290.093      -81.606       -4.819      155.300      186.395       86.484    24118.023    34743.281     7479.410        7.858        3.317      301.352       93.518        0.096      340.845       15.145      863.550
04/19/2013  20:43:00     -369.145      -68.326       -9.079      193.331      108.632       59.176    37377.004    11800.806     3501.828        9.684        2.634      375.415       71.935        0.037      340.825       15.111      863.573
04/19/2013  20:44:00     -157.478      -20.298        3.013       87.778       92.831       49.384     7704.969     8617.593     2438.768        2.199        0.938      158.781       55.181        0.121      340.855       15.164      863.603
04/19/2013  20:45:00     -135.280      -32.861       17.312      137.825       94.645       58.847    18995.671     8957.663     3462.918        2.554        1.571      139.214       57.416        0.170      340.827       15.113      863.616
04/19/2013  20:46:00     -352.480      -83.612      -11.019      131.055      137.272       72.026    17175.438    18843.551     5187.753        8.627        2.060      362.261       72.155        0.040      340.809       15.083      863.627
04/19/2013  20:47:00     -214.059      -25.706        8.783      118.491      101.322       61.388    14040.123    10266.148     3768.450        3.731        1.404      215.597       64.880        0.091      340.785       15.044      863.651
04/19/2013  20:48:00     -302.299      -14.440       -5.667      151.136      123.764       78.141    22842.142    15317.450     6105.994        6.794        2.213      302.643       81.629        0.073      340.778       15.032      863.668
04/19/2013  20:49:00     -306.305      -47.262       -3.012      147.611      119.321       72.032    21788.870    14237.564     5188.598        6.863        2.061      309.930       75.845        0.060      340.740       14.966      863.696
04/19/2013  20:50:00     -318.644       35.097       -6.757      124.413      110.427       63.539    15478.526    12194.142     4037.189        6.726        1.585      320.571       61.366        0.037      340.746       14.976      863.699
04/19/2013  20:51:00     -252.004      -81.730      -11.091      166.823      113.802       65.600    27829.877    12950.860     4303.415        5.769        2.254      264.926       73.688        0.077      340.754       14.992      863.722
04/19/2013  20:52:00     -282.142      -28.256      -12.875      174.720       82.915       63.855    30526.921     6874.914     4077.437        6.102        2.074      283.554       77.476        0.075      340.751       14.985      863.746
04/19/2013  20:53:00     -288.455        5.751      -10.934      107.716       71.352       60.585    11602.819     5091.164     3670.587        5.186        1.018      288.512       67.570        0.055      340.703       14.903      863.752
04/19/2013  20:54:00     -126.863      -12.529       16.440      114.364       92.349       53.700    13079.122     8528.291     2883.718        2.050        1.225      127.481       52.110        0.167      340.676       14.859      863.751
04/19/2013  20:55:00     -144.842      -44.080        6.633      142.019      128.259       61.922    20169.443    16450.290     3834.314        3.170        2.023      151.401       82.409        0.296      340.685       14.874      863.749
04/19/2013  20:56:00     -170.681       -0.542        7.330      143.112      107.326       65.863    20481.137    11518.819     4337.887        3.276        1.817      170.682       63.726        0.139      340.646       14.810      863.760
04/19/2013  20:57:00     -204.142       -8.061       11.506      130.280      103.194       74.286    16972.843    10648.969     5518.429        3.750        1.657      204.301       64.013        0.098      340.693       14.889      863.754
04/19/2013  20:58:00     -299.252      -76.901        5.664      152.709      140.859       73.717    23319.895    19841.273     5434.156        7.204        2.430      308.975       76.125        0.061      340.703       14.903      863.764
04/19/2013  20:59:00     -312.204       16.158      -11.733      120.686      105.450       64.438    14565.191    11119.758     4152.239        6.385        1.492      312.622       58.012        0.034      340.665       14.839      863.762
04/19/2013  21:00:00     -358.097       11.013      -28.869      139.332      146.015       64.665    19413.406    21320.413     4181.576        8.704        2.246      358.266       70.954        0.039      340.641       14.799      863.759
04/19/2013  21:01:00     -166.911      -53.037       -2.179       94.353      117.078       53.288     8902.453    13707.273     2839.638        2.806        1.272      175.135       45.862        0.069      340.656       14.826      863.755
04/19/2013  21:02:00     -190.203      -30.332       -8.468      110.897       75.286       49.793    12298.143     5667.933     2479.312        2.880        1.022      192.606       29.596        0.024      340.657       14.828      863.765
04/19/2013  21:03:00     -313.552     -131.653      -17.034      108.433      126.021       63.167    11757.822    15881.344     3990.020        7.378        1.581      340.070       58.724        0.030      340.612       14.747      863.768
04/19/2013  21:04:00     -355.479      -27.429      -20.598      136.437      111.883       73.927    18615.106    12517.812     5465.228        8.206        1.830      356.535       69.438        0.038      340.592       14.714      863.762
04/19/2013  21:05:00     -230.167      -57.797       -5.691       95.287      111.355       58.741     9079.583    12399.895     3450.557        4.064        1.247      237.313       41.674        0.031      340.574       14.685      863.767
04/19/2013  21:06:00     -266.757      -40.535      -10.825      125.076       93.850       53.361    15644.012     8807.766     2847.406        5.010        1.365      269.819       57.589        0.046      340.552       14.648      863.748
04/19/2013  21:07:00     -296.418      -37.938      -18.052      138.405       98.097       57.755    19155.817     9623.064     3335.650        6.087        1.606      298.836       52.856        0.031      340.531       14.613      863.756
04/19/2013  21:08:00     -176.846       17.653        3.456      151.034       98.513       56.428    22811.316     9704.882     3184.146        3.364        1.785      177.725       51.097        0.083      340.526       14.606      863.743
04/19/2013  21:09:00     -364.331      -33.974      -13.042      168.840      110.184       68.284    28506.920    12140.412     4662.664        8.968        2.265      365.911       74.433        0.041      340.502       14.562      863.733
04/19/2013  21:10:00     -368.758      -35.477      -22.681      139.021      119.180       61.710    19326.819    14203.918     3808.144        8.754        1.867      370.461       51.444        0.019      340.494       14.551      863.718
04/19/2013  21:11:00     -442.062      -48.515      -38.404      172.725      112.360       78.583    29834.043    12624.832     6175.266       12.393        2.432      444.716       85.396        0.037      340.494       14.551      863.728
04/19/2013  21:12:00     -363.202      -92.509      -11.588      163.044      124.496       65.650    26583.228    15499.350     4309.951        9.349        2.320      374.798       79.291        0.045      340.494       14.551      863.734
04/19/2013  21:13:00     -307.195      -84.088      -21.368      140.266       84.678       52.029    19674.639     7170.445     2707.015        6.572        1.478      318.496       44.235        0.019      340.493       14.549      863.736
04/19/2013  21:14:00     -370.131      -75.739       -8.883      175.603      112.276       70.517    30836.345    12606.011     4972.592        9.561        2.421      377.801       78.543        0.043      340.480       14.526      863.741
04/19/2013  21:15:00     -531.767        4.611      -37.413      136.252      142.150       69.993    18564.509    20206.698     4899.050       16.393        2.184      531.787       67.167        0.016      340.495       14.551      863.723
04/19/2013  21:16:00     -541.004     -146.955      -35.888      193.165      173.957       84.923    37312.526    30261.132     7211.939       19.517        3.739      560.608       90.409        0.026      340.487       14.537      863.710
04/19/2013  21:17:00     -330.302       -5.990      -14.013      181.149      112.130       68.494    32814.899    12573.128     4691.477        7.970        2.504      330.356       83.168        0.063      340.457       14.486      863.723
04/19/2013  21:18:00     -420.426       16.507      -28.863      162.416      120.652       71.056    26378.887    14556.880     5048.944       11.192        2.299      420.750       67.182        0.025      340.468       14.505      863.734
04/19/2013  21:19:00     -459.565      -94.281       -5.636      143.791      130.852       74.140    20675.841    17122.321     5496.814       13.170        2.165      469.136       70.396        0.023      340.465       14.501      863.747
04/19/2013  21:20:00     -312.377      -54.428       -4.964      149.777      121.436       72.643    22433.175    14746.754     5276.991        7.150        2.123      317.083       75.893        0.057      340.461       14.492      863.745
04/19/2013  21:21:00     -372.835      -86.884      -14.573      154.352      122.158       71.091    23824.681    14922.686     5053.884        9.528        2.190      382.825       74.495        0.038      340.436       14.452      863.753
04/19/2013  21:22:00     -425.282      -60.486      -15.393      146.851       85.513       72.836    21565.315     7312.546     5305.154       10.947        1.709      429.561       79.351        0.034      340.437       14.452      863.745
04/19/2013  21:23:00     -281.170      -19.830       -3.946      133.644      123.176       60.758    17860.744    15172.222     3691.582        5.809        1.836      281.869       43.841        0.024      340.426       14.436      863.751
04/19/2013  21:24:00     -311.286      -80.088       -5.617      136.064      121.110       68.080    18513.450    14667.636     4634.885        7.057        1.891      321.424       71.134        0.049      340.419       14.424      863.753
04/19/2013  21:25:00     -333.867      -44.432       -0.205      145.199      124.974       79.111    21082.649    15618.495     6258.586        7.819        2.148      336.811       81.406        0.058      340.401       14.392      863.754
04/19/2013  21:26:00     -367.546     -132.644       -4.882      165.514      112.127       72.176    27394.826    12572.473     5209.351        9.894        2.259      390.749       78.125        0.040      340.402       14.394      863.742
04/19/2013  21:27:00     -461.625      -99.939      -14.294      143.831      110.696       70.297    20687.261    12253.555     4941.716       13.058        1.894      472.319       64.889        0.019      340.395       14.383      863.731
04/19/2013  21:28:00     -376.895       -1.062      -15.010      155.978      120.397       74.375    24329.117    14495.346     5531.625        9.331        2.218      376.897       83.739        0.049      340.404       14.398      863.749
04/19/2013  21:29:00     -305.578      -65.742       -6.506      147.267      108.151       69.077    21687.499    11696.586     4771.582        6.794        1.908      312.570       75.512        0.058      340.372       14.345      863.723
04/19/2013  21:30:00     -311.373      -68.811      -26.875      151.119      124.517       63.961    22836.907    15504.585     4091.040        7.241        2.122      318.885       65.606        0.042      340.379       14.357      863.712
04/19/2013  21:31:00     -291.143     -144.207      -18.963      105.807      107.351       56.945    11195.068    11524.315     3242.745        6.594        1.298      324.900       54.520        0.028      340.398       14.388      863.705
04/19/2013  21:32:00     -332.839      -71.006      -12.804      193.513      104.089       72.237    37447.428    10834.537     5218.153        8.474        2.675      340.329       84.128        0.061      340.413       14.413      863.713
04/19/2013  21:33:00     -410.870      -53.285      -27.854      146.335      173.672       75.343    21413.869    30161.900     5676.533       11.483        2.863      414.311       73.821        0.032      340.403       14.398      863.727
04/19/2013  21:34:00     -204.410      -21.069        9.352      169.547      112.834       67.895    28746.290    12731.531     4609.759        4.419        2.304      205.493       65.653        0.102      340.378       14.354      863.708
04/19/2013  21:35:00     -367.646      -77.931       -5.150      164.167      126.456       63.232    26950.701    15991.065     3998.333        9.409        2.347      375.815       65.195        0.030      340.376       14.350      863.733
04/19/2013  21:36:00     -215.966      -72.441        5.455      110.574       96.431       48.413    12226.502     9298.855     2343.811        3.789        1.193      227.792       51.558        0.051      340.385       14.366      863.745
04/19/2013  21:37:00     -338.335        1.430      -25.553      137.040       83.806       62.769    18779.897     7023.529     3939.942        7.243        1.487      338.338       67.664        0.040      340.353       14.312      863.756
04/19/2013  21:38:00     -262.525        7.872        1.918      134.392       96.870       65.258    18061.181     9383.816     4258.635        5.034        1.585      262.643       73.579        0.078      340.311       14.240      863.781
04/19/2013  21:39:00     -384.698     -133.006      -12.290      175.241      136.624       65.283    30709.387    18666.054     4261.904       10.973        2.682      407.042       66.437        0.027      340.359       14.322      863.783
04/19/2013  21:40:00     -239.613     -107.960        8.521      159.866      146.565       72.420    25557.181    21481.248     5244.594        6.070        2.614      262.812       79.012        0.090      340.364       14.331      863.832
04/19/2013  21:41:00     -284.836      -36.782        3.846      181.368      133.096       76.081    32894.475    17714.635     5788.266        6.944        2.820      287.201       93.543        0.106      340.361       14.325      863.830
04/19/2013  21:42:00     -329.159      -46.757      -11.725      151.856      139.789       74.346    23060.357    19540.897     5527.334        7.939        2.406      332.463       78.489        0.056      340.391       14.374      863.862
04/19/2013  21:43:00     -264.823      -47.888        3.414      100.514      105.648       62.298    10103.033    11161.593     3881.023        4.879        1.257      269.118       60.001        0.050      340.338       14.285      863.902
04/19/2013  21:44:00     -221.250      -34.824        3.818      129.470      111.364       72.556    16762.436    12401.970     5264.414        4.230        1.721      223.973       68.839        0.094      340.355       14.315      863.919
04/19/2013  21:45:00     -305.751     -130.487       -5.589      142.270      129.435       63.131    20240.884    16753.412     3985.528        7.575        2.049      332.431       66.775        0.040      340.398       14.387      863.959
04/19/2013  21:46:00     -230.387      -76.809       -1.938      117.414       97.752       52.068    13786.141     9555.408     2711.036        4.251        1.303      242.853       46.565        0.037      340.371       14.343      863.990
04/19/2013  21:47:00     -218.355      -60.486       -1.737      109.817       86.646       54.930    12059.836     7507.538     3017.330        3.696        1.129      226.578       60.552        0.071      340.334       14.281      864.009
04/19/2013  21:48:00     -117.249        9.784        3.429       83.498       73.760       42.096     6971.946     5440.482     1772.079        1.402        0.709      117.657       33.219        0.080      340.352       14.312      864.027
04/19/2013  21:49:00     -130.720      -28.370        8.904      109.096       78.868       41.795    11901.871     6220.112     1746.816        1.892        0.993      133.763       48.408        0.131      340.313       14.246      864.048
04/19/2013  21:50:00     -115.047      -55.429        9.598       79.900       85.740       51.063     6383.933     7351.402     2607.468        1.637        0.817      127.704       55.144        0.186      340.308       14.236      864.067
04/19/2013  21:51:00     -286.331      -90.339       -7.627      127.371       99.329       56.690    16223.434     9866.286     3213.737        5.975        1.465      300.244       56.312        0.035      340.329       14.272      864.092
04/19/2013  21:52:00     -301.356     -104.427        0.436      127.360      110.084       55.180    16220.577    12118.496     3044.852        6.655        1.569      318.937       61.566        0.037      340.346       14.300      864.110
04/19/2013  21:53:00     -212.873     -104.244       -6.185      132.465       90.035       64.566    17546.855     8106.266     4168.807        4.302        1.491      237.027       70.561        0.089      340.368       14.338      864.134
04/19/2013  21:54:00     -182.520      -80.631       -1.177      124.816       97.295       57.809    15579.022     9466.280     3341.827        3.410        1.419      199.537       62.534        0.098      340.344       14.297      864.154
04/19/2013  21:55:00     -258.356     -116.215        6.382      135.228      122.641       54.617    18286.515    15040.929     2982.971        5.830        1.816      283.291       52.485        0.034      340.361       14.327      864.162
04/19/2013  21:56:00     -231.267     -127.213        0.714      113.417       86.269       58.455    12863.454     7442.396     3417.031        4.669        1.186      263.946       44.682        0.029      340.350       14.307      864.205
04/19/2013  21:57:00     -314.935     -167.605      -21.349      130.814       89.829       54.531    17112.432     8069.170     2973.669        7.794        1.408      356.757       49.572        0.019      340.371       14.342      864.177
04/19/2013  21:58:00     -179.377     -115.006      -11.524       94.010       79.265       52.144     8837.892     6282.928     2718.960        3.168        0.892      213.078       39.828        0.035      340.384       14.364      864.173
04/19/2013  21:59:00     -161.266      -80.610        2.708      136.536      131.141       57.047    18641.979    17198.059     3254.351        3.580        1.955      180.291       70.858        0.154      340.380       14.358      864.166
04/19/2013  22:00:00     -228.121     -102.541       -7.081      166.877      102.993       56.581    27847.779    10607.588     3201.363        5.212        2.083      250.107       56.597        0.051      340.376       14.350      864.160
04/19/2013  22:01:00     -293.119     -105.460      -16.549      114.493      100.548       64.357    13108.599    10109.895     4141.858        6.233        1.368      311.513       65.223        0.044      340.390       14.375      864.183
04/19/2013  22:02:00     -203.752      -38.704       -1.230       74.298       72.413       41.208     5520.153     5243.606     1698.096        2.774        0.623      207.395       35.254        0.029      340.361       14.327      864.201
04/19/2013  22:03:00     -163.746      -58.539        5.323      101.559       91.073       49.095    10314.191     8294.264     2410.317        2.564        1.051      173.895       50.286        0.084      340.354       14.314      864.217
04/19/2013  22:04:00     -154.760      -48.435        7.636       90.752       67.855       40.885     8235.849     4604.325     1671.621        2.043        0.726      162.162       47.759        0.087      340.359       14.323      864.212
04/19/2013  22:05:00     -258.374      -53.245      -14.906      127.746       85.488       59.547    16319.101     7308.185     3545.847        4.849        1.359      263.803       57.325        0.047      340.364       14.331      864.222
04/19/2013  22:06:00     -292.290      -12.919      -11.959      113.311       88.951       52.814    12839.473     7912.269     2789.280        5.464        1.177      292.575       56.635        0.037      340.368       14.339      864.215
04/19/2013  22:07:00     -176.320      -42.210        3.677      137.171       94.126       47.517    18815.810     8859.760     2257.825        3.140        1.497      181.302       53.482        0.087      340.342       14.295      864.227
04/19/2013  22:08:00     -225.790      -98.387       -7.104      106.038       99.943       52.032    11244.053     9988.553     2707.316        4.232        1.197      246.294       57.192        0.054      340.339       14.288      864.233
04/19/2013  22:09:00     -220.543      -78.870      -12.093       96.876       89.225       50.032     9384.895     7961.041     2503.202        3.742        0.992      234.221       49.743        0.045      340.335       14.280      864.229
04/19/2013  22:10:00     -238.339      -20.935       -0.671      130.588       75.241       52.623    17053.255     5661.187     2769.136        4.136        1.274      239.257       60.349        0.064      340.330       14.272      864.231
04/19/2013  22:11:00     -247.089      -58.941      -12.156       88.922       84.402       55.616     7907.086     7123.682     3093.089        4.140        0.906      254.021       55.430        0.048      340.320       14.256      864.224
04/19/2013  22:12:00     -295.829        7.513      -20.702      136.707       85.993       50.033    18688.724     7394.719     2503.283        5.829        1.429      295.924       54.849        0.034      340.325       14.265      864.217
04/19/2013  22:13:00     -213.032      -72.007       -7.453       92.725       82.317       45.044     8597.883     6776.099     2028.927        3.401        0.870      224.872       43.294        0.037      340.321       14.257      864.204
04/19/2013  22:14:00     -221.006      -48.992      -12.540       85.221       76.060       43.910     7262.646     5785.108     1928.069        3.319        0.749      226.371       47.412        0.044      340.318       14.252      864.202
04/19/2013  22:15:00     -342.044       -4.858      -10.602      145.896       81.435       59.832    21285.646     6631.642     3579.842        7.431        1.575      342.079       67.644        0.039      340.297       14.216      864.194
04/19/2013  22:16:00     -258.771     -132.547      -16.453       82.506       75.013       50.866     6807.201     5626.904     2587.337        4.991        0.751      290.742       41.687        0.021      340.325       14.264      864.189
04/19/2013  22:17:00     -194.510      -38.229       -0.907       77.769       75.469       44.444     6048.007     5695.584     1975.240        2.651        0.686      198.231       44.841        0.051      340.305       14.231      864.199
04/19/2013  22:18:00     -223.623      -40.107        0.346      124.310       66.368       44.428    15452.990     4404.657     1973.869        3.672        1.092      227.192       46.559        0.042      340.307       14.234      864.201
04/19/2013  22:19:00     -271.876      -86.199       -7.293      115.194      102.313       54.065    13269.722    10468.008     2923.055        5.403        1.333      285.213       61.952        0.047      340.276       14.182      864.223
04/19/2013  22:20:00     -196.890      -61.925       -5.743       87.127       78.474       43.901     7591.158     6158.154     1927.286        2.915        0.784      206.399       41.235        0.040      340.279       14.187      864.233
04/19/2013  22:21:00     -232.762      -44.636      -16.670       82.747       93.028       34.506     6847.030     8654.295     1190.672        3.657        0.835      237.003       29.070        0.015      340.263       14.158      864.243
04/19/2013  22:22:00     -210.379      -47.383      -10.792       64.454       71.700       37.276     4154.283     5140.833     1389.517        2.865        0.534      215.649       34.635        0.026      340.252       14.140      864.253
04/19/2013  22:23:00     -207.039      -25.289        4.091      116.583       93.666       49.173    13591.552     8773.226     2418.001        3.415        1.239      208.578       60.758        0.085      340.244       14.128      864.262
04/19/2013  22:24:00     -275.986     -103.002      -15.369       91.816       67.357       45.471     8430.199     4536.932     2067.626        5.102        0.752      294.580       37.508        0.016      340.274       14.177      864.256
04/19/2013  22:25:00     -153.838      -41.465      -14.565       60.312       63.838       43.145     3637.496     4075.293     1861.483        1.758        0.479      159.328       38.187        0.057      340.273       14.178      864.254
04/19/2013  22:26:00     -115.858       19.639       -0.565       73.220       82.265       42.280     5361.232     6767.582     1787.634        1.386        0.696      117.510       37.723        0.103      340.255       14.148      864.262
04/19/2013  22:27:00      -84.460       87.243       -8.668       36.815       66.409       27.751     1355.310     4410.165      770.108        1.068        0.327      121.428       18.596        0.023      340.256       14.150      864.259
04/19/2013  22:28:00     -145.749       51.521      -16.859       47.200       42.307       31.192     2227.805     1789.893      972.929        1.459        0.250      154.587       22.111        0.020      340.219       14.089      864.261
04/19/2013  22:29:00     -110.847      165.831      -29.531       51.922       69.855       35.155     2695.922     4879.783     1235.876        2.473        0.441      199.467       28.604        0.021      340.172       14.006      864.267
04/19/2013  22:30:00     -130.829      184.008      -23.354       55.918       68.394       46.473     3126.775     4677.724     2159.744        3.074        0.498      225.777       34.982        0.024      340.161       13.986      864.271
04/19/2013  22:31:00     -176.755      142.704      -36.317       50.477       93.130       40.132     2547.942     8673.242     1610.588        3.288        0.642      227.171       37.059        0.027      340.154       13.976      864.290
04/19/2013  22:32:00     -174.508      232.362      -37.475       69.636       85.183       48.023     4849.136     7256.137     2306.213        5.013        0.721      290.594       43.983        0.023      340.099       13.882      864.316
04/19/2013  22:33:00     -162.157      168.387      -31.866       84.592       71.582       52.314     7155.823     5124.043     2736.730        3.534        0.751      233.771       52.635        0.051      340.104       13.892      864.336
04/19/2013  22:34:00     -148.710      143.859      -30.339       56.916       81.171       47.681     3239.430     6588.745     2273.469        2.791        0.605      206.906       23.153        0.013      340.154       13.976      864.371
04/19/2013  22:35:00     -104.251       69.792      -16.601       73.501       53.270       40.157     5402.338     2837.673     1612.580        1.293        0.493      125.456       37.940        0.091      340.180       14.020      864.402
04/19/2013  22:36:00      -76.651       92.934       -2.128       57.744       72.111       40.244     3334.341     5199.969     1619.579        1.233        0.508      120.466       39.899        0.110      340.208       14.068      864.411
04/19/2013  22:37:00      -89.023      121.577      -12.576       51.674       54.083       32.961     2670.199     2924.961     1086.413        1.477        0.334      150.685       30.412        0.041      340.218       14.085      864.432
04/19/2013  22:38:00      -93.682      298.816      -32.069       68.661       87.199       43.948     4714.362     7603.748     1931.393        5.667        0.712      313.157       40.569        0.017      340.179       14.017      864.443
04/19/2013  22:39:00      -77.252      184.127      -10.210       65.572      136.881       50.378     4299.752    18736.428     2537.940        3.277        1.279      199.676       52.996        0.070      340.206       14.064      864.468
04/19/2013  22:40:00     -102.247      263.085      -23.446       69.869      104.482       51.677     4881.690    10916.424     2670.527        4.934        0.923      282.256       43.128        0.023      340.201       14.053      864.489
04/19/2013  22:41:00     -126.915      230.719      -14.481       80.916       77.985       60.539     6547.349     6081.623     3664.926        4.292        0.815      263.322       49.649        0.036      340.187       14.029      864.524
04/19/2013  22:42:00     -160.651      129.312      -34.054       97.295       80.379       45.331     9466.233     6460.793     2054.897        3.083        0.899      206.229       46.364        0.051      340.206       14.064      864.571
04/19/2013  22:43:00     -150.968       79.659      -23.311       83.159       86.963       53.482     6915.477     7562.615     2860.331        2.351        0.867      170.696       52.993        0.096      340.199       14.052      864.597
04/19/2013  22:44:00     -157.563       36.280      -31.229      115.377       90.838       54.462    13311.953     8251.485     2966.098        2.582        1.226      161.686       62.523        0.150      340.176       14.014      864.632
04/19/2013  22:45:00     -126.573      137.325      -24.509       69.392       80.202       37.268     4815.221     6432.417     1388.878        2.406        0.632      186.759       32.313        0.030      340.154       13.977      864.680
04/19/2013  22:46:00     -169.734      223.351      -41.026       63.823       67.781       38.612     4073.355     4594.297     1490.877        4.527        0.508      280.526       35.073        0.016      340.115       13.909      864.703
04/19/2013  22:47:00     -133.191       66.760      -19.062       82.764       93.614       37.466     6849.827     8763.599     1403.716        1.979        0.851      148.986       30.259        0.041      340.120       13.918      864.727
04/19/2013  22:48:00     -144.774      173.249      -34.468       73.247       58.331       42.403     5365.099     3402.475     1797.993        3.136        0.528      225.776       40.260        0.032      340.124       13.925      864.750
04/19/2013  22:49:00     -188.319      276.616      -33.601       90.367      156.945       61.841     8166.188    24631.735     3824.328        7.486        1.831      334.635       50.597        0.023      340.036       13.775      864.741
04/19/2013  22:50:00     -228.454      237.691      -46.429      166.467      106.655       69.895    27711.356    11375.243     4885.256        7.740        2.199      329.678       64.338        0.038      339.963       13.653      864.773
04/19/2013  22:51:00     -172.060      210.036      -32.979      115.508      144.977       61.856    13342.095    21018.404     3826.112        5.649        1.909      271.513       52.970        0.038      339.917       13.576      864.801
04/19/2013  22:52:00     -172.887      403.163      -44.231      110.908      134.095       76.616    12300.658    17981.578     5870.035       11.526        1.808      438.669       68.954        0.025      339.847       13.457      864.816
04/19/2013  22:53:00     -169.272      373.206      -42.887      104.384      125.289       77.568    10896.083    15697.417     6016.790       10.119        1.631      409.799       76.915        0.035      339.826       13.422      864.805
04/19/2013  22:54:00     -133.943      464.808      -40.623       87.525      132.588       59.541     7660.709    17579.489     3545.097       13.221        1.439      483.723       53.542        0.012      339.824       13.418      864.809
04/19/2013  22:55:00     -162.410      305.473      -31.222      124.041      145.287       83.681    15386.059    21108.445     7002.468        8.207        2.175      345.964       87.083        0.063      339.807       13.390      864.804
04/19/2013  22:56:00     -107.799      385.634      -44.680      109.268      117.914       66.770    11939.502    13903.654     4458.222        9.631        1.515      400.418       59.322        0.022      339.782       13.348      864.817
04/19/2013  22:57:00     -120.717      327.954      -37.418       84.572      101.353       58.743     7152.481    10272.343     3450.689        7.220        1.044      349.466       47.722        0.019      339.787       13.355      864.836
04/19/2013  22:58:00     -138.330      326.719      -38.754       88.689      109.385       65.115     7865.753    11965.153     4239.907        7.572        1.204      354.796       59.402        0.028      339.762       13.314      864.852
04/19/2013  22:59:00     -165.836      418.344      -55.580       96.169      159.262       55.702     9248.382    25364.378     3102.706       12.165        1.886      450.014       50.412        0.013      339.731       13.262      864.882
04/19/2013  23:00:00     -251.170      207.529      -52.209      101.510      108.479       62.297    10304.213    11767.732     3880.938        6.741        1.298      325.814       64.898        0.040      339.738       13.274      864.908
04/19/2013  23:01:00     -165.420      192.925      -17.869      127.602      112.340       67.875    16282.166    12620.357     4607.035        4.920        1.675      254.133       85.432        0.113      339.733       13.268      864.928
04/19/2013  23:02:00     -167.245      212.928      -17.715       99.798      161.983       60.962     9959.694    26238.335     3716.417        5.676        1.996      270.757       66.718        0.061      339.718       13.240      864.940
04/19/2013  23:03:00     -178.284      305.295      -44.054      100.926      204.623       75.650    10185.960    41870.632     5722.955        9.235        2.889      353.539       81.719        0.053      339.660       13.142      864.929
04/19/2013  23:04:00     -180.868      311.960      -48.258       81.315       76.178       52.456     6612.147     5803.082     2751.600        7.376        0.758      360.600       48.285        0.018      339.661       13.141      864.918
04/19/2013  23:05:00      -93.362      232.378      -29.362       91.581      105.627       54.020     8387.052    11157.107     2918.126        4.302        1.123      250.432       54.784        0.048      339.659       13.141      864.921
04/19/2013  23:06:00     -150.276      298.335      -35.513      103.936      165.389       66.044    10802.677    27353.372     4361.856        7.768        2.126      334.046       67.339        0.041      339.642       13.112      864.931
04/19/2013  23:07:00     -206.680      443.418      -57.746      127.939      150.438       75.283    16368.347    22631.591     5667.549       14.366        2.233      489.220       73.840        0.023      339.559       12.972      864.909
04/19/2013  23:08:00     -140.139      295.890      -37.382       94.541       80.497       52.661     8937.995     6479.765     2773.201        6.339        0.910      327.399       47.969        0.021      339.575       12.999      864.921
04/19/2013  23:09:00     -113.264      282.527      -34.184       90.365      138.604       58.539     8165.790    19211.155     3426.798        6.231        1.540      304.385       55.516        0.033      339.580       13.009      864.943
04/19/2013  23:10:00     -135.471      275.740      -33.276       69.300       96.224       54.502     4802.491     9258.993     2970.509        5.626        0.852      307.221       48.863        0.025      339.598       13.037      864.946
04/19/2013  23:11:00     -155.399      349.345      -42.250       94.727      115.859       72.293     8973.148    13423.330     5226.235        8.779        1.381      382.349       63.720        0.028      339.531       12.924      864.955
04/19/2013  23:12:00     -144.177      299.801      -51.612       90.404      113.010       61.269     8172.862    12771.234     3753.879        6.901        1.235      332.667       54.907        0.027      339.525       12.912      864.957
04/19/2013  23:13:00     -181.952      341.476      -42.912       90.276       92.597       60.168     8149.815     8574.114     3620.150        8.595        1.017      386.927       56.009        0.021      339.511       12.891      864.960
04/19/2013  23:14:00     -108.648      288.208      -34.535      111.359      155.578       57.973    12400.719    24204.455     3360.864        6.801        1.998      308.007       58.068        0.036      339.508       12.887      864.960
04/19/2013  23:15:00      -90.234      339.854      -27.417       98.263      169.914       67.842     9655.595    28870.734     4602.498        8.375        2.156      351.628       75.828        0.047      339.485       12.847      864.957
04/19/2013  23:16:00     -173.433      208.515      -47.723      112.063      152.528       66.482    12558.203    23264.876     4419.839        5.803        2.012      271.214       82.402        0.092      339.483       12.845      864.961
04/19/2013  23:17:00     -206.712      275.273      -48.295      120.952      131.378       80.012    14629.451    17260.130     6401.980        7.956        1.915      344.246       67.619        0.039      339.442       12.775      864.941
04/19/2013  23:18:00     -257.411      267.617      -46.809      124.634      127.980       72.296    15533.603    16378.989     5226.661        8.860        1.857      371.321       64.456        0.030      339.436       12.764      864.945
04/19/2013  23:19:00     -272.711      309.230      -51.921      127.198      147.529       80.722    16179.451    21764.734     6516.094       10.857        2.223      412.304       84.430        0.042      339.406       12.715      864.927
04/19/2013  23:20:00     -182.487      383.235      -47.166      123.450      129.973       75.465    15239.856    16893.086     5694.918       11.011        1.891      424.465       74.391        0.031      339.401       12.706      864.932
04/19/2013  23:21:00     -201.004      282.539      -52.851      106.196      115.280       58.514    11277.563    13289.498     3423.889        7.550        1.400      346.743       48.892        0.020      339.384       12.677      864.920
04/19/2013  23:22:00     -153.109      264.572      -12.203      104.823      171.464       74.660    10987.934    29399.934     5574.085        6.977        2.298      305.681       94.565        0.096      339.389       12.685      864.926
04/19/2013  23:23:00      -72.614      446.344      -48.271       90.406      125.415       55.223     8173.210    15728.910     3049.605       11.688        1.348      452.213       56.737        0.016      339.341       12.604      864.923
04/19/2013  23:24:00      -68.485      259.215      -25.927       75.231      113.441       45.215     5659.757    12868.767     2044.403        4.656        1.029      268.109       35.280        0.017      339.368       12.650      864.929
04/19/2013  23:25:00      -88.602      156.845       -8.491       59.690      122.071       51.813     3562.920    14901.342     2684.552        2.683        1.057      180.141       55.532        0.095      339.421       12.741      864.943
04/19/2013  23:26:00      -94.364      175.736      -18.945       68.356       91.829       43.992     4672.475     8432.547     1935.305        2.759        0.752      199.469       38.564        0.037      339.407       12.717      864.943
04/19/2013  23:27:00     -116.026      165.694      -10.541       94.184      127.462       55.053     8870.570    16246.536     3030.870        3.458        1.407      202.278       56.308        0.077      339.365       12.646      864.930
04/19/2013  23:28:00     -257.816      262.121      -54.936      106.672      144.675       65.413    11378.821    20930.884     4278.865        8.739        1.829      367.664       65.481        0.032      339.287       12.512      864.930
04/19/2013  23:29:00     -162.283      246.651      -30.460       79.917       94.916       54.683     6386.724     9009.095     2990.236        5.324        0.919      295.250       49.234        0.028      339.265       12.476      864.954
04/19/2013  23:30:00     -201.371      210.253      -40.855       96.382      127.650       54.896     9289.546    16294.446     3013.553        5.751        1.430      291.130       59.075        0.041      339.260       12.469      864.955
04/19/2013  23:31:00     -142.531      273.600      -23.596      110.727      137.086       67.383    12260.416    18792.689     4540.484        6.566        1.780      308.500       76.091        0.061      339.232       12.422      864.976
04/19/2013  23:32:00     -230.154      247.263      -51.021      133.150      129.057       73.064    17728.811    16655.590     5338.331        7.821        1.986      337.802       79.283        0.055      339.208       12.381      864.988
04/19/2013  23:33:00     -174.627      227.301      -36.563       91.100      107.687       59.861     8299.216    11596.476     3583.326        5.348        1.174      286.636       55.400        0.037      339.200       12.366      865.018
04/19/2013  23:34:00     -143.887      254.775      -36.467       99.309      131.948       61.788     9862.292    17410.311     3817.814        5.901        1.555      292.598       66.103        0.051      339.190       12.352      865.043
04/19/2013  23:35:00     -104.686      274.734      -32.553       75.235      163.971       51.820     5660.271    26886.484     2685.332        6.136        1.762      294.003       53.975        0.034      339.196       12.361      865.061
04/19/2013  23:36:00     -145.146      295.104      -26.933      107.559      183.216       68.145    11568.974    33568.125     4643.744        7.932        2.489      328.867       74.531        0.051      339.174       12.324      865.056
04/19/2013  23:37:00     -184.552      298.101      -52.403       84.233      127.074       53.087     7095.243    16147.707     2818.253        7.586        1.303      350.604       56.387        0.026      339.142       12.269      865.075
04/19/2013  23:38:00     -216.611      264.279      -43.753      105.934      144.335       71.862    11221.998    20832.650     5164.197        7.794        1.861      341.707       83.047        0.059      339.121       12.235      865.077
04/19/2013  23:39:00     -110.954      221.527      -24.716       79.822       84.949       46.319     6371.531     7216.378     2145.420        3.886        0.787      247.760       45.770        0.034      339.127       12.244      865.086
04/19/2013  23:40:00     -111.254      164.648      -15.993      104.415      139.347       56.381    10902.587    19417.712     3178.778        3.662        1.675      198.712       58.875        0.088      339.131       12.251      865.082
04/19/2013  23:41:00     -162.587      221.994      -29.692      107.448       96.153       50.295    11545.158     9245.494     2529.622        4.995        1.166      275.165       49.084        0.032      339.097       12.194      865.086
04/19/2013  23:42:00     -203.264      283.377      -55.741       96.958       91.574       58.807     9400.778     8385.849     3458.319        7.298        1.062      348.739       55.590        0.025      339.076       12.157      865.070
04/19/2013  23:43:00      -63.649      217.865      -14.625       70.179      123.712       50.794     4925.094    15304.631     2580.043        3.727        1.140      226.972       56.597        0.062      339.086       12.176      865.053
04/19/2013  23:44:00      -98.335      164.528      -19.296       79.279       76.097       46.518     6285.160     5790.723     2163.892        2.567        0.712      191.675       42.723        0.050      339.084       12.173      865.042
04/19/2013  23:45:00      -78.806      162.700      -13.122       51.596       93.840       40.776     2662.160     8805.922     1662.679        2.299        0.657      180.781       39.156        0.047      339.100       12.199      865.016
04/19/2013  23:46:00     -122.379      220.993      -31.016      114.845      109.882       58.573    13189.365    12074.023     3430.798        4.673        1.435      252.615       68.918        0.074      339.046       12.110      864.999
04/19/2013  23:47:00     -128.724      201.183      -29.927      115.374      101.599       49.310    13311.137    10322.293     2431.514        4.200        1.303      238.840       45.722        0.037      339.029       12.081      865.000
04/19/2013  23:48:00     -155.690      270.497      -33.760      101.896      130.251       65.029    10382.836    16965.342     4228.746        6.506        1.579      312.103       59.591        0.036      339.002       12.036      864.987
04/19/2013  23:49:00     -113.203      173.929      -10.362       75.918      104.480       51.648     5763.474    10916.070     2667.473        3.126        0.967      207.524       48.318        0.054      339.018       12.062      864.998
04/19/2013  23:50:00     -195.091      248.603      -39.731       94.834       95.383       56.817     8993.551     9097.982     3228.115        6.138        1.066      316.013       53.176        0.028      338.991       12.016      865.017
04/19/2013  23:51:00     -181.027      216.837      -34.175      105.547       88.777       56.929    11140.170     7881.352     3240.968        5.161        1.113      282.470       58.408        0.043      338.976       11.989      865.039
04/19/2013  23:52:00     -119.559      169.333      -26.544       88.862      111.147       46.221     7896.523    12353.675     2136.378        3.303        1.119      207.287       48.262        0.054      338.971       11.983      865.046
04/19/2013  23:53:00     -135.765      285.809      -18.962      100.086      150.928       67.788    10017.153    22779.216     4595.157        6.893        1.870      316.416       78.922        0.062      338.949       11.945      865.037
04/19/2013  23:54:00     -231.591      274.446      -57.963      115.424      132.985       66.210    13322.714    17684.902     4383.744        8.385        1.770      359.103       75.519        0.044      338.910       11.879      865.038
04/19/2013  23:55:00     -137.781      251.836      -25.540       85.590      112.025       60.119     7325.693    12549.560     3614.340        5.327        1.174      287.063       64.726        0.051      338.912       11.882      865.024
04/19/2013  23:56:00     -156.521      189.259      -37.286       97.477       97.092       49.253     9501.685     9426.886     2425.902        4.153        1.068      245.597       48.269        0.039      338.900       11.863      865.024
04/19/2013  23:57:00     -129.363      296.766      -34.495       84.421       98.323       47.167     7126.823     9667.407     2224.763        6.250        0.951      323.736       40.459        0.016      338.854       11.784      865.006
04/19/2013  23:58:00     -133.887      180.835      -24.894       93.371      107.000       56.558     8718.151    11449.000     3198.782        3.730        1.168      225.005       54.276        0.058      338.887       11.843      864.992
04/19/2013  23:59:00     -216.981      247.289      -39.080      101.079      119.916       59.988    10216.956    14379.803     3598.592        6.897        1.410      328.987       52.708        0.026      338.815       11.720      864.963
